[[{"header":{"parameterUnit":"m.s-1","parameterCategory":1,"la1":30.6,"la2":29.2853,"lo1":-89.7004,"lo2":-87.6739,"dy":0.0162,"dx":0.0183,"nx":112,"ny":82,"refTime":"2026-03-05T00:00:00:Z","depth":0,"parameterNumber":2,"parameterNumberName":"U-component_of_WINDS"},"data":[0.0,0.0,0.0,0.0,0.0,0.0,0.0,0.0,0.0,0.0,0.0,0.0,0.0,0.0,0.0,0.0,0.0,0.0,0.0,0.0,0.0,0.0,0.0,0.0,0.0,0.0,0.0,0.0,0.0,0.0,0.0,0.0,0.0,0.0,0.0,0.0,0.0,0.0,0.0,0.0,0.0,0.0,0.0,0.0,0.0,0.0,0.0,0.0,0.0,0.0,0.0,0.0,0.0,0.0,0.0,0.0,0.0,0.0,0.0,0.0,0.0,0.0,0.0,0.0,0.0,0.0,0.0,0.0,0.0,0.0,0.0,0.0,0.0,0.0,0.0,0.0,0.0,0.0,0.0,0.0,0.0,0.0,0.0,0.0,0.0,0.0,0.0,0.0,0.0,0.0,-1.947,-2.0577,-2.1667,-2.2296,-2.2296,-2.2209,-2.1725,-2.0791,0.0,0.0,0.0,0.0,0.0,0.0,0.0,0.0,0.0,0.0,0.0,0.0,0.0,0.0,0.0,0.0,0.0,0.0,0.0,0.0,0.0,0.0,0.0,0.0,0.0,0.0,0.0,0.0,0.0,0.0,0.0,0.0,0.0,0.0,0.0,0.0,0.0,0.0,0.0,0.0,0.0,0.0,0.0,0.0,0.0,0.0,0.0,0.0,0.0,0.0,0.0,0.0,0.0,0.0,0.0,0.0,0.0,0.0,0.0,0.0,0.0,0.0,0.0,0.0,0.0,0.0,0.0,0.0,0.0,0.0,0.0,0.0,0.0,0.0,0.0,0.0,0.0,0.0,0.0,0.0,0.0,0.0,0.0,0.0,0.0,0.0,0.0,0.0,0.0,0.0,0.0,0.0,0.0,0.0,0.0,0.0,0.0,0.0,0.0,0.0,0.0,0.0,0.0,0.0,-1.9224,-2.1735,-2.2172,-2.2296,-2.2296,-2.1735,-2.1101,-2.0506,0.0,0.0,0.0,0.0,0.0,0.0,0.0,0.0,0.0,0.0,0.0,0.0,0.0,0.0,0.0,0.0,0.0,0.0,0.0,0.0,0.0,0.0,0.0,0.0,0.0,0.0,0.0,0.0,0.0,0.0,0.0,0.0,0.0,0.0,0.0,0.0,0.0,0.0,0.0,0.0,0.0,0.0,0.0,0.0,0.0,0.0,0.0,0.0,0.0,0.0,0.0,0.0,0.0,0.0,0.0,0.0,0.0,0.0,0.0,0.0,0.0,0.0,0.0,0.0,0.0,0.0,0.0,0.0,0.0,0.0,0.0,0.0,0.0,0.0,0.0,0.0,0.0,0.0,0.0,0.0,0.0,0.0,0.0,0.0,0.0,0.0,0.0,0.0,0.0,0.0,0.0,0.0,0.0,0.0,0.0,0.0,0.0,0.0,0.0,0.0,0.0,0.0,0.0,-1.9058,-1.994,-2.2073,-2.2296,-2.2296,-2.2296,-2.1989,-2.146,-2.0668,-2.0317,0.0,0.0,0.0,0.0,0.0,0.0,0.0,0.0,0.0,0.0,0.0,0.0,0.0,0.0,0.0,0.0,0.0,0.0,0.0,0.0,0.0,0.0,0.0,0.0,0.0,0.0,0.0,0.0,0.0,0.0,0.0,0.0,0.0,0.0,0.0,0.0,0.0,0.0,0.0,0.0,0.0,0.0,0.0,0.0,0.0,0.0,0.0,0.0,0.0,0.0,0.0,0.0,0.0,0.0,0.0,0.0,0.0,0.0,0.0,0.0,0.0,0.0,0.0,0.0,0.0,0.0,0.0,0.0,0.0,0.0,0.0,0.0,0.0,0.0,0.0,0.0,0.0,0.0,0.0,0.0,0.0,0.0,0.0,0.0,0.0,0.0,0.0,0.0,0.0,0.0,0.0,0.0,0.0,0.0,0.0,0.0,0.0,0.0,0.0,0.0,0.0,0.0,-2.0433,-2.0809,-2.2161,-2.2296,-2.2296,-2.2296,-2.2127,-2.1617,-2.0679,-1.964,0.0,0.0,0.0,0.0,0.0,0.0,0.0,0.0,0.0,0.0,0.0,0.0,0.0,0.0,0.0,0.0,0.0,0.0,0.0,0.0,0.0,0.0,0.0,0.0,0.0,0.0,0.0,0.0,0.0,0.0,0.0,0.0,0.0,0.0,0.0,0.0,0.0,0.0,0.0,0.0,0.0,0.0,0.0,0.0,0.0,0.0,0.0,0.0,0.0,0.0,0.0,0.0,0.0,0.0,0.0,0.0,0.0,0.0,0.0,0.0,0.0,0.0,0.0,0.0,0.0,0.0,0.0,0.0,0.0,0.0,0.0,0.0,0.0,0.0,0.0,0.0,0.0,0.0,0.0,0.0,0.0,0.0,0.0,0.0,0.0,0.0,0.0,0.0,0.0,0.0,0.0,0.0,0.0,0.0,0.0,0.0,0.0,0.0,0.0,0.0,0.0,0.0,-2.0259,-2.1427,-2.2212,-2.2296,-2.2296,-2.2296,-2.1667,-2.0933,-2.0098,-1.8416,0.0,0.0,0.0,0.0,0.0,0.0,0.0,0.0,0.0,0.0,0.0,0.0,0.0,0.0,0.0,0.0,0.0,0.0,0.0,0.0,0.0,0.0,0.0,0.0,0.0,0.0,0.0,0.0,0.0,0.0,0.0,0.0,0.0,0.0,0.0,0.0,0.0,0.0,0.0,0.0,0.0,0.0,0.0,0.0,0.0,0.0,0.0,0.0,0.0,0.0,0.0,0.0,0.0,0.0,0.0,0.0,0.0,0.0,0.0,0.0,0.0,0.0,0.0,0.0,0.0,0.0,0.0,0.0,0.0,0.0,0.0,0.0,0.0,0.0,0.0,0.0,0.0,0.0,0.0,0.0,0.0,0.0,0.0,0.0,0.0,0.0,0.0,0.0,0.0,0.0,0.0,0.0,0.0,0.0,0.0,0.0,0.0,0.0,0.0,0.0,0.0,0.0,-2.0517,-2.1478,0.0,-2.2296,-2.2296,-2.2296,-2.2057,-2.1413,-2.0313,0.0,0.0,0.0,0.0,0.0,0.0,0.0,0.0,0.0,0.0,0.0,0.0,0.0,0.0,0.0,0.0,0.0,0.0,0.0,0.0,0.0,0.0,0.0,0.0,0.0,0.0,0.0,0.0,0.0,0.0,0.0,0.0,0.0,0.0,0.0,0.0,0.0,0.0,0.0,0.0,0.0,0.0,0.0,0.0,0.0,0.0,0.0,0.0,0.0,0.0,0.0,0.0,0.0,0.0,0.0,0.0,0.0,0.0,0.0,0.0,0.0,0.0,0.0,0.0,0.0,0.0,0.0,0.0,0.0,0.0,0.0,0.0,0.0,0.0,0.0,0.0,0.0,0.0,0.0,0.0,0.0,0.0,0.0,0.0,0.0,0.0,0.0,0.0,0.0,0.0,0.0,0.0,0.0,0.0,0.0,0.0,0.0,0.0,0.0,0.0,0.0,0.0,-1.9748,-2.0906,-2.1735,0.0,-2.2296,-2.2296,-2.2296,-2.1857,-2.1104,-1.999,0.0,0.0,0.0,0.0,0.0,0.0,0.0,0.0,0.0,0.0,0.0,0.0,0.0,0.0,0.0,0.0,0.0,0.0,0.0,0.0,0.0,0.0,0.0,0.0,0.0,0.0,0.0,0.0,0.0,0.0,0.0,0.0,0.0,0.0,0.0,0.0,0.0,0.0,0.0,0.0,0.0,0.0,0.0,0.0,0.0,0.0,0.0,0.0,0.0,0.0,0.0,0.0,0.0,0.0,0.0,0.0,0.0,0.0,0.0,0.0,0.0,0.0,0.0,0.0,0.0,0.0,0.0,0.0,0.0,0.0,0.0,0.0,0.0,0.0,0.0,0.0,0.0,0.0,0.0,0.0,0.0,0.0,0.0,0.0,0.0,0.0,0.0,0.0,0.0,0.0,0.0,0.0,0.0,0.0,0.0,0.0,0.0,0.0,0.0,0.0,0.0,0.0,-1.9816,-2.135,-2.2296,-2.2296,-2.2296,-2.2296,-2.2296,-2.088,-1.9693,0.0,0.0,0.0,0.0,0.0,0.0,0.0,0.0,0.0,0.0,0.0,0.0,0.0,0.0,0.0,0.0,0.0,0.0,0.0,0.0,0.0,0.0,0.0,0.0,0.0,0.0,0.0,0.0,0.0,0.0,0.0,0.0,0.0,0.0,0.0,0.0,0.0,0.0,0.0,0.0,0.0,0.0,0.0,0.0,0.0,0.0,0.0,0.0,0.0,0.0,0.0,0.0,0.0,0.0,0.0,0.0,0.0,0.0,0.0,0.0,0.0,0.0,0.0,0.0,0.0,0.0,0.0,0.0,0.0,0.0,0.0,0.0,0.0,0.0,0.0,0.0,0.0,0.0,0.0,0.0,0.0,0.0,0.0,0.0,0.0,0.0,0.0,0.0,0.0,0.0,0.0,0.0,0.0,0.0,0.0,0.0,0.0,0.0,0.0,0.0,0.0,0.0,0.0,-1.9816,-2.135,-2.2296,-2.2296,-2.2296,-2.2296,-2.2296,-2.1414,-2.0281,-1.8978,0.0,0.0,0.0,0.0,0.0,0.0,0.0,0.0,0.0,0.0,0.0,0.0,0.0,0.0,0.0,0.0,0.0,0.0,0.0,0.0,0.0,0.0,0.0,0.0,0.0,0.0,0.0,0.0,0.0,0.0,0.0,0.0,0.0,0.0,0.0,0.0,0.0,0.0,0.0,0.0,0.0,0.0,0.0,0.0,0.0,0.0,0.0,0.0,0.0,0.0,0.0,0.0,0.0,0.0,0.0,0.0,0.0,0.0,0.0,0.0,0.0,0.0,0.0,0.0,0.0,0.0,0.0,0.0,0.0,0.0,0.0,0.0,0.0,0.0,0.0,0.0,0.0,0.0,0.0,0.0,0.0,0.0,0.0,0.0,0.0,0.0,0.0,0.0,0.0,0.0,0.0,0.0,0.0,0.0,0.0,0.0,0.0,0.0,0.0,0.0,0.0,0.0,-1.9566,-2.0941,-2.184,-2.2003,-2.2017,-2.2106,-2.2282,-2.1329,-2.0078,-1.8555,0.0,0.0,0.0,0.0,0.0,0.0,0.0,0.0,0.0,0.0,0.0,0.0,0.0,0.0,0.0,0.0,0.0,0.0,0.0,0.0,0.0,0.0,0.0,0.0,0.0,0.0,0.0,0.0,0.0,0.0,0.0,0.0,0.0,0.0,0.0,0.0,0.0,0.0,0.0,0.0,0.0,0.0,0.0,0.0,0.0,0.0,0.0,0.0,0.0,0.0,0.0,0.0,0.0,0.0,0.0,0.0,0.0,0.0,0.0,0.0,0.0,0.0,0.0,0.0,0.0,0.0,0.0,0.0,0.0,0.0,0.0,0.0,0.0,0.0,0.0,0.0,0.0,0.0,0.0,0.0,0.0,0.0,0.0,0.0,0.0,0.0,0.0,0.0,0.0,0.0,0.0,0.0,0.0,0.0,0.0,0.0,0.0,0.0,0.0,0.0,0.0,0.0,-1.9206,-2.034,-2.1134,-2.1506,-2.1536,-2.172,-2.2135,-2.077,-1.9307,-1.7894,0.0,0.0,0.0,0.0,0.0,0.0,0.0,0.0,0.0,0.0,0.0,0.0,0.0,0.0,0.0,0.0,0.0,0.0,0.0,0.0,0.0,0.0,0.0,0.0,0.0,0.0,0.0,0.0,0.0,0.0,0.0,0.0,0.0,0.0,0.0,0.0,0.0,0.0,0.0,0.0,0.0,0.0,0.0,0.0,0.0,0.0,0.0,0.0,0.0,0.0,0.0,0.0,0.0,0.0,0.0,0.0,0.0,0.0,0.0,0.0,-1.7598,-1.7622,0.0,0.0,0.0,0.0,0.0,0.0,0.0,0.0,0.0,0.0,0.0,0.0,0.0,0.0,0.0,0.0,0.0,0.0,0.0,0.0,0.0,0.0,0.0,0.0,0.0,0.0,0.0,0.0,0.0,0.0,0.0,0.0,0.0,0.0,0.0,0.0,0.0,0.0,0.0,0.0,-1.9206,-2.034,-2.1023,-2.1118,-2.1118,-2.1182,-2.126,-1.9947,-1.875,-1.7869,-1.6167,0.0,0.0,0.0,0.0,0.0,0.0,0.0,0.0,0.0,0.0,0.0,0.0,0.0,0.0,0.0,0.0,0.0,0.0,0.0,0.0,0.0,0.0,0.0,0.0,0.0,0.0,0.0,0.0,0.0,0.0,0.0,0.0,0.0,0.0,0.0,0.0,0.0,0.0,0.0,0.0,0.0,0.0,0.0,0.0,0.0,0.0,0.0,0.0,0.0,0.0,0.0,0.0,0.0,0.0,0.0,0.0,0.0,0.0,0.0,-1.7691,-1.7823,0.0,0.0,0.0,0.0,0.0,0.0,0.0,0.0,0.0,0.0,0.0,0.0,0.0,0.0,0.0,0.0,0.0,0.0,0.0,0.0,0.0,0.0,0.0,0.0,0.0,0.0,0.0,0.0,0.0,0.0,0.0,0.0,0.0,0.0,0.0,0.0,0.0,0.0,0.0,0.0,-1.8658,-1.9735,-2.0448,-2.0633,-2.0666,-2.0764,-2.0975,-1.971,-1.8591,-1.785,-1.6289,0.0,0.0,0.0,0.0,0.0,0.0,0.0,0.0,0.0,0.0,0.0,0.0,0.0,0.0,0.0,0.0,0.0,0.0,0.0,0.0,0.0,0.0,0.0,0.0,0.0,0.0,0.0,0.0,0.0,0.0,0.0,0.0,0.0,0.0,0.0,0.0,0.0,0.0,0.0,0.0,0.0,0.0,0.0,0.0,0.0,0.0,0.0,0.0,0.0,0.0,0.0,0.0,0.0,-1.7623,-1.7868,-1.8436,-1.8175,-1.8057,-1.8045,-1.7991,-1.8243,-1.8659,-1.823,0.0,0.0,0.0,0.0,0.0,0.0,0.0,0.0,0.0,0.0,0.0,0.0,0.0,0.0,0.0,0.0,0.0,0.0,0.0,0.0,0.0,0.0,-1.7314,-1.8351,-1.8088,-1.7167,-1.549,0.0,0.0,0.0,0.0,0.0,0.0,0.0,0.0,0.0,0.0,0.0,-1.8053,-1.9093,-1.9836,-2.0158,-2.021,-2.0364,-2.0731,-1.9593,-1.8565,-1.7828,-1.6525,-1.4928,0.0,0.0,0.0,0.0,0.0,0.0,0.0,0.0,0.0,0.0,0.0,0.0,0.0,0.0,0.0,0.0,0.0,0.0,0.0,0.0,0.0,0.0,0.0,0.0,0.0,0.0,0.0,0.0,0.0,0.0,0.0,0.0,-1.3775,-1.4451,0.0,0.0,0.0,0.0,0.0,0.0,0.0,0.0,0.0,0.0,0.0,0.0,0.0,-1.7059,-1.7405,-1.8067,-1.846,-1.855,-1.9103,-1.9401,-1.9509,-1.9456,-1.9453,-1.9438,-1.9436,0.0,-1.8331,-1.8811,0.0,0.0,0.0,0.0,0.0,0.0,0.0,0.0,0.0,0.0,0.0,0.0,0.0,0.0,0.0,0.0,0.0,0.0,0.0,0.0,0.0,0.0,-1.8341,-1.7934,-1.7752,-1.7601,-1.7345,-1.6296,-1.5213,-1.4629,-1.4524,-1.4503,0.0,0.0,0.0,0.0,0.0,0.0,-1.8115,-1.9093,-1.9711,-1.9764,-1.9782,-1.98,-1.9871,-1.9176,-1.845,-1.7753,-1.6676,-1.5695,-1.4875,-1.3461,0.0,0.0,0.0,0.0,0.0,0.0,0.0,0.0,0.0,0.0,0.0,0.0,0.0,0.0,0.0,0.0,0.0,0.0,0.0,0.0,0.0,0.0,0.0,0.0,0.0,0.0,0.0,0.0,0.0,-1.3967,-1.4828,-1.4982,-1.5197,-1.5189,0.0,0.0,0.0,0.0,0.0,0.0,0.0,0.0,0.0,-1.6985,-1.765,-1.8084,-1.8252,-1.8927,-1.9256,-1.9273,-1.9573,-1.9708,-1.9708,-1.9708,-1.9708,-1.9708,-1.9708,-1.9451,-1.9032,-1.8955,-1.8973,-1.8983,0.0,0.0,0.0,0.0,-1.9159,-1.8829,-1.9045,-1.8843,-1.8392,-1.7633,0.0,0.0,0.0,0.0,0.0,0.0,0.0,-1.7807,-1.8192,-1.8502,-1.8732,-1.8807,-1.8822,-1.8732,-1.8326,-1.7741,-1.6934,-1.5679,-1.5438,-1.5252,-1.4702,-1.4599,0.0,0.0,0.0,-1.7425,-1.8366,-1.9181,-1.9708,-1.9708,-1.9708,-1.9708,-1.9708,-1.9091,-1.8401,-1.7743,-1.6909,-1.5988,-1.5015,-1.4365,-1.3664,0.0,0.0,0.0,0.0,0.0,0.0,0.0,0.0,0.0,0.0,0.0,0.0,0.0,0.0,0.0,0.0,0.0,0.0,0.0,0.0,0.0,0.0,0.0,0.0,0.0,0.0,0.0,0.0,-1.4999,-1.5705,-1.5654,-1.6264,-1.6445,0.0,0.0,0.0,0.0,0.0,0.0,-1.7197,-1.7426,-1.7651,-1.7938,-1.8612,-1.8889,-1.875,-1.9241,-1.9424,-1.9281,-1.9281,-1.9281,-1.9281,-1.9281,-1.9281,-1.9299,-1.9442,-1.9497,-1.9467,-1.9098,-1.9097,-1.9275,-1.8771,-1.8764,-1.9108,-1.9657,-1.95,-1.9139,-1.9905,-1.9785,-1.9243,-1.8691,-1.84,-1.8097,-1.7295,0.0,0.0,0.0,0.0,-1.8481,-1.9152,-1.9148,-1.9076,-1.9588,-1.9708,-1.9573,-1.9061,-1.8957,-1.8468,-1.6833,-1.6512,-1.6262,-1.5531,-1.5398,0.0,0.0,0.0,-1.7804,-1.86,-1.9286,-1.9708,-1.9708,-1.9708,-1.9708,-1.9708,-1.9226,-1.8612,-1.7758,-1.7234,-1.6383,-1.511,-1.5086,-1.4623,-1.3639,0.0,0.0,0.0,0.0,0.0,0.0,0.0,0.0,0.0,0.0,0.0,0.0,0.0,0.0,0.0,0.0,0.0,0.0,0.0,0.0,0.0,0.0,0.0,0.0,0.0,0.0,0.0,0.0,0.0,-1.6563,-1.6667,0.0,0.0,0.0,0.0,-1.6578,-1.6637,-1.6937,-1.764,-1.827,-1.8629,-1.8657,-1.9286,-1.9416,-1.8891,-1.8916,-1.8669,-1.8185,-1.8185,-1.8185,-1.8185,-1.8185,-1.8185,-1.8224,-1.8708,-1.8949,-1.8987,-1.9449,-1.9648,-1.9666,-1.9636,-1.9639,-1.9656,-1.9687,-1.9687,-1.9656,-1.9714,-1.9714,-1.9666,-1.9636,-1.9201,-1.8659,-1.8602,-1.8167,0.0,0.0,-1.8661,-1.8841,-1.9501,-1.9666,-1.9663,-1.9693,-1.9708,-1.9693,-1.9663,-1.9648,-1.9258,-1.7879,-1.7625,-1.7595,-1.7551,0.0,-1.7566,-1.761,-1.8179,-1.8644,-1.8687,-1.9286,-1.9708,-1.9708,-1.9708,-1.9708,-1.9708,-1.9678,-1.9091,-1.7772,-1.7669,-1.7071,-1.5799,-1.5154,-1.4793,-1.4719,-1.2827,0.0,0.0,0.0,0.0,0.0,0.0,0.0,0.0,0.0,0.0,0.0,0.0,0.0,0.0,0.0,0.0,0.0,0.0,0.0,0.0,0.0,0.0,0.0,0.0,0.0,0.0,0.0,0.0,-1.7264,-1.7712,0.0,-1.7101,-1.7026,-1.728,-1.7938,-1.7997,-1.8267,-1.8957,-1.8879,-1.8834,-1.8834,-1.874,-1.8574,-1.84,-1.84,-1.8302,-1.8106,-1.8106,-1.8106,-1.8106,-1.8106,-1.8106,-1.8125,-1.8302,-1.84,-1.84,-1.8593,-1.908,-1.9708,-1.9708,-1.9708,-1.9708,-1.9708,-1.9708,-1.9708,-1.9708,-1.9708,-1.9708,-1.9708,-1.9543,-1.9348,-1.9348,-1.9166,-1.9031,-1.9271,-1.9348,-1.9408,-1.9648,-1.9708,-1.9708,-1.9708,-1.9708,-1.9708,-1.9708,-1.9708,-1.9573,-1.9076,-1.8642,-1.8207,-1.7773,-1.7713,-1.7848,-1.8267,-1.8553,-1.8852,-1.9286,-1.9558,-1.9708,-1.9708,-1.9708,-1.9708,-1.9708,-1.9708,-1.9121,-1.7772,-1.7713,-1.7116,-1.5858,-1.5574,-1.523,-1.4811,-1.4107,-1.3007,0.0,0.0,0.0,0.0,0.0,0.0,0.0,0.0,0.0,0.0,0.0,0.0,0.0,0.0,0.0,0.0,0.0,0.0,0.0,0.0,0.0,0.0,0.0,0.0,0.0,0.0,-1.7533,-1.7983,-1.8627,-1.8777,-1.8102,-1.8237,-1.8568,-1.9001,-1.9031,-1.9226,-1.9678,-1.9188,-1.8893,-1.8893,-1.838,-1.8007,-1.7827,-1.7827,-1.7747,-1.7565,-1.7565,-1.7565,-1.7565,-1.7565,-1.7565,-1.7565,-1.7747,-1.7827,-1.7847,-1.8027,-1.8631,-1.9424,-1.9424,-1.9548,-1.9708,-1.9708,-1.9708,-1.9708,-1.9708,-1.9708,-1.9708,-1.9708,-1.9708,-1.9708,-1.9708,-1.9708,-1.9708,-1.9708,-1.9708,-1.9708,-1.9708,-1.9708,-1.9708,-1.9708,-1.9708,-1.9708,-1.9708,-1.9708,-1.9708,-1.9708,-1.9348,-1.8897,-1.8446,-1.8371,-1.8538,-1.8972,-1.9031,-1.9196,-1.9648,-1.9708,-1.9708,-1.9708,-1.9708,-1.9708,-1.9708,-1.9498,-1.8897,-1.7773,-1.7488,-1.6891,-1.5844,-1.5799,-1.5589,-1.5155,-1.4691,-1.3703,-1.2119,0.0,0.0,0.0,0.0,0.0,0.0,0.0,0.0,0.0,0.0,0.0,0.0,0.0,0.0,0.0,0.0,0.0,0.0,0.0,0.0,0.0,0.0,0.0,-1.6682,-1.7878,-1.8717,-1.8732,-1.9286,-1.9435,-1.8792,-1.9316,-1.9708,-1.9708,-1.969,-1.969,-1.969,-1.9151,-1.8855,-1.8855,-1.8341,-1.7807,-1.7271,-1.7271,-1.7013,-1.65,-1.65,-1.65,-1.65,-1.65,-1.65,-1.6543,-1.7055,-1.7271,-1.7333,-1.7847,-1.838,-1.8855,-1.8893,-1.9225,-1.9708,-1.9708,-1.969,-1.969,-1.969,-1.969,-1.969,-1.969,-1.9708,-1.9708,-1.9708,-1.969,-1.969,-1.9708,-1.969,-1.969,-1.969,-1.969,-1.9708,-1.969,-1.969,-1.9708,-1.9708,-1.9708,-1.9708,-1.9708,-1.9708,-1.9708,-1.9708,-1.9708,-1.9708,-1.9708,-1.9708,0.0,-1.9708,-1.9708,-1.9708,-1.9708,-1.9708,-1.9708,-1.9708,-1.9091,-1.8401,-1.7743,-1.707,-1.6443,-1.5829,-1.5799,-1.5799,-1.5799,-1.4498,-1.3496,-1.2819,0.0,0.0,0.0,0.0,0.0,0.0,0.0,0.0,0.0,0.0,0.0,0.0,0.0,0.0,0.0,0.0,0.0,0.0,0.0,0.0,0.0,-1.7,-1.7954,-1.8132,-1.8478,-1.8882,-1.9378,-1.9588,-1.9633,-1.9453,-1.9588,-1.9708,-1.9708,-1.935,-1.9132,-1.9132,-1.8243,-1.7747,-1.7747,-1.7209,-1.6879,-1.671,-1.671,-1.6659,-1.65,-1.65,-1.65,-1.65,-1.65,-1.65,-1.6522,-1.6659,-1.671,-1.6731,-1.6879,-1.725,-1.7827,-1.8593,-1.9225,-1.9708,-1.9708,-1.9442,-1.9188,-1.9566,-1.9442,-1.9188,-1.9566,-1.9708,-1.9708,-1.9708,-1.9424,-1.9207,-1.9584,-1.9424,-1.9132,-1.9132,-1.9406,-1.9603,-1.9207,-1.9424,-1.9708,-1.9708,-1.9708,-1.9708,-1.9708,-1.9708,-1.9708,-1.9708,-1.9708,-1.9708,-1.9708,-1.9708,0.0,-1.9708,-1.9708,-1.9708,-1.9708,-1.9708,-1.9708,-1.9708,-1.9091,-1.8401,-1.7743,-1.707,-1.6443,-1.5829,-1.5799,-1.5799,-1.5799,-1.496,-1.4199,0.0,0.0,0.0,0.0,0.0,0.0,0.0,0.0,0.0,0.0,0.0,0.0,0.0,0.0,0.0,0.0,0.0,0.0,0.0,0.0,0.0,0.0,-1.7857,-1.8807,-1.9076,-1.9121,-1.9256,-1.9648,-1.9708,-1.9708,-1.9708,-1.9497,-1.9369,-1.9369,-1.8874,-1.8554,-1.8554,-1.7767,-1.7312,-1.7312,-1.6774,-1.65,-1.65,-1.65,-1.65,-1.65,-1.65,-1.65,-1.65,-1.65,-1.65,-1.65,-1.65,-1.65,-1.65,-1.65,-1.6816,-1.7374,0.0,0.0,0.0,0.0,-1.8968,-1.8949,-1.9262,-1.9314,-1.9281,-1.9603,-1.9548,-1.9369,-1.9369,-1.9151,-1.8968,-1.9281,-1.9151,-1.8893,-1.8893,-1.8968,-1.9006,-1.893,-1.9151,-1.9369,-1.9369,-1.9369,-1.9299,-1.9062,-1.9207,0.0,-1.9369,-1.9548,-1.9708,-1.9708,-1.9708,-1.9708,-1.9708,-1.9708,-1.9708,-1.9708,-1.9708,-1.9708,-1.9708,-1.9091,0.0,0.0,0.0,-1.6443,-1.5829,-1.5799,0.0,0.0,0.0,0.0,0.0,0.0,0.0,0.0,-1.402,-1.4021,0.0,0.0,0.0,0.0,0.0,0.0,0.0,0.0,0.0,0.0,0.0,0.0,0.0,0.0,0.0,0.0,-1.8371,-1.9016,-1.9618,-1.9708,-1.9708,-1.9708,-1.9708,-1.9708,-1.9708,-1.9262,-1.8968,-1.8893,-1.84,-1.8066,-1.8007,0.0,0.0,0.0,0.0,-1.65,-1.65,-1.65,-1.65,-1.65,-1.65,-1.65,-1.65,-1.65,-1.65,-1.65,-1.65,-1.65,-1.65,-1.65,-1.6774,-1.7209,-1.7353,-1.7686,-1.8106,-1.8106,-1.8361,-1.8727,-1.8798,0.0,0.0,-1.9497,-1.9207,-1.8817,-1.8817,-1.8765,-1.8727,-1.8798,-1.8765,-1.8708,-1.8708,-1.8419,-1.8204,-1.8612,-1.8765,-1.8817,-1.8817,-1.8817,-1.8669,-1.8204,-1.8477,-1.8836,-1.8893,-1.935,-1.9708,-1.9708,-1.9708,-1.9708,-1.9708,-1.9708,-1.9708,-1.9708,-1.9708,0.0,-1.9708,-1.9091,-1.8446,-1.7848,-1.7189,-1.6577,-1.6038,-1.6009,-1.6249,-1.6708,-1.6723,-1.7021,-1.7617,-1.7617,-1.7434,-1.7064,-1.5124,-1.5102,0.0,0.0,0.0,0.0,0.0,0.0,0.0,0.0,0.0,0.0,0.0,0.0,0.0,0.0,0.0,-1.8478,-1.9076,-1.9558,-1.9693,-1.9708,-1.9708,-1.9708,-1.9708,-1.9708,-1.9708,-1.9603,-1.9369,-1.893,-1.84,-1.7907,-1.7483,-1.6951,-1.6659,-1.6659,-1.6552,-1.65,-1.65,-1.65,-1.65,-1.65,-1.65,0.0,-1.65,-1.65,-1.65,-1.65,-1.65,-1.65,-1.65,-1.65,-1.6552,-1.6731,-1.7605,-1.8007,-1.8106,-1.8106,-1.7887,-1.7666,-1.8106,-1.8046,-1.7847,-1.8283,-1.8341,-1.8263,-1.8263,-1.7947,0.0,-1.8145,-1.7947,-1.7605,-1.7605,-1.7847,-1.8027,-1.7686,-1.7947,-1.8263,-1.8263,-1.8263,-1.8224,-1.8125,-1.8185,-1.84,-1.8836,-1.935,-1.9708,-1.9708,-1.9708,-1.9708,-1.9708,-1.9708,-1.9708,-1.9708,-1.9708,-1.9708,-1.9708,-1.9091,-1.8625,-1.8506,-1.7878,-1.7459,-1.734,-1.7325,-1.7177,-1.6867,-1.6867,-1.6925,-1.704,-1.704,-1.7503,-1.8325,-1.7381,-1.6684,0.0,0.0,0.0,0.0,0.0,0.0,0.0,0.0,0.0,0.0,0.0,-1.7272,-1.7851,0.0,-1.8807,-1.9151,-1.9465,-1.9708,-1.9708,-1.9708,-1.9708,-1.9708,-1.9708,-1.9708,-1.9708,-1.946,-1.9188,-1.893,-1.8165,-1.7585,-1.7312,-1.6795,-1.65,-1.65,-1.65,-1.65,-1.65,-1.65,-1.65,-1.65,-1.65,-1.65,-1.65,-1.65,-1.65,-1.65,-1.65,-1.65,-1.65,-1.65,-1.65,-1.6552,-1.7097,-1.7312,-1.7312,-1.7312,-1.7312,-1.7353,-1.7605,-1.7706,-1.7747,-1.8007,-1.7927,-1.7706,-1.7706,-1.7504,-1.7374,-1.7626,-1.7504,-1.7312,-1.7312,-1.7312,-1.7312,-1.7312,-1.7504,-1.7706,-1.7706,-1.7706,-1.7706,-1.7706,-1.7706,-1.7867,-1.8419,-1.8708,-1.908,-1.9621,-1.9708,-1.9708,-1.9708,-1.9708,-1.9708,-1.9708,-1.946,-1.9406,-1.969,-1.9091,-1.848,-1.7939,-1.7775,-1.7584,-1.7322,-1.729,-1.7335,-1.7397,-1.7132,-1.7179,-1.7506,-1.7506,-1.7679,-1.7993,-1.7923,-1.7762,0.0,0.0,0.0,0.0,0.0,0.0,0.0,0.0,-1.6829,-1.7608,-1.7685,-1.7944,-1.9077,-1.9088,-1.9076,-1.9618,-1.9708,-1.9708,-1.9708,-1.9708,-1.9708,-1.9708,-1.9708,-1.9708,-1.9708,-1.9207,-1.8855,-1.8746,-1.7847,-1.725,-1.7146,-1.6731,-1.65,-1.65,-1.65,-1.65,-1.65,-1.65,-1.65,-1.65,-1.65,-1.65,-1.65,-1.65,-1.65,-1.65,-1.65,-1.65,-1.65,-1.65,-1.65,-1.65,-1.65,-1.65,-1.65,-1.65,-1.6774,-1.7126,-1.7126,-1.7502,-1.7936,-1.7828,-1.7584,-1.7303,-1.7186,-1.7126,-1.7126,-1.7126,-1.7126,-1.7126,-1.7126,-1.6816,-1.6616,-1.7034,-1.7126,-1.7126,-1.7126,-1.7126,-1.7126,-1.7126,-1.7126,-1.7312,-1.7847,-1.7947,-1.8283,-1.9244,-1.9387,-1.9387,-1.9387,-1.9479,-1.9497,-1.9406,-1.9114,-1.9062,-1.9512,-1.904,-1.836,-1.7506,-1.7654,-1.7571,-1.7157,-1.7121,-1.7345,-1.7767,-1.7355,-1.7396,-1.7947,-1.7947,-1.7787,-1.7463,-1.7907,-1.8224,-1.7334,-1.6336,-1.6047,-1.6721,-1.6758,-1.7087,0.0,0.0,-1.8603,-1.9281,-1.9416,-1.9461,-1.9611,-1.9606,-1.9618,-1.9693,-1.9708,-1.9708,-1.9708,-1.9708,-1.9708,-1.9708,-1.9708,-1.9708,-1.9708,-1.9207,-1.8688,-1.8243,-1.7646,-1.7097,-1.6616,-1.6543,-1.65,-1.65,-1.65,-1.65,-1.65,-1.65,-1.65,-1.65,-1.65,-1.65,-1.65,-1.65,-1.65,-1.65,-1.65,-1.65,-1.65,-1.65,-1.65,-1.65,-1.65,-1.65,-1.65,-1.65,-1.6531,-1.6595,-1.6595,-1.6979,-1.7387,-1.6845,-1.7001,-1.7298,-1.6746,-1.6595,-1.6595,-1.6595,-1.6595,-1.6595,-1.6595,-1.6531,-1.6522,-1.6573,-1.6595,-1.6595,-1.6595,-1.6595,-1.6595,-1.6595,-1.6595,-1.6752,-1.7312,-1.7394,-1.7585,-1.8204,-1.8283,-1.8283,-1.8283,-1.8688,-1.8817,-1.8341,-1.865,-1.893,-1.8987,-1.8929,-1.8829,-1.8702,-1.8289,-1.8035,-1.7977,-1.7977,-1.7769,-1.737,-1.7309,-1.7307,-1.7394,-1.7394,-1.7605,-1.8007,-1.8066,-1.7626,-1.8706,-1.8253,-1.8063,0.0,-1.8246,-1.8568,-1.9016,-1.9196,-1.9346,-1.9648,-1.9708,-1.9708,-1.9708,-1.9708,-1.9708,0.0,-1.9708,-1.9708,-1.9708,-1.9708,-1.9708,-1.9708,-1.9708,-1.9708,-1.9708,-1.9497,-1.9151,-1.8612,-1.8066,-1.7524,-1.6993,-1.668,-1.65,-1.65,-1.65,-1.65,-1.65,-1.65,-1.65,-1.65,-1.65,-1.65,-1.65,-1.65,-1.6697,-1.7024,-1.7024,-1.72,-1.7501,-1.7501,-1.7501,-1.7476,-1.7149,-1.7024,-1.6974,-1.6635,-1.6713,-1.7024,-1.7024,-1.7388,-1.7765,-1.72,-1.7187,-1.7297,-1.6685,-1.65,-1.65,-1.65,-1.65,-1.65,-1.65,-1.65,-1.65,-1.65,-1.65,-1.65,-1.65,-1.65,-1.6595,-1.6888,-1.671,-1.668,-1.7209,-1.7034,-1.6909,-1.7126,-1.7706,-1.8106,-1.8106,-1.8302,-1.8243,-1.7686,-1.84,-1.865,-1.8027,-1.8535,-1.8631,-1.8007,-1.8046,-1.7967,-1.7646,-1.7626,-1.7524,-1.7312,-1.6993,-1.6837,-1.6837,-1.6837,-1.6951,-1.7167,-1.7167,-1.693,-1.9465,0.0,0.0,-1.8867,-1.9196,-1.9573,-1.9091,-1.9346,-1.9708,-1.9708,-1.9708,-1.9708,-1.9708,-1.9708,-1.9708,-1.9708,-1.9708,-1.9708,-1.9708,-1.9708,-1.9708,-1.9708,-1.9708,-1.9708,-1.9708,-1.9566,-1.9262,-1.8708,-1.8185,-1.7646,-1.7118,-1.671,-1.65,-1.65,-1.65,-1.65,-1.65,-1.65,-1.65,-1.65,-1.6663,-1.6651,-1.65,-1.65,-1.6835,-1.741,-1.741,-1.7689,-1.8204,-1.8204,-1.8204,-1.8166,-1.7765,-1.7614,-1.7564,-1.7137,-1.7149,-1.7423,-1.7574,-1.7965,-1.8318,-1.779,-1.7714,-1.7727,-1.7149,-1.6873,-1.676,-1.676,-1.6635,-1.65,-1.65,-1.65,-1.65,-1.65,-1.65,-1.65,-1.65,-1.65,-1.6616,-1.6993,-1.6774,-1.6616,-1.7013,-1.6752,-1.65,-1.65,-1.7146,-1.7666,-1.7666,-1.7666,-1.7565,-1.7333,-1.8007,-1.8145,-1.7374,-1.8007,-1.8145,-1.7353,-1.7524,-1.7483,-1.7097,-1.7076,-1.7076,-1.7076,-1.6689,-1.65,-1.65,-1.65,-1.65,-1.65,-1.65,-1.65,0.0,0.0,-1.9543,-1.8867,-1.9196,-1.9693,-1.9678,-1.9693,-1.9708,-1.9708,-1.9708,-1.9708,-1.9708,-1.9708,-1.9708,-1.9708,-1.9708,-1.9708,-1.9708,-1.9708,-1.9708,-1.9708,-1.9708,-1.9708,0.0,-1.9225,-1.8688,-1.8165,-1.7626,-1.7097,-1.6552,-1.6522,-1.65,-1.65,-1.65,-1.65,-1.65,-1.65,-1.65,-1.65,-1.7087,-1.7061,-1.65,-1.65,-1.6835,-1.741,-1.741,-1.7689,-1.8204,-1.8204,-1.8204,-1.8204,-1.8191,-1.8179,-1.8179,-1.8166,-1.7827,-1.7473,-1.799,-1.8519,-1.8895,-1.8355,-1.8519,-1.8845,-1.8317,-1.779,-1.7373,-1.7373,-1.6948,-1.65,-1.65,-1.65,-1.65,-1.65,-1.65,-1.65,-1.65,-1.65,-1.65,-1.6522,-1.6522,-1.6522,-1.6522,-1.6522,-1.65,-1.65,-1.6543,-1.6552,-1.6552,-1.6552,-1.6731,-1.725,-1.7333,-1.7353,-1.7312,-1.7333,-1.7333,-1.7312,-1.6837,-1.6531,-1.6522,-1.6522,-1.6522,-1.6522,-1.6522,-1.65,-1.65,-1.65,-1.65,-1.65,-1.65,-1.65,-1.9405,0.0,-1.9648,-1.9405,-1.9525,-1.9708,-1.9708,-1.9708,-1.9708,-1.9708,-1.9708,-1.9708,-1.9708,-1.9708,-1.9708,-1.9708,-1.9708,-1.9708,-1.9708,-1.9708,-1.9708,-1.9708,-1.9387,0.0,0.0,0.0,0.0,-1.8145,-1.7605,-1.7076,-1.6543,-1.65,-1.65,-1.65,-1.65,-1.65,-1.65,-1.65,-1.65,-1.65,-1.7099,-1.7074,-1.6513,-1.6911,-1.72,-1.741,-1.741,-1.7903,-1.8719,-1.8719,-1.8933,-1.9233,-1.8857,-1.8719,-1.8719,-1.8719,-1.8607,-1.8481,-1.8669,-1.907,-1.9447,-1.8907,-1.8857,-1.8895,-1.8367,-1.7815,-1.741,-1.741,-1.6974,-1.65,-1.65,-1.65,-1.65,-1.65,-1.65,-1.65,-1.65,-1.65,-1.65,-1.65,-1.65,-1.65,-1.65,-1.65,-1.65,-1.65,-1.65,-1.65,-1.65,-1.65,-1.6573,-1.6752,-1.7097,-1.7312,-1.7312,-1.7312,-1.7312,-1.7312,-1.6795,-1.65,-1.65,-1.65,-1.65,-1.65,-1.65,-1.65,-1.65,-1.65,-1.65,-1.65,-1.65,-1.65,-1.9989,-2.0049,-2.0109,-2.0348,-2.0408,-2.0408,-2.0408,-2.0228,-2.0049,-2.0049,-1.9872,-1.9708,-1.9708,-1.9708,-1.9708,-1.9708,-1.9708,-1.9708,-1.9708,-1.9708,-1.9708,-1.9708,-1.9406,-1.9332,0.0,0.0,0.0,-1.8145,-1.7605,-1.7076,-1.6543,-1.65,-1.65,-1.65,-1.65,-1.65,-1.65,-1.65,-1.66,-1.6835,-1.74,-1.7476,-1.7102,-1.73,-1.7624,-1.7953,-1.7765,-1.8292,-1.9284,-1.9284,-1.9497,-1.9773,-1.9409,-1.9284,-1.9284,-1.9284,-1.9284,-1.9284,-1.9284,-1.9497,-1.9748,-1.9384,-1.9284,-1.9208,-1.8882,-1.8254,-1.7677,-1.7677,-1.7112,-1.65,-1.65,-1.65,-1.65,-1.65,-1.65,-1.65,-1.65,-1.65,-1.65,-1.65,-1.65,-1.65,-1.65,-1.65,-1.65,-1.65,-1.65,-1.65,-1.65,-1.65,-1.65,-1.65,-1.6816,-1.7013,-1.7013,-1.7013,-1.7013,-1.7013,-1.6701,-1.65,-1.65,-1.65,-1.65,-1.65,-1.65,-1.65,-1.65,-1.65,-1.65,-1.65,-1.65,-1.65,-2.0554,-2.0748,-2.0897,-2.1545,-2.1665,-2.165,-2.165,-2.1141,-2.0643,-2.0643,-2.0139,-1.9708,0.0,0.0,-1.9708,-1.9708,-1.9708,-1.9708,-1.9708,-1.9708,-1.9708,0.0,0.0,0.0,0.0,0.0,0.0,-1.8185,0.0,-1.7076,-1.6543,-1.65,-1.65,-1.65,-1.65,-1.65,-1.65,-1.65,-1.6798,-1.7373,-1.7928,-1.8179,-1.8103,-1.7662,-1.7978,-1.8895,-1.8368,-1.8769,-1.9761,-1.9761,-1.9773,-1.9798,-1.9798,-1.9798,-1.9798,-1.9798,-1.9798,-1.9798,-1.9798,-1.9798,-1.9798,-1.9798,-1.9798,-1.9798,-1.9798,-1.907,-1.8242,-1.8242,-1.7428,-1.6588,-1.6588,-1.6563,-1.655,-1.6575,-1.6563,-1.655,-1.6575,-1.6588,-1.6575,-1.655,-1.6513,-1.65,-1.65,-1.65,-1.65,-1.65,-1.65,-1.65,-1.65,-1.65,-1.65,-1.65,-1.65,-1.65,-1.65,-1.65,-1.65,-1.65,-1.65,-1.65,-1.65,-1.65,-1.65,-1.65,-1.65,-1.65,-1.65,-1.65,-1.65,-1.65,-1.65,-1.65,-2.1261,-2.1455,-2.1485,-2.1665,-2.1321,-2.0942,-2.0942,-2.0438,-1.9944,-1.9944,-1.9828,-1.9708,0.0,0.0,0.0,-1.9708,-1.9708,0.0,-1.9708,-1.9708,0.0,-1.9708,0.0,-1.9262,-1.9657,-1.8855,0.0,0.0,-1.7827,-1.7076,-1.6543,-1.65,-1.65,-1.65,-1.65,-1.65,-1.65,-1.65,-1.6575,-1.6748,-1.7739,-1.7765,-1.6951,-1.7677,-1.7928,-1.779,-1.7652,-1.8216,-1.9196,-1.9196,-1.9447,-1.9798,-1.9798,-1.9798,-1.9798,-1.9798,-1.9798,-1.9798,-1.9798,-1.9798,-1.9798,-1.9798,-1.9798,-1.9798,-1.9798,-1.9346,-1.8795,-1.8795,-1.8293,-1.7777,-1.7777,-1.7476,-1.7262,-1.7677,-1.7463,-1.7275,-1.7689,-1.7777,-1.7652,-1.7237,-1.681,-1.65,-1.65,-1.65,-1.65,-1.65,-1.65,-1.65,-1.65,-1.65,-1.65,-1.65,-1.65,-1.65,-1.65,-1.65,-1.65,-1.65,-1.65,-1.65,-1.65,-1.65,-1.65,-1.65,-1.65,-1.65,-1.65,-1.65,-1.65,-1.65,-1.65,-1.65,-2.1949,-2.2149,-2.2188,-2.2458,-2.2054,-2.1575,-2.1575,-2.0827,-2.0139,-2.0139,-1.9884,0.0,0.0,0.0,0.0,0.0,0.0,0.0,-1.9708,-1.9708,-1.9708,0.0,-1.9424,0.0,-1.935,-1.9024,-1.8631,0.0,-1.7646,-1.7167,-1.6879,-1.6637,-1.65,-1.65,-1.65,-1.65,-1.65,-1.6773,-1.6773,-1.6513,-1.7664,-1.7739,-1.6923,-1.7551,-1.794,-1.8091,-1.7852,-1.8355,-1.9334,-1.9334,-1.9535,-1.9798,-1.9798,-1.9798,-1.9798,-1.9798,-1.9798,-1.9798,-1.9798,-1.9798,-1.9798,-1.9798,-1.9798,-1.9798,-1.9798,-1.9447,-1.9008,-1.9008,-1.8607,-1.8204,-1.8204,-1.7978,-1.7815,-1.8129,-1.7965,-1.7827,-1.8141,-1.8016,-1.7677,-1.7112,-1.6735,-1.65,-1.65,-1.65,-1.65,-1.65,-1.65,-1.65,-1.65,-1.65,-1.65,-1.65,-1.65,-1.65,-1.65,-1.65,-1.65,-1.65,-1.65,-1.65,-1.65,-1.65,-1.65,-1.65,-1.65,-1.65,-1.65,-1.65,-1.65,-1.65,-1.65,-1.65,-2.2643,-2.2823,-2.2957,-2.346,-2.3092,-2.2568,-2.2568,-2.1455,-2.0419,-2.0419,0.0,-1.9393,-1.8807,-1.9241,-1.9513,-1.8927,0.0,-1.9708,-1.9708,-1.9708,-1.9708,-1.9708,-1.9708,-1.953,-1.9043,-1.9369,-1.9024,-1.7626,-1.7394,-1.7271,-1.7188,-1.6752,-1.65,-1.65,-1.65,-1.65,-1.65,-1.7024,-1.7024,-1.6513,-1.7589,-1.7802,-1.7285,-1.7373,-1.794,-1.887,-1.8405,-1.8807,-1.9798,-1.9798,-1.9798,-1.9798,-1.9798,-1.9798,-1.9798,-1.9798,-1.9798,-1.9798,-1.9798,-1.9798,-1.9798,-1.9798,-1.9798,-1.9798,-1.9798,-1.9484,-1.9108,-1.9108,-1.8757,-1.8417,-1.8417,-1.8367,-1.8329,-1.8405,-1.8367,-1.8329,-1.8405,-1.799,-1.7451,-1.6926,-1.6776,-1.6701,-1.6626,-1.6613,-1.6588,-1.65,-1.65,-1.65,-1.65,-1.65,-1.65,-1.65,-1.65,-1.65,-1.65,-1.65,-1.65,-1.65,-1.65,-1.65,-1.65,-1.65,-1.65,-1.65,-1.65,-1.65,-1.65,-1.65,-1.65,-1.65,-1.65,-1.65,-2.3266,-2.343,-2.346,-2.3565,-2.2727,-2.1859,-2.1859,-2.0408,0.0,0.0,0.0,-1.8837,-1.8732,-1.9241,-1.9663,-1.9558,0.0,0.0,0.0,0.0,-1.9708,0.0,0.0,0.0,0.0,0.0,0.0,0.0,-1.7807,-1.7118,-1.6659,-1.6552,-1.65,-1.65,-1.65,-1.65,-1.65,-1.66,-1.66,-1.65,-1.72,-1.7225,-1.6663,-1.7162,-1.7739,-1.8318,-1.8242,-1.8807,-1.9798,-1.9798,-1.9798,-1.9798,-1.9798,-1.9798,-1.9798,-1.9798,-1.9798,-1.9798,-1.9798,-1.9798,-1.9798,-1.9798,-1.9798,-1.9798,-1.9798,-1.9748,-1.966,-1.966,-1.9597,-1.9522,-1.9522,-1.9183,-1.897,-1.9422,-1.9171,-1.897,-1.9434,-1.9083,-1.8694,-1.8594,-1.8205,-1.7765,-1.7313,-1.7237,-1.7074,-1.6584,-1.65,-1.65,-1.65,-1.65,-1.65,-1.65,-1.65,-1.65,-1.65,-1.65,-1.65,-1.65,-1.65,-1.65,-1.65,-1.65,-1.65,-1.65,-1.65,-1.65,-1.65,-1.65,-1.65,-1.65,-1.65,-1.65,-2.352,-2.3595,-2.352,-2.3212,-2.2398,-2.1605,-2.1261,0.0,0.0,0.0,0.0,-1.8072,-1.7712,0.0,0.0,0.0,0.0,0.0,0.0,0.0,0.0,0.0,0.0,0.0,0.0,0.0,-1.8669,-1.8125,-1.7585,-1.7188,-1.693,-1.6659,-1.65,-1.65,-1.65,-1.6638,-1.6974,-1.6672,-1.6789,-1.7365,-1.741,-1.726,-1.6986,-1.7551,-1.7953,-1.8229,-1.8505,-1.9083,-1.9798,-1.9798,-1.9798,-1.9798,-1.9798,-1.9798,-1.9798,-1.9798,-1.9798,-1.9798,-1.9798,-1.9798,-1.9798,-1.9798,-1.9798,-1.9798,-1.9798,-1.9798,-1.9798,-1.9798,-1.9798,-1.9798,-1.9798,-1.9623,-1.9497,-1.9748,-1.961,-1.9396,-1.9384,-1.9171,-1.892,-1.8632,-1.8392,-1.8129,-1.7852,-1.7815,-1.7714,-1.7438,-1.7365,-1.7365,-1.7365,-1.7365,-1.7174,-1.655,-1.65,-1.65,-1.65,-1.65,-1.65,-1.65,-1.65,-1.65,-1.65,-1.65,-1.65,-1.65,-1.65,-1.65,-1.65,-1.65,-1.65,-1.65,-1.65,-1.6663,-2.3565,-2.3595,-2.3445,-2.2853,-2.2209,-2.1515,-2.0838,-1.9552,0.0,0.0,-1.7953,-1.7324,-1.6801,0.0,0.0,0.0,0.0,0.0,0.0,0.0,0.0,0.0,0.0,0.0,0.0,0.0,0.0,-1.7906,-1.7618,-1.74,-1.7152,-1.6859,-1.6697,-1.6697,-1.6789,-1.7099,-1.7574,-1.7099,-1.7303,-1.8191,-1.7765,-1.7574,-1.7599,-1.8003,-1.8267,-1.8405,-1.882,-1.9296,-1.9798,-1.9798,-1.9798,-1.9798,-1.9798,-1.9798,-1.9798,-1.9798,-1.9798,-1.9798,-1.9798,-1.9798,-1.9798,-1.9798,-1.9798,-1.9798,-1.9798,-1.9798,-1.9798,-1.9798,-1.9798,-1.9798,-1.9798,-1.9798,-1.9798,-1.9798,-1.9798,-1.9685,-1.9259,-1.9171,-1.9045,-1.8631,-1.8543,-1.8518,-1.8405,-1.838,-1.8318,-1.8229,-1.8204,-1.8204,-1.8204,-1.8204,-1.7865,-1.6951,-1.6851,-1.6851,-1.6851,-1.6851,-1.6851,-1.6851,-1.6851,-1.6801,-1.671,-1.6697,-1.6626,-1.65,-1.65,-1.65,-1.65,-1.65,-1.65,-1.65,-1.6626,-1.6948,-2.3445,-2.3595,-2.3445,-2.2853,-2.2209,-2.1515,-2.0838,0.0,0.0,-1.7788,-1.7264,-1.6771,-1.6711,0.0,0.0,0.0,0.0,-1.9001,0.0,0.0,0.0,0.0,0.0,0.0,0.0,0.0,0.0,-1.9672,-1.8705,-1.767,-1.6636,-1.7055,-1.7322,-1.7322,-1.779,-1.8078,-1.8129,-1.8078,-1.8103,-1.8204,-1.8154,-1.8129,-1.8129,-1.8179,-1.848,-1.8933,-1.8983,-1.9296,-1.9798,-1.9798,-1.9798,-1.9798,-1.9798,-1.9798,-1.9798,-1.9798,-1.9798,-1.9798,-1.9798,-1.9798,-1.9798,-1.9798,-1.9798,-1.9798,-1.9798,-1.9798,-1.9798,-1.9798,-1.9798,-1.9798,-1.9798,-1.9798,-1.9798,-1.9798,-1.9798,-1.9786,-1.9748,-1.9736,-1.971,-1.966,-1.966,-1.951,-1.9008,-1.8933,-1.8757,-1.8279,-1.8204,-1.8204,-1.8204,-1.8204,-1.8166,-1.8053,-1.8053,-1.8053,-1.8053,-1.8053,-1.8053,-1.8053,-1.8053,-1.7827,-1.7348,-1.7322,-1.7049,-1.65,-1.65,-1.65,-1.65,-1.65,-1.65,-1.65,-1.7049,-1.736,-2.3002,-2.331,-2.3355,-2.2358,-2.1889,-2.141,-2.0333,0.0,-1.7713,-1.7713,-1.6876,-1.6159,-1.6159,-1.6682,0.0,0.0,0.0,0.0,0.0,0.0,0.0,0.0,0.0,0.0,0.0,0.0,-1.9623,-1.8927,-1.8461,-1.8003,-1.7551,-1.7752,-1.7877,-1.7877,-1.8091,-1.8367,-1.8669,-1.8367,-1.853,-1.9158,-1.8832,-1.8669,-1.8682,-1.9032,-1.9083,-1.902,-1.9334,-1.961,-1.9798,-1.9798,-1.9798,-1.9798,-1.9798,-1.9798,-1.9798,-1.9798,-1.9798,-1.9798,-1.9798,-1.9798,-1.9798,-1.9798,-1.9798,-1.9798,-1.9798,-1.9798,-1.9798,-1.9798,-1.9798,-1.9798,-1.9798,-1.9798,-1.9798,-1.9798,-1.9798,-1.9798,-1.9798,-1.9798,-1.9798,-1.9798,-1.9798,-1.9736,-1.9522,-1.9497,-1.9422,-1.9196,-1.9158,-1.9158,-1.9158,-1.9158,-1.9158,-1.9158,-1.8593,-1.8204,-1.8204,-1.8204,-1.8204,-1.8204,-1.8204,-1.8103,-1.789,-1.7877,-1.7777,-1.7539,-1.7526,-1.7375,-1.7036,-1.7375,-1.7363,-1.7049,-1.7614,-1.8053,-2.2358,-2.2697,-2.2772,-2.168,-2.1395,-2.1096,0.0,-1.8672,-1.7713,-1.7713,-1.6682,-1.5799,-1.5799,-1.6278,-1.692,0.0,0.0,-1.8927,0.0,0.0,0.0,0.0,0.0,0.0,0.0,-2.0093,-1.9833,-1.903,-1.8802,-1.8681,-1.8681,-1.8681,-1.8606,-1.8455,-1.8593,-1.8832,-1.9221,-1.8869,-1.9058,-1.9798,-1.9409,-1.9233,-1.9246,-1.9635,-1.9597,-1.9259,-1.9648,-1.9798,-1.9798,-1.9798,-1.9798,-1.9798,-1.9798,-1.9798,-1.9798,-1.9798,-1.9798,-1.9798,-1.9798,-1.9798,-1.9798,-1.9798,-1.9798,-1.9798,-1.9798,-1.9798,-1.9798,-1.9798,-1.9798,-1.9798,-1.9798,-1.9798,-1.9798,-1.9798,-1.9798,-1.9798,-1.9798,-1.9798,-1.9798,-1.9798,-1.9798,-1.9798,-1.9798,-1.9798,-1.9798,-1.9798,-1.9798,-1.9798,-1.9798,-1.9798,-1.9798,-1.9798,-1.9133,-1.8681,-1.8681,-1.8681,-1.8681,-1.8681,-1.8681,-1.8606,-1.8455,-1.8455,-1.8367,-1.8204,-1.8204,-1.8016,-1.7626,-1.8016,-1.8003,-1.7662,-1.8191,-1.8707,-2.153,-2.171,-2.156,-2.0868,-2.0703,-2.0524,0.0,-1.8672,-1.7713,-1.7713,-1.6682,-1.5799,-1.5799,-1.6278,-1.692,-1.7578,0.0,0.0,0.0,0.0,0.0,0.0,0.0,0.0,-2.0635,-2.0752,-2.0782,-2.0782,-2.0156,0.0,-1.9786,-1.9786,-1.9547,-1.9008,-1.9522,-1.9786,-1.9798,-1.9786,-1.9798,-1.9798,-1.9798,-1.9798,-1.9798,-1.9798,-1.9798,-1.9798,-1.9798,-1.9798,-1.9798,-1.9798,-1.9798,-1.9798,-1.9798,-1.9798,-1.9798,-1.9798,-1.9798,-1.9798,-1.9798,-1.9798,-1.9798,-1.9798,-1.9798,-1.9798,-1.9798,-1.9798,-1.9798,-1.9798,-1.9798,-1.9798,-1.9798,-1.9798,-1.9798,-1.9798,-1.9798,-1.9798,-1.9798,-1.9798,-1.9798,-1.9798,-1.9798,-1.9798,-1.9798,-1.9798,-1.9798,-1.9798,-1.9798,-1.9798,-1.9798,-1.9798,-1.9798,-1.9798,-1.9798,-1.9786,-1.9786,-1.9786,-1.9786,-1.9786,-1.9786,-1.956,-1.9008,-1.8995,-1.8744,-1.8216,-1.8204,-1.8204,-1.8191,-1.8204,-1.8204,-1.8204,-1.8744,-1.9271,-2.0957,-2.135,-2.1545,-2.0872,-2.0703,-2.0509,-1.9839,-1.8672,-1.7713,-1.7713,-1.6682,-1.5799,-1.5799,-1.5964,-1.6443,-1.7518,-1.7878,0.0,0.0,0.0,0.0,0.0,0.0,0.0,0.0,0.0,-2.0131,-2.0131,-1.9927,-1.9798,-1.9798,-1.9798,-1.9723,-1.956,-1.971,-1.9798,-1.9798,-1.9798,-1.9798,-1.9798,-1.9798,-1.9798,-1.9798,-1.9798,-1.9798,-1.9798,-1.9798,-1.9798,-1.9798,-1.9798,-1.9798,-1.9798,-1.9798,-1.9798,-1.9798,-1.9798,-1.9798,-1.9798,-1.9798,-1.9798,-1.9798,-1.9798,-1.9798,-1.9798,-1.9798,-1.9798,-1.9798,-1.9798,-1.9798,-1.9798,-1.9798,-1.9798,-1.9798,-1.9798,-1.9798,-1.9798,-1.9798,-1.9798,-1.9798,-1.9798,-1.9798,-1.9798,-1.9798,-1.9798,-1.9798,-1.9798,-1.9798,-1.9798,-1.9798,-1.9798,-1.9798,-1.9798,-1.9798,-1.9798,-1.9798,-1.9798,-1.9798,-1.9798,-1.9798,-1.9723,-1.956,-1.956,-1.9472,-1.9296,-1.9296,-1.9096,-1.8744,-1.9096,-1.9296,-1.9296,-1.9472,-1.9648,0.0,-2.0617,-2.0842,-2.0423,-2.0318,-2.0154,-1.9465,-1.8493,-1.7639,-1.7369,-1.6503,-1.5799,-1.5799,-1.5994,-1.6488,-1.7534,-1.7908,0.0,0.0,0.0,0.0,0.0,0.0,0.0,0.0,-2.0054,-1.9798,-1.9798,-1.9798,-1.9798,-1.9798,-1.9798,-1.9798,-1.9798,-1.9798,-1.9798,-1.9798,-1.9798,-1.9798,-1.9798,-1.9798,-1.9798,-1.9798,-1.9798,-1.9798,-1.9798,-1.9798,-1.9798,0.0,-1.9798,-1.9798,-1.9798,-1.9798,-1.9798,-1.9798,-1.9798,-1.9798,-1.9798,-1.9798,-1.9798,-1.9798,-1.9798,-1.9978,-2.0131,-1.9875,-1.9798,-1.9798,-1.9798,-1.9798,-1.9798,-1.9798,-1.9798,-1.9798,-1.9798,-1.9798,-1.9798,-1.9798,-1.9798,-1.9798,-1.9798,-1.9798,-1.9798,-1.9798,-1.9798,-1.9798,-1.9798,-1.9798,-1.9798,-1.9798,-1.9798,-1.9798,-1.9798,-1.9798,-1.9798,-1.9798,-1.9798,-1.9798,-1.9798,-1.9798,-1.9798,-1.9798,-1.9798,-1.9798,-1.9798,-1.9798,-1.9648,-1.9296,-1.9648,-1.9798,-1.9798,-1.9798,-1.9798,0.0,-1.9708,-1.9708,-1.9708,-1.9708,-1.9528,-1.8852,-1.8177,0.0,-1.683,-1.6219,-1.5814,-1.5858,-1.6323,-1.695,-1.7637,0.0,0.0,0.0,0.0,0.0,0.0,-2.0166,0.0,-1.9788,-1.9799,-1.9798,-1.9798,-1.9798,-1.9798,-1.9798,-1.9798,-1.9798,-1.9798,-1.9798,-1.9798,-1.9798,-1.9798,-1.9798,-1.9798,-1.9798,-1.9798,-1.9798,-1.9798,-1.9798,-1.9798,-1.9798,-1.9798,-1.9798,-1.9798,-1.9798,-1.9798,-1.9798,-1.9798,-1.9798,-1.9798,-1.9798,-1.9798,-1.9798,-1.9824,-1.9875,-1.9875,-2.0295,-2.0671,-2.0003,-1.9824,-1.985,-1.9798,-1.9798,-1.9798,-1.9798,-1.9798,-1.9798,-1.9798,-1.9798,-1.9798,-1.9798,-1.9798,-1.9798,-1.9798,-1.9798,-1.9798,-1.9798,-1.9836,-1.9861,-1.9861,-1.9899,-1.9924,-1.9924,-1.9924,-1.9911,-1.9874,-1.9861,-1.9849,-1.9798,-1.9798,-1.9798,-1.9798,-1.9798,-1.9798,-1.9798,-1.9798,-1.9798,-1.9798,-1.9798,-1.9798,-1.9798,-1.9798,-1.9798,-1.9798,-1.9798,-1.9798,-1.9708,0.0,-1.9708,-1.9708,-1.9708,-1.9528,0.0,-1.8177,-1.7503,-1.683,0.0,0.0,-1.6398,-1.6607,-1.71,0.0,0.0,0.0,0.0,0.0,0.0,-2.0732,-2.0211,-1.9813,-1.9813,-1.98,-1.9798,-1.9798,-1.9798,-1.9798,-1.9798,-1.9798,-1.9798,-1.9798,-1.9798,-1.9798,-1.9798,-1.9798,-1.9798,-1.9798,-1.9798,-1.9798,-1.9798,-1.9798,-1.9798,-1.9798,-1.9798,-1.9798,-1.9798,-1.9798,-1.9798,-1.9798,-1.9798,-1.9798,-1.9798,-1.9798,-1.9798,-1.9798,-1.9798,-2.0131,-2.0547,-2.0547,-2.0671,-2.0671,-2.0003,-2.0156,-2.0446,-1.9952,-1.9798,-1.9798,-1.9798,-1.9798,-1.9798,-1.9798,-1.9798,-1.9798,-1.9798,-1.9798,-1.9798,-1.9798,-1.9798,-1.9798,-1.9798,-2.0175,-2.049,-2.049,-2.0855,-2.1091,-2.1091,-2.1091,-2.0928,-2.0528,-2.049,-2.0314,-1.9836,-1.9798,-1.9798,-1.9798,-1.9798,-1.9798,-1.9798,-1.9798,-1.9798,-1.9798,-1.9798,-1.9798,-1.9798,-1.9798,-1.9798,-1.9798,-1.9798,-1.9798,-1.9226,-1.9468,-1.9708,-1.9708,-1.9468,-1.9061,-1.8386,0.0,0.0,0.0,0.0,0.0,0.0,0.0,0.0,0.0,-1.8702,0.0,0.0,0.0,0.0,-2.0713,-2.0194,-1.9798,0.0,-1.9798,-1.9798,-1.9798,-1.9798,-1.9798,-1.9798,-1.9798,-1.9798,-1.9798,-1.9798,-1.9798,-1.9798,-1.9798,-1.9798,-1.9798,-1.9798,-1.9798,-1.9798,-1.9798,-1.9798,-1.9798,-1.9798,-1.9798,-1.9798,-1.9798,-1.9798,-1.9798,-1.9798,-1.9798,-1.9798,-1.9798,-1.9798,-1.985,-2.0144,-2.0497,-2.0759,-2.0446,-2.056,-2.0671,-2.0003,-2.0283,-2.0646,-2.0003,-1.9798,-1.9798,-1.9798,-1.9798,-1.9798,-1.9798,-1.9798,-1.9798,-1.9798,-1.9798,-1.9798,-1.9798,-2.0012,-2.02,-2.02,-2.0691,-2.1069,-2.1069,-2.1292,-2.1493,-2.1493,-2.1493,-2.1408,-2.1106,-2.1069,-2.0943,-2.0602,-2.0577,-2.0363,-1.9836,-1.9798,-1.9798,-1.9798,-1.9798,-1.9798,-1.9798,-1.9798,-1.9798,-1.9798,-1.9798,-1.9798,-1.9798,-1.9798,-1.9936,-1.8822,-1.9181,-1.9558,-1.9558,-1.9196,-1.8687,-1.8012,0.0,0.0,0.0,0.0,0.0,0.0,-1.701,0.0,0.0,0.0,0.0,-2.0393,-2.0111,-2.0011,-2.0578,-2.0156,0.0,-1.9798,-1.9798,-1.9798,-1.9798,-1.9798,-1.9798,-1.9798,-1.9798,-1.9798,-1.9798,-1.9798,-1.9798,-1.9798,-1.9798,-1.9798,-1.9798,-1.9798,-1.9798,-1.9798,-1.9798,-1.9798,-1.9798,-1.9798,-1.9798,-1.9798,-1.9798,-1.9798,-1.9798,-1.9798,-1.9798,-1.9798,-1.9901,-1.9901,-1.9901,-2.0572,-2.0795,-2.0696,-2.0131,-2.0334,-2.0671,-2.0003,-2.0258,-2.0665,-2.0117,-1.9936,-1.9936,-1.9936,-1.9999,-2.0037,-1.9962,-1.9999,-2.0012,-1.9836,-1.9936,-2.0037,-1.9949,-2.0427,-2.0817,-2.0817,-2.1282,-2.1606,-2.1606,-2.1681,-2.1744,-2.1744,-2.1744,-2.1707,-2.1619,-2.1606,-2.1581,-2.1493,-2.1493,-2.1079,-2.0125,-2.0062,-2.0062,-2.0062,-1.9974,-1.9936,-1.9936,-2.0012,-2.0012,-1.9936,-2.0024,-2.0062,-2.0062,-2.0062,-2.0326,-1.9393,-1.9211,-1.8852,-1.8852,-1.9196,-1.9361,-1.8702,0.0,0.0,0.0,0.0,0.0,0.0,-1.8386,-1.8505,0.0,0.0,-1.9134,0.0,0.0,-1.9841,-1.9953,0.0,-1.9798,-1.9798,-1.9798,-1.9798,-1.9798,-1.9798,-1.9798,-1.9798,-1.9798,-1.9798,-1.9798,-1.9798,-1.9798,-1.9798,-1.9798,-1.9798,-1.9798,-1.9798,-1.9798,-1.9798,-1.9798,-1.9798,-1.9798,-1.9798,-1.9798,-1.9798,-1.9798,-1.9798,-1.9798,-1.9798,-1.9798,-1.9875,-2.0434,-2.0295,-1.9901,-2.0572,-2.0795,-2.0771,-2.0671,-2.0734,-2.0671,-2.0003,-2.0216,-2.0686,-2.058,-2.0566,-2.0566,-2.0566,-2.0905,-2.1104,-2.0666,-2.0918,-2.0966,-2.0012,-2.0552,-2.1091,-2.0654,-2.1006,-2.1395,-2.1395,-2.182,-2.2184,-2.2184,-2.2556,-2.2844,-2.2844,-2.2844,-2.2681,-2.2234,-2.2184,-2.1995,-2.1531,-2.1493,-2.1446,-2.1242,-2.123,-2.123,-2.123,-2.0805,-2.0566,-2.0566,-2.1018,-2.1031,-2.0566,-2.1031,-2.123,-2.123,-2.123,-2.128,-1.8087,-1.8117,-1.8162,-1.8162,-1.8672,-1.9076,-1.8777,0.0,0.0,0.0,0.0,0.0,0.0,0.0,-1.8881,-1.9317,0.0,-1.9483,-1.9748,-1.9808,-1.9799,0.0,0.0,-1.9798,-1.9798,-1.9798,-1.9798,-1.9798,-1.9798,-1.9798,-1.9798,-1.9798,-1.9798,-1.9798,-1.9798,-1.9798,-1.9798,-1.9798,-1.9798,-1.9798,-1.9798,-1.9798,-1.9798,-1.9798,-1.9798,-1.9798,-1.9798,-1.9798,-1.9798,-1.9798,-1.9798,-1.9798,-1.9798,-1.9798,-1.9888,-2.0514,-2.0746,-2.0798,-2.1067,-2.1381,-2.1603,-2.1275,-2.1183,-2.113,-2.0822,-2.0903,-2.1131,-2.1131,-2.1131,-2.1131,-2.1131,-2.1333,-2.1458,-2.1194,-2.1333,-2.1343,-2.0828,-2.1117,-2.1446,-2.1182,-2.1556,-2.1933,-2.1933,-2.2397,-2.2732,-2.2732,-2.2945,-2.3108,-2.3108,-2.3108,-2.3007,-2.2757,-2.2732,-2.2631,-2.2397,-2.2343,-2.2121,-2.1531,-2.1493,-2.1493,-2.1493,-2.127,-2.1131,-2.1131,-2.1355,-2.1395,-2.1131,-2.1395,-2.1493,-2.1493,-2.1493,-2.1644,-1.7264,-1.7428,-1.7743,-1.7893,0.0,-1.8927,-1.8927,0.0,0.0,0.0,0.0,0.0,0.0,-1.8869,0.0,-1.9538,-1.9602,-1.9661,-1.9768,-1.9811,-1.9794,-1.9799,-1.9798,-1.9798,-1.9798,-1.9798,-1.9798,-1.9798,-1.9798,-1.9798,-1.9798,-1.9798,-1.9798,-1.9798,-1.9798,-1.9798,-1.9798,-1.9798,-1.9798,-1.9798,-1.9798,-1.9798,-1.9798,-1.9798,-1.9798,-1.9798,-1.9798,-1.9798,-1.9798,-1.9798,-1.9798,-1.9798,-1.9798,-1.9901,-2.008,-2.038,-2.0977,-2.1577,-2.1375,-2.1699,-2.2105,-2.1648,-2.162,-2.1718,-2.1536,-2.1708,-2.1921,-2.1738,-2.1782,-2.1845,-2.1707,-2.1782,-2.1845,-2.1707,-2.1782,-2.1807,-2.1543,-2.1694,-2.1832,-2.1707,-2.2133,-2.2498,-2.2498,-2.2832,-2.3108,-2.3108,-2.3108,-2.3108,-2.3108,-2.3108,-2.3108,-2.3108,-2.3108,-2.3108,-2.3108,-2.3108,-2.2744,-2.1933,-2.1631,-2.1606,-2.187,-2.1744,-2.1681,-2.1681,-2.1807,-2.1807,-2.1681,-2.1807,-2.187,-2.187,-2.187,-2.2096,-1.8386,-1.8132,-1.7848,-1.8461,-1.9136,0.0,-1.9633,-1.9588,0.0,-1.9558,0.0,0.0,0.0,-1.9223,-1.8924,-1.9042,-1.9061,-1.9245,-1.9724,0.0,-1.9812,-1.9798,-1.9798,-1.9798,-1.9798,-1.9798,-1.9798,-1.9798,-1.9798,-1.9798,-1.9798,-1.9798,-1.9798,-1.9798,-1.9798,-1.9798,-1.9798,-1.9798,-1.9798,-1.9798,-1.9798,-1.9798,-1.9798,-1.9798,-1.9798,-1.9798,-1.9798,-1.9798,-1.9798,-1.9798,-1.9798,-1.9798,-1.9798,-2.0182,-2.066,-2.008,-2.0591,-2.1511,-2.0943,-2.1108,-2.1564,-2.1521,-2.1953,-2.239,-2.1718,-2.2326,-2.3106,-2.2448,-2.2594,-2.2869,-2.2355,-2.2606,-2.2857,-2.2343,-2.2606,-2.2706,-2.1707,-2.2297,-2.2832,-2.2347,-2.2669,-2.3045,-2.3045,-2.3083,-2.3108,-2.3108,-2.3108,-2.3108,-2.3108,-2.3108,-2.3108,-2.3108,-2.3108,-2.3108,-2.3108,-2.3108,-2.307,-2.2995,-2.2058,-2.1945,-2.2945,-2.2493,-2.2246,-2.2246,-2.2732,-2.2732,-2.2246,-2.2732,-2.2982,-2.2982,-2.2982,-2.3007,-1.7488,-1.7594,-1.7773,-1.8012,-1.8897,0.0,0.0,-2.0019,-2.0318,-2.0318,-2.0317,0.0,0.0,0.0,-1.8967,-1.9001,-1.9282,-1.9572,-1.9773,-1.9798,-1.9798,-1.9798,-1.9798,-1.9798,-1.9798,-1.9798,-1.9798,-1.9798,-1.9798,-1.9798,-1.9798,-1.9798,-1.9798,-1.9798,-1.9798,-1.9798,-1.9798,-1.9798,-1.9798,-1.9798,-1.9798,-1.9798,-1.9798,-1.9798,-1.9798,-1.9798,-1.9798,-1.9798,-1.9798,-1.9798,-1.9798,-1.9798,-1.9798,-2.018,-2.0744,-2.0835,-2.1357,-2.2056,-2.2157,-2.2334,-2.2569,-2.3077,-2.3093,-2.2949,-2.3179,-2.3219,-2.3153,-2.2871,-2.2945,-2.3058,-2.2844,-2.2945,-2.3058,-2.2844,-2.2957,-2.2995,-2.2569,-2.2807,-2.3045,-2.2832,-2.2957,-2.3108,-2.3108,-2.3108,-2.3108,-2.3108,-2.3108,-2.3108,-2.3108,-2.3108,-2.3108,-2.3108,-2.3108,-2.3108,-2.3108,-2.3108,-2.3108,-2.3108,-2.2706,-2.2669,-2.3083,-2.2907,-2.2794,-2.2794,-2.2995,-2.3007,-2.2794,-2.3007,-2.3108,-2.3108,-2.3108,-2.3108,-1.7204,-1.7519,-1.8012,-1.8012,0.0,0.0,-1.9708,-2.0051,-2.0376,-2.0376,-2.0249,0.0,0.0,0.0,0.0,0.0,-1.9434,-1.9798,-1.9798,-1.9798,-1.9798,-1.9798,-1.9798,-1.9798,-1.9798,-1.9798,-1.9798,-1.9798,-1.9798,-1.9798,-1.9798,-1.9798,-1.9798,-1.9798,-1.9798,-1.9798,-1.9798,-1.9798,-1.9798,-1.9798,-1.9798,-1.9798,-1.9798,-1.9798,-1.9798,-1.9798,-1.9798,-1.9798,-1.9798,-1.9798,-1.9798,-1.9823,-1.9999,-2.0352,-2.0754,-2.1307,-2.1832,-2.2343,-2.2719,-2.2957,-2.3198,-2.3738,-2.3708,-2.3531,-2.3826,-2.3708,-2.3424,-2.3155,-2.3108,-2.3108,-2.3108,-2.3108,-2.3108,-2.3108,-2.3108,-2.3108,-2.3108,-2.3108,-2.3108,-2.3108,-2.3108,-2.3108,-2.3108,-2.3108,-2.3108,-2.3108,-2.3108,-2.3108,-2.3108,-2.3108,-2.317,-2.3358,-2.3534,-2.3572,-2.3396,-2.3384,-2.3296,-2.3108,-2.3108,-2.3108,-2.3108,-2.3108,-2.3108,-2.3108,-2.3108,-2.3108,-2.3108,-2.3108,-2.3108,-2.3108,-2.3108,-2.3108,-1.7878,-1.8177,-1.8687,0.0,0.0,0.0,-1.9685,-1.9709,-1.9709,-1.9704,0.0,-1.8936,-1.8997,0.0,0.0,-1.9006,-1.9434,-1.9798,-1.9798,-1.9798,-1.9798,-1.9798,-1.9798,-1.9798,-1.9798,-1.9798,-1.9798,-1.9798,-1.9798,-1.9798,-1.9798,-1.9798,-1.9798,-1.9798,-1.9798,-1.9798,-1.9798,-1.9798,-1.9798,-1.9798,-1.9798,-1.9798,-1.9798,-1.9798,-1.9798,-1.9798,-1.9798,-1.9798,-1.9798,-1.9798,-1.9798,-1.9861,-2.0465,-2.0691,-2.0767,-2.132,-2.1845,-2.2322,-2.2322,-2.2644,-2.3108,-2.3108,-2.3662,-2.4147,-2.3335,-2.3649,-2.4118,-2.3335,-2.3108,-2.3108,-2.3108,-2.3108,-2.3108,-2.3108,-2.3108,-2.3108,-2.3108,-2.3108,-2.3108,-2.3108,-2.3108,-2.3108,-2.3108,-2.3108,-2.3108,-2.3108,-2.3108,-2.3108,-2.3108,-2.3108,-2.3333,-2.3941,-2.4494,-2.4562,-2.4054,-2.4004,-2.3753,-2.3145,-2.3108,-2.3108,-2.3108,-2.3108,-2.3108,-2.3108,-2.3108,-2.3108,-2.3108,-2.3108,-2.3108,-2.3108,-2.3108,-2.3108,-1.7758,-1.7848,0.0,-1.8121,0.0,0.0,0.0,-1.9793,0.0,0.0,-2.0059,-1.9532,-1.9081,0.0,0.0,-1.8995,-1.9434,-1.9798,-1.9798,-1.9798,-1.9798,-1.9798,-1.9798,-1.9798,-1.9798,-1.9798,-1.9798,-1.9798,-1.9798,-1.9798,-1.9798,-1.9798,-1.9798,-1.9798,-1.9798,-1.9798,-1.9798,-1.9798,-1.9798,-1.9798,-1.9798,-1.9798,-1.9798,-1.9798,-1.9798,-1.9798,-1.9798,-1.9798,-1.9798,-1.9798,-1.9798,-1.9861,-2.0465,-2.093,-2.1333,-2.187,-2.2393,-2.2857,-2.2857,-2.297,-2.3185,-2.3767,-2.3708,-2.3514,-2.3826,-2.3721,-2.3395,-2.3168,-2.3108,-2.3108,-2.3108,-2.3108,-2.3108,-2.3108,-2.3108,-2.3108,-2.3108,-2.3108,-2.3108,-2.3108,-2.3108,-2.3108,-2.3108,-2.3108,-2.3108,-2.3108,-2.3108,-2.3246,-2.369,-2.374,-2.3954,-2.4519,-2.472,-2.4725,-2.4594,-2.4217,-2.3929,-2.3753,-2.3333,-2.3108,-2.3108,-2.3108,-2.3108,-2.3108,-2.3108,-2.3108,-2.3108,-2.3108,-2.3108,-2.3108,-2.3108,-2.3108,-1.8102,-1.8281,0.0,-1.8321,-1.9003,-1.9616,-1.9323,0.0,0.0,0.0,0.0,-1.9549,-1.9346,-1.9146,0.0,-1.9271,-1.9597,-1.9798,-1.9798,-1.9798,-1.9798,-1.9798,-1.9798,-1.9798,-1.9798,-1.9798,-1.9798,-1.9798,-1.9798,-1.9798,-1.9798,-1.9798,-1.9798,-1.9798,-1.9798,-1.9798,-1.9798,-1.9798,-1.9798,-1.9798,-1.9798,-1.9798,-1.9798,-1.9798,-1.9798,-1.9798,-1.9798,-1.9798,-1.9798,-1.9798,-1.9798,-1.9861,-2.0465,-2.1031,-2.1556,-2.2108,-2.2631,-2.3108,-2.3108,-2.3108,-2.3198,-2.3649,-2.3514,-2.3198,-2.3679,-2.3484,-2.3108,-2.3108,-2.3108,-2.3108,-2.3108,-2.3108,-2.3108,-2.3108,-2.3108,-2.3108,-2.3108,-2.3108,-2.3108,-2.3108,-2.3108,-2.3108,-2.3108,-2.3108,-2.3108,-2.3108,-2.3296,-2.369,-2.4255,-2.4506,-2.4757,-2.5096,-2.5335,-2.5385,-2.5146,-2.482,-2.4544,-2.4343,-2.3973,-2.3772,-2.3772,-2.3346,-2.3108,-2.3108,-2.3108,-2.3108,-2.3108,-2.3108,-2.3108,-2.3108,-2.3108,-2.3108,-1.8612,0.0,0.0,-1.8954,-1.9202,0.0,-1.9763,0.0,-1.9812,-1.98,0.0,-1.9221,-1.971,-1.9384,-1.9221,-1.9723,-1.9798,-1.9798,-1.9798,-1.9798,-1.9798,-1.9798,-1.9798,-1.9798,-1.9798,-1.9798,-1.9798,-1.9798,-1.9798,-1.9798,-1.9798,-1.9798,-1.9798,-1.9798,-1.9798,-1.9798,-1.9798,-1.9798,-1.9798,-1.9798,-1.9798,-1.9798,-1.9798,-1.9798,-1.9798,-1.9798,-1.9798,-1.9798,-1.9798,-1.9798,-1.9798,-1.9861,-2.0465,-2.1031,-2.1556,-2.2108,-2.2631,-2.3108,-2.3108,-2.3108,-2.3108,-2.3108,-2.3108,-2.3108,-2.3108,-2.3108,-2.3108,-2.3108,-2.3108,-2.3108,-2.3108,-2.3108,-2.3108,-2.3108,-2.3108,-2.3108,-2.3108,-2.3108,-2.3108,-2.3108,-2.3108,-2.312,-2.317,-2.3183,-2.3195,-2.3246,-2.371,-2.4268,-2.4788,-2.531,-2.5611,-2.5674,-2.6185,-2.6285,-2.5724,-2.5624,-2.5398,-2.4888,-2.4813,-2.4788,-2.4788,-2.381,-2.3258,-2.3258,-2.3258,-2.3258,-2.3258,-2.3258,-2.3258,-2.3258,-2.3258,-2.3258,-1.7923,-1.8386,0.0,0.0,-1.839,-1.875,-1.9597,-1.9801,-1.9813,-1.9799,-1.971,-1.9673,-1.9786,-1.971,-1.9673,-1.9786,-1.9798,-1.9798,-1.9798,-1.9798,-1.9798,-1.9798,-1.9798,-1.9798,-1.9798,-1.9798,-1.9798,-1.9798,-1.9798,-1.9798,-1.9798,-1.9798,-1.9798,-1.9798,-1.9798,-1.9798,-1.9798,-1.9798,-1.9798,-1.9798,-1.9798,-1.9798,-1.9798,-1.9798,-1.9798,-1.9798,-1.9798,-1.9798,-1.9798,-1.9798,-1.9798,-1.9861,-2.0465,-2.1031,-2.1556,-2.2108,-2.2631,-2.3108,-2.3108,-2.3108,-2.3108,-2.3108,-2.3108,-2.3108,-2.3108,-2.3108,-2.3108,-2.3108,-2.3108,-2.3108,-2.3108,-2.3108,-2.3108,-2.3108,-2.3108,-2.3108,-2.3108,-2.3108,-2.3108,-2.3108,-2.3108,-2.3246,-2.3728,-2.3816,-2.3954,-2.4362,-2.4525,-2.4833,-2.536,-2.5523,-2.5774,-2.626,-2.6411,-2.6449,-2.6323,-2.585,-2.5548,-2.5435,-2.5046,-2.4788,-2.4788,-2.455,-2.4424,-2.4424,-2.4424,-2.4424,-2.4424,-2.4424,-2.4424,-2.4424,-2.4424,-2.4424,0.0,0.0,0.0,0.0,0.0,0.0,-1.956,-1.9798,-1.9798,-1.9798,-1.9798,-1.9798,-1.9798,-1.9798,-1.9798,-1.9798,-1.9798,-1.9798,-1.9798,-1.9798,-1.9798,-1.9798,-1.9798,-1.9798,-1.9798,-1.9798,-1.9798,-1.9798,-1.9798,-1.9798,-1.9798,-1.9798,-1.9798,-1.9798,-1.9798,-1.9798,-1.9798,-1.9798,-1.9798,-1.9798,-1.9798,-1.9798,-1.9798,-1.9798,-1.9798,-1.9798,-1.9798,-1.9798,-1.9798,-1.9798,-1.9798,-1.9823,-2.0163,-2.0629,-2.1182,-2.1707,-2.2272,-2.2744,-2.3007,-2.3108,-2.3108,-2.3108,-2.3108,-2.3108,-2.3108,-2.3108,-2.3108,-2.3108,-2.3108,-2.3108,-2.3108,-2.3108,-2.3108,-2.3108,-2.3108,-2.3108,-2.3108,-2.3108,-2.3108,-2.3108,-2.3333,-2.364,-2.3954,-2.4217,-2.4582,-2.5109,-2.5197,-2.5385,-2.5971,-2.6047,-2.616,-2.6461,-2.6499,-2.6499,-2.6499,-2.6223,-2.6047,-2.6047,-2.5749,-2.5598,-2.5598,-2.5598,-2.536,-2.48,-2.4788,-2.4788,-2.4788,-2.4788,-2.4788,-2.4788,-2.4788,-2.4788,0.0,0.0,0.0,0.0,0.0,0.0,0.0,-1.9736,-1.9798,-1.9798,-1.9798,-1.9798,-1.9798,-1.9798,-1.9798,-1.9798,-1.9798,-1.9798,-1.9798,-1.9798,-1.9798,-1.9798,-1.9798,-1.9798,-1.9798,-1.9798,-1.9798,-1.9798,-1.9798,-1.9798,-1.9798,-1.9798,-1.9798,-1.9798,-1.9798,-1.9798,-1.9798,-1.9798,-1.9798,-1.9798,-1.9798,-1.9798,-1.9798,-1.9798,-1.9798,-1.9798,-1.9798,-1.9798,-1.9798,-1.9798,-1.9798,-1.9798,-1.9798,-2.0239,-2.0893,-2.1358,-2.1895,-2.2493,-2.2945,-2.3108,-2.3108,-2.3108,-2.3108,-2.3108,-2.3108,-2.3108,-2.3108,-2.3108,-2.3108,-2.3108,-2.3108,-2.3108,-2.3108,-2.3108,-2.3183,-2.3233,-2.312,-2.3183,-2.3258,-2.3258,-2.3816,-2.428,-2.428,-2.4732,-2.5247,-2.5686,-2.5749,-2.5946,-2.6436,-2.6499,-2.6499,-2.6499,-2.6499,-2.6499,-2.6499,-2.6499,-2.6499,-2.6499,-2.6499,-2.6499,-2.6499,-2.6499,-2.6072,-2.5121,-2.5109,-2.5109,-2.5109,-2.5109,-2.5109,-2.5109,-2.5109,-2.5109,0.0,0.0,0.0,0.0,0.0,0.0,0.0,0.0,-1.9798,0.0,-1.9798,-1.9798,-1.9798,-1.9798,-1.9798,-1.9798,-1.9798,-1.9798,-1.9798,-1.9798,-1.9798,-1.9798,-1.9798,-1.9798,-1.9798,-1.9798,-1.9798,-1.9798,-1.9798,-1.9798,-1.9798,-1.9798,-1.9798,-1.9798,-1.9798,-1.9798,-1.9798,-1.9798,-1.9798,-1.9798,-1.9798,-1.9798,-1.9798,-1.9798,-1.9798,-1.9798,-1.9798,-1.9798,-1.9798,-1.9798,-1.9798,-1.9798,-1.9798,-2.0439,-2.1393,-2.1455,-2.2133,-2.3007,-2.3083,-2.3108,-2.3108,-2.3108,-2.3108,-2.3108,-2.3108,-2.3108,-2.3108,-2.3108,-2.3108,-2.3108,-2.3108,-2.3108,-2.3108,-2.3108,-2.3484,-2.3753,-2.3208,-2.3496,-2.3891,-2.3891,-2.4695,-2.5385,-2.5385,-2.5896,-2.6298,-2.6361,-2.6386,-2.6411,-2.6487,-2.6499,-2.6499,-2.6499,-2.6499,-2.6499,-2.6499,-2.6499,-2.6499,-2.6499,-2.6499,-2.6499,-2.6499,-2.6499,-2.6424,-2.6285,-2.6273,-2.6273,-2.6273,-2.6273,-2.6273,-2.6273,-2.6273,-2.6273,-1.7713,0.0,0.0,0.0,0.0,0.0,0.0,0.0,-1.9447,-1.9748,-1.9798,-1.9798,-1.9798,-1.9798,-1.9798,-1.9798,-1.9798,-1.9798,-1.9798,-1.9798,-1.9798,-1.9798,-1.9798,-1.9798,-1.9798,-1.9798,-1.9798,-1.9798,-1.9798,-1.9798,-1.9798,-1.9798,-1.9798,-1.9798,-1.9798,-1.9798,-1.9798,-1.9798,-1.9798,-1.9798,-1.9798,-1.9798,-1.9798,-1.9798,-1.9798,-1.9798,-1.9798,-1.9798,-1.9798,-1.9798,-1.9798,-1.9836,-2.0189,-2.0616,-2.1131,-2.1719,-2.2259,-2.2681,-2.2995,-2.3108,-2.3108,-2.3108,-2.3108,-2.3108,-2.3108,-2.3108,-2.3108,-2.3108,-2.3108,-2.3108,-2.3108,-2.3346,-2.3584,-2.3584,-2.4054,-2.4393,-2.4098,-2.4249,-2.4544,-2.4833,-2.5272,-2.5699,-2.6059,-2.6323,-2.6499,-2.6499,-2.6499,-2.6499,-2.6499,-2.6499,-2.6499,-2.6499,-2.6499,-2.6499,-2.6499,-2.6499,-2.6499,-2.6499,-2.6499,-2.6499,-2.6499,-2.6499,-2.6499,-2.6499,-2.6499,-2.6499,-2.6499,-2.6499,-2.6499,-2.6499,-2.6499,-2.6499,0.0,0.0,0.0,0.0,0.0,0.0,0.0,0.0,-1.9108,0.0,-1.971,-1.9761,-1.9623,-1.971,-1.9798,-1.9798,-1.9798,-1.9798,-1.9798,-1.9798,-1.9798,-1.9798,-1.9798,-1.9798,-1.9798,-1.9798,-1.9798,-1.9798,-1.9798,-1.9798,-1.9798,-1.9798,-1.9798,-1.9798,-1.9798,-1.9798,-1.9798,-1.9798,-1.9798,-1.9798,-1.9798,-1.9798,-1.9798,-1.9798,-1.9798,-1.9798,-1.9798,-1.9798,-1.9811,-1.9962,-2.0024,-2.0075,-2.0679,-2.0993,-2.1207,-2.2008,-2.2397,-2.2556,-2.2957,-2.3108,-2.3108,-2.3108,-2.3108,-2.3108,-2.3108,-2.3108,-2.3108,-2.3108,-2.3108,-2.3145,-2.3283,-2.3647,-2.4029,-2.4167,-2.4619,-2.4988,-2.4988,-2.4988,-2.5172,-2.5711,-2.5812,-2.5984,-2.6411,-2.6499,-2.6499,-2.6499,-2.6499,-2.6499,-2.6499,-2.6499,-2.6499,-2.6499,-2.6499,-2.6499,-2.6499,-2.6499,-2.6499,-2.6499,-2.6499,-2.6499,-2.6499,-2.6499,-2.6499,-2.6499,-2.6499,-2.6499,-2.6499,-2.6499,-2.6499,-2.6499,-2.6499,-2.6499,0.0,0.0,0.0,0.0,0.0,0.0,0.0,0.0,0.0,-1.9045,-1.9459,-1.9648,-1.9133,-1.9472,-1.9798,-1.9798,-1.9798,-1.9798,-1.9798,-1.9798,-1.9798,-1.9798,-1.9798,-1.9798,-1.9798,-1.9798,-1.9798,-1.9798,-1.9798,-1.9798,-1.9798,-1.9798,-1.9798,-1.9798,-1.9798,-1.9798,-1.9798,-1.9798,-1.9798,-1.9798,-1.9798,-1.9798,-1.9798,-1.9798,-1.9798,-1.9798,-1.9798,-1.9798,-1.9849,-2.0427,-2.0641,-2.0704,-2.1257,-2.1769,-2.2234,-2.2284,-2.2606,-2.3058,-2.3095,-2.3108,-2.3108,-2.3108,-2.3108,-2.3108,-2.3108,-2.3108,-2.3108,-2.3108,-2.3108,-2.3233,-2.3803,-2.3979,-2.413,-2.4625,-2.5172,-2.5548,-2.5548,-2.5548,-2.5724,-2.6336,-2.6449,-2.6461,-2.6487,-2.6499,-2.6499,-2.6499,-2.6499,-2.6499,-2.6499,-2.6499,-2.6499,-2.6499,-2.6499,-2.6499,-2.6499,-2.6499,-2.6499,-2.6499,-2.6499,-2.6499,-2.6499,-2.6499,-2.6499,-2.6499,-2.6499,-2.6499,-2.6499,-2.6499,-2.6499,-2.6499,-2.6499,-2.6499,0.0,0.0,0.0,0.0,0.0,0.0,0.0,-1.7938,-1.8078,-1.843,-1.8643,-1.8719,-1.8506,-1.892,-1.9158,-1.8832,-1.8781,-1.8894,-1.9233,-1.9284,-1.9409,-1.9761,-1.9798,-1.9798,-1.9798,-1.9798,-1.9798,-1.9798,-1.9798,-1.9798,-1.9798,-1.9798,-1.9798,-1.9798,-1.9798,-1.9798,-1.9798,-1.9798,-1.9798,-1.9798,-1.9798,-1.9798,-1.9798,-1.9798,-1.9798,-1.9798,-1.9798,-1.9798,-1.9823,-2.0024,-2.0352,-2.0742,-2.1307,-2.1832,-2.2347,-2.2681,-2.2932,-2.3108,-2.3108,-2.3108,-2.3108,-2.3108,-2.3454,-2.3884,-2.3884,-2.4192,-2.4582,-2.4582,-2.4484,-2.4421,-2.4659,-2.4861,-2.5172,-2.5737,-2.6047,-2.6185,-2.6185,-2.6185,-2.6248,-2.6449,-2.6499,-2.6499,-2.6499,-2.6499,-2.6499,-2.6499,-2.6499,-2.6499,-2.6499,-2.6499,-2.6499,-2.6499,-2.6499,-2.6499,-2.6499,-2.6499,-2.6499,-2.6499,-2.6499,-2.6499,-2.6499,-2.6499,-2.6499,-2.6499,-2.6499,-2.6499,-2.6499,-2.6499,-2.6499,-2.6499,-2.6499,-2.6499,-1.6816,0.0,0.0,0.0,0.0,0.0,-1.7837,0.0,-1.7724,-1.7899,-1.8078,-1.8141,-1.7965,-1.8229,-1.8417,-1.8242,-1.8204,-1.8306,-1.8669,-1.8895,-1.9133,-1.9497,-1.9698,-1.9798,-1.9798,-1.9798,-1.9798,-1.9798,-1.9798,-1.9798,-1.9798,-1.9798,-1.9798,-1.9798,-1.9798,-1.9798,-1.9798,-1.9798,-1.9798,-1.9798,-1.9798,-1.9798,-1.9798,-1.9798,-1.9798,-1.9798,-1.9798,-1.9798,-1.9823,-2.0213,-2.0616,-2.1043,-2.1757,-2.2259,-2.2606,-2.297,-2.3275,-2.3514,-2.3514,-2.3649,-2.3872,-2.3872,-2.4221,-2.4681,-2.4681,-2.4851,-2.5146,-2.559,-2.5258,-2.4862,-2.5533,-2.5788,-2.6021,-2.6399,-2.6499,-2.6499,-2.6499,-2.6499,-2.6499,-2.6499,-2.6499,-2.6499,-2.6499,-2.6499,-2.6499,-2.6499,-2.6499,-2.6499,-2.6499,-2.6499,-2.6499,-2.6499,-2.6499,-2.6499,-2.6499,-2.6499,-2.6499,-2.6499,-2.6499,-2.6499,-2.6499,-2.6499,-2.6499,-2.6499,-2.6499,-2.6499,-2.6499,-2.6499,-2.6499,-2.6499,-2.6499,-2.6499,0.0,0.0,0.0,0.0,0.0,0.0,-1.7404,0.0,-1.8031,-1.7495,-1.78,-1.8014,-1.7473,-1.7373,-1.7549,-1.8078,-1.8154,-1.8166,-1.8179,-1.8632,-1.8983,-1.9008,-1.9447,-1.9773,-1.9773,-1.9773,-1.9773,-1.9773,-1.9798,-1.9798,-1.9798,-1.9798,-1.9798,-1.9798,-1.9798,-1.9798,-1.9798,-1.9798,-1.9798,-1.9798,-1.9798,-1.9798,-1.9798,-1.9798,-1.9798,-1.9798,-1.9798,-1.9811,-1.9911,-2.1004,-2.1509,-2.1619,-2.2656,-2.3095,-2.3108,-2.3108,-2.3603,-2.4263,-2.4263,-2.4724,-2.5342,-2.537,-2.537,-2.537,-2.5398,-2.4908,-2.4627,-2.6015,-2.5296,-2.4532,-2.6424,-2.6716,-2.6521,-2.6521,-2.6521,-2.6499,-2.6499,-2.6499,-2.6499,-2.6499,-2.6499,-2.6499,-2.6499,-2.6499,-2.6499,-2.6499,-2.6499,-2.6499,-2.6499,-2.6499,-2.6499,-2.6499,-2.6499,-2.6499,-2.6499,-2.6499,-2.6499,-2.6499,-2.6499,-2.6499,-2.6499,-2.6499,-2.6499,-2.6499,-2.6499,-2.6499,-2.6499,-2.6499,-2.6499,-2.6499,-2.6499,-2.6499,-1.6696,0.0,0.0,0.0,0.0,0.0,0.0,0.0,-1.739,-1.7337,-1.7453,-1.739,-1.6851,-1.676,-1.681,-1.6961,-1.6964,-1.7124,-1.7551,-1.8078,-1.8556,-1.8958,-1.9133,-1.9221,-1.9221,-1.9221,-1.9221,-1.9221,-1.9585,-1.9798,-1.9798,-1.9798,-1.9798,-1.9798,-1.9798,-1.9798,-1.9798,-1.9798,-1.9798,-1.9798,-1.9798,-1.9798,-1.9798,-1.9798,-1.9798,-1.9798,-1.9798,-2.0037,-2.0478,-2.0792,-2.1395,-2.2121,-2.2422,-2.2757,-2.3108,-2.3108,-2.3245,-2.3424,-2.3424,-2.356,-2.3842,-2.4423,-2.4595,-2.4709,-2.5231,-2.5533,-2.5745,-2.6139,-2.6113,-2.6199,-2.7203,-2.7419,-2.7384,-2.7384,-2.6905,-2.6499,-2.6499,-2.6499,-2.6499,-2.6499,-2.6499,-2.6499,-2.6499,-2.6499,-2.6499,-2.6499,-2.6499,-2.6499,-2.6499,-2.6499,-2.6499,-2.6499,-2.6499,-2.6499,-2.6499,-2.6499,-2.6499,-2.6499,-2.6499,-2.6499,-2.6499,-2.6499,-2.6499,-2.6499,-2.6499,-2.6499,-2.6499,-2.6499,-2.6499,-2.6499,-2.6499,-2.6499,-1.6845,0.0,0.0,0.0,0.0,0.0,-1.7874,-1.7539,-1.7068,0.0,-1.6972,-1.6879,-1.6552,-1.65,-1.65,-1.65,-1.65,-1.6613,-1.6974,-1.7501,-1.7978,-1.8304,-1.8519,-1.8744,-1.8983,-1.9008,-1.9096,-1.9309,-1.9623,-1.9798,-1.9798,-1.9798,-1.9798,-1.9798,-1.9798,-1.9798,-1.9798,-1.9798,-1.9798,-1.9798,-1.9798,-1.9798,-1.9798,-1.9798,-1.9798,-1.9811,-2.0062,-2.0515,-2.1056,-2.1282,-2.1732,-2.2305,-2.2543,-2.2819,-2.3125,-2.3484,-2.359,-2.3649,-2.3959,-2.4063,-2.4179,-2.4979,-2.5231,-2.5328,-2.5994,-2.6469,-2.6834,-2.7354,-2.7853,-2.822,-2.8236,-2.8247,-2.8247,-2.8247,-2.7887,-2.7451,-2.7061,-2.7007,-2.6905,-2.6555,-2.6499,-2.6499,-2.6499,-2.6499,-2.6575,-2.6801,-2.6637,-2.6575,-2.6801,-2.6637,-2.6587,-2.6813,-2.6839,-2.6839,-2.6839,-2.6839,-2.6738,-2.6512,-2.6499,-2.6499,-2.6499,-2.6499,-2.6499,-2.6499,-2.6499,-2.6499,-2.6499,-2.6499,-2.6499,-2.6499,-2.6499,-2.6499,-1.7234,-1.7743,0.0,0.0,-1.8192,0.0,-1.8092,-1.7715,-1.7164,0.0,-1.668,-1.6637,-1.6522,-1.65,-1.65,-1.65,-1.65,-1.65,-1.65,-1.7024,-1.741,-1.741,-1.7815,-1.8304,-1.877,-1.882,-1.9008,-1.9497,-1.9648,-1.9748,-1.9798,-1.9798,-1.9798,-1.9798,-1.9798,-1.9798,-1.9798,-1.9798,-1.9798,-1.9798,-1.9798,-1.9798,-1.9798,-1.9798,-1.9798,-1.9836,-2.044,-2.1006,-2.1559,-2.2169,-2.2405,-2.2447,-2.2907,-2.3155,-2.3305,-2.4031,-2.435,-2.4509,-2.5175,-2.5398,-2.5508,-2.6256,-2.65,-2.6605,-2.7148,-2.7436,-2.7809,-2.8942,-2.9777,-3.0103,-2.9348,-2.9129,-2.9129,-2.9034,-2.8939,-2.862,-2.7769,-2.7571,-2.7351,-2.6658,-2.6499,-2.6499,-2.6499,-2.6549,-2.6751,-2.7241,-2.6901,-2.6763,-2.7253,-2.6839,-2.6713,-2.7218,-2.7281,-2.7281,-2.7281,-2.7281,-2.7077,-2.6524,-2.6499,-2.6499,-2.6499,-2.6499,-2.6499,-2.6499,-2.6499,-2.6499,-2.6499,-2.6499,-2.6499,-2.6499,-2.6499,-2.6499,-1.8237,-1.8117,-1.8027,-1.8568,0.0,0.0,-1.8446,-1.8482,-1.8256,0.0,-1.7787,-1.7524,-1.6659,-1.65,-1.65,-1.65,-1.65,-1.65,-1.65,-1.7024,-1.741,-1.741,-1.7498,-1.7612,-1.7689,-1.7702,-1.7775,-1.7876,-1.8681,-1.9334,-1.9773,-1.9798,-1.9798,-1.9798,-1.9798,-1.9798,-1.9798,-1.9798,-1.9798,-1.9798,-1.9798,-1.9798,-1.9798,-1.9798,-1.9798,-1.9836,-2.044,-2.1006,-2.1587,-2.2726,-2.3087,-2.2957,-2.3058,-2.3514,-2.4089,-2.4234,-2.4681,-2.5203,-2.5342,-2.5398,-2.5508,-2.6256,-2.6449,-2.654,-2.7251,-2.774,-2.82,-2.8864,-2.9667,-3.0269,-3.0072,-3.0042,-2.9858,-2.916,-2.846,-2.7736,-2.6905,-2.6714,-2.6679,-2.6521,-2.6499,-2.6499,-2.6499,-2.6864,-2.719,-2.7268,-2.7228,-2.719,-2.7304,-2.6839,-2.6713,-2.7218,-2.7281,-2.7281,-2.7281,-2.7281,-2.7077,-2.6524,-2.6499,-2.6499,-2.6499,-2.6499,-2.6499,-2.6499,-2.6499,-2.6499,-2.6499,-2.6499,-2.6499,-2.6499,-2.6499,-2.6499,-1.8702,-1.8702,-1.8777,-1.9106,0.0,0.0,0.0,-1.8543,-1.8256,-1.8138,-1.7661,-1.7216,-1.6941,-1.6473,-1.6195,-1.645,-1.65,-1.6595,-1.6858,-1.6934,-1.6948,-1.6948,-1.6948,-1.7061,-1.7373,-1.741,-1.7614,-1.8166,-1.8694,-1.9221,-1.9773,-1.9798,-1.9798,-1.9798,-1.9798,-1.9798,-1.9798,-1.9798,-1.9798,-1.9798,-1.9798,-1.9798,-1.9798,-1.9798,-2.0143,-2.0798,-2.1004,-2.1617,-2.25,-2.3038,-2.3187,-2.3198,-2.3959,-2.4496,-2.4908,-2.5259,-2.5398,-2.5453,-2.581,-2.5701,-2.5591,-2.6654,-2.6996,-2.713,-2.811,-2.8811,-2.9399,-3.0047,-3.0554,-3.0896,-3.0896,-3.0614,-3.0208,-2.9766,-2.9317,-2.878,-2.792,-2.8084,-2.8266,-2.7835,-2.7384,-2.7062,-2.6921,-2.714,-2.7369,-2.7657,-2.7695,-2.7695,-2.7695,-2.7457,-2.7394,-2.7657,-2.7695,-2.7582,-2.7306,-2.7281,-2.7077,-2.6524,-2.6499,-2.6499,-2.6499,-2.6499,-2.6499,-2.6499,-2.6499,-2.6499,-2.6499,-2.6499,-2.6499,-2.6499,-2.6499,-2.6499,0.0,0.0,0.0,0.0,0.0,-1.8912,0.0,0.0,0.0,0.0,0.0,0.0,0.0,0.0,0.0,0.0,0.0,0.0,0.0,-1.6858,0.0,-1.6659,-1.6552,-1.6697,-1.7184,-1.7234,-1.7677,-1.8757,-1.8845,-1.9121,-1.9773,-1.9798,-1.9798,-1.9798,-1.9798,-1.9798,-1.9798,-1.9798,-1.9798,-1.9798,-1.9798,-1.9798,-1.9798,-1.9798,-2.045,-2.1589,-2.1532,-2.2219,-2.3407,-2.3493,-2.3649,-2.3842,-2.4625,-2.5147,-2.5481,-2.6068,-2.6081,-2.5919,-2.651,-2.6408,-2.6214,-2.7342,-2.7866,-2.8273,-2.9406,-3.0118,-3.0673,-3.1322,-3.1511,-3.1511,-3.1511,-3.1029,-3.0494,-3.0329,-3.0299,-3.0042,-2.9192,-2.9535,-2.9825,-2.9045,-2.8343,-2.7785,-2.7554,-2.7498,-2.7632,-2.8185,-2.826,-2.826,-2.826,-2.8172,-2.8147,-2.8247,-2.8172,-2.7921,-2.7482,-2.7379,-2.7077,-2.6524,-2.6499,-2.6499,-2.6499,-2.6499,-2.6499,-2.6499,-2.6499,-2.6499,-2.6499,-2.6499,-2.6499,-2.6499,-2.6499,-2.6499,0.0,0.0,0.0,0.0,-1.9648,0.0,0.0,0.0,-1.9353,-1.8897,0.0,0.0,0.0,0.0,0.0,0.0,0.0,0.0,-1.6659,-1.6951,-1.7209,-1.7209,-1.6795,-1.6525,-1.6588,-1.6588,-1.7064,-1.8216,-1.8292,-1.8744,-1.9748,-1.9798,-1.9798,-1.9798,-1.9798,-1.9798,-1.9798,-1.9798,-1.9798,-1.9798,-1.9798,-1.9798,-1.9798,-1.9798,-2.0164,-2.0851,-2.1297,-2.2219,-2.3477,-2.4665,-2.5522,-2.5919,-2.4092,-2.4208,-2.5398,-2.5481,-2.6295,-2.7357,-2.7433,-2.7809,-2.8278,-2.8431,-2.9247,-3.0306,-3.1037,-3.1291,-3.138,-3.1467,-3.1511,-3.1511,-3.1511,-3.1438,-3.119,-3.0464,-3.0299,-3.0042,-2.9192,-2.9097,-2.9027,-2.8625,-2.8482,-2.8407,-2.8384,-2.8167,-2.8197,-2.8712,-2.88,-2.88,-2.88,-2.8411,-2.8298,-2.875,-2.8398,-2.8084,-2.8009,-2.7557,-2.7077,-2.6524,-2.6499,-2.6499,-2.6499,-2.6499,-2.6499,-2.6499,-2.6499,-2.6499,-2.6499,-2.6499,-2.6499,-2.6499,-2.6499,-2.6499,0.0,0.0,0.0,0.0,0.0,0.0,-1.9798,0.0,-1.9548,0.0,0.0,0.0,0.0,0.0,0.0,0.0,-1.7415,0.0,0.0,0.0,-1.7646,0.0,0.0,0.0,-1.65,-1.6774,-1.7183,-1.771,-1.8305,-1.8853,-1.9309,-1.9635,-1.9798,-1.9798,-1.9798,-1.9798,-1.9798,-1.9798,-1.9798,-1.9798,-1.9798,-2.0003,-2.0384,-2.0784,-2.1729,-2.3024,-2.3192,-2.3974,-2.5215,-2.5342,-2.5563,-2.5755,-2.4809,-2.5342,-2.668,-2.668,-2.7086,-2.76,-2.76,-2.8049,-2.8727,-2.946,-3.0342,-3.1122,-3.1406,-3.1511,-3.1511,-3.1511,-3.1511,-3.1511,-3.1511,-3.1161,-3.0718,-3.0389,-2.9919,-2.9566,-2.9721,-3.0021,-3.0221,-3.0058,-2.9898,-2.9746,-2.9517,-2.8972,-2.8624,-2.8863,-2.9214,-2.9315,-2.8938,-2.9013,-2.8925,-2.8499,-2.8499,-2.8323,-2.7682,-2.7419,-2.718,-2.6989,-2.6675,-2.6499,-2.6499,-2.6499,-2.6499,-2.6499,-2.6499,-2.6499,-2.6499,-2.6499,-2.6499,-2.6499,-2.6499,-2.6499,-1.9538,0.0,0.0,0.0,0.0,0.0,0.0,0.0,0.0,0.0,0.0,0.0,0.0,0.0,0.0,0.0,0.0,-1.84,0.0,-1.8477,0.0,0.0,0.0,0.0,0.0,-1.7291,-1.7542,-1.7603,-1.8351,-1.8828,-1.8995,-1.9359,-1.966,-1.9798,-1.9798,-1.9901,-2.0067,-1.9901,-1.9965,-2.032,-2.0144,-2.0499,-2.1345,-2.181,-2.2988,-2.4655,-2.4555,-2.5274,-2.6457,-2.5933,-2.581,-2.6,-2.6,-2.6654,-2.7575,-2.7382,-2.7433,-2.763,-2.7809,-2.8412,-2.9295,-3.0417,-3.1092,-3.1511,-3.1511,-3.1511,-3.1511,-3.1511,-3.1511,-3.1511,-3.1511,-3.1058,-3.0614,-3.0614,-3.0133,-2.9901,-3.0712,-3.1256,-3.1571,-3.1634,-3.1532,-3.1219,-3.0586,-2.9587,-2.895,-2.9101,-2.9528,-2.9641,-2.9176,-2.9528,-2.9478,-2.8649,-2.8787,-2.8562,-2.7795,-2.7595,-2.7444,-2.7329,-2.6801,-2.6499,-2.6499,-2.6499,-2.6499,-2.6499,-2.6499,-2.6499,-2.6499,-2.6499,-2.6499,-2.6499,-2.6499,-2.6499,0.0,0.0,0.0,-1.9872,0.0,0.0,0.0,0.0,-1.9708,0.0,0.0,0.0,0.0,0.0,0.0,0.0,0.0,0.0,0.0,0.0,0.0,0.0,0.0,0.0,0.0,-1.8066,-1.8106,-1.817,-1.8214,-1.8436,-1.897,-1.902,-1.9259,-1.9786,-1.9798,-2.0105,-2.0771,-2.0131,-2.0421,-2.1625,-2.1053,-2.1435,-2.2647,-2.266,-2.3349,-2.4511,-2.4498,-2.5274,-2.651,-2.6484,-2.6878,-2.7534,-2.7534,-2.756,-2.7509,-2.68,-2.6982,-2.769,-2.8338,-2.9385,-3.0552,-3.1241,-3.1481,-3.1511,-3.1511,-3.1511,-3.1511,-3.1511,-3.1511,-3.1511,-3.1511,-3.1467,-3.1467,-3.1467,-3.1438,-3.1617,-3.2288,-3.2437,-3.2568,-3.2963,-3.3025,-3.2625,-3.1366,-2.9918,-2.9076,-2.9679,-2.9779,-2.9779,-2.9767,-2.9779,-2.9779,-2.9741,-2.9252,-2.8875,-2.8838,-2.8386,-2.7846,-2.7318,-2.6801,-2.6499,-2.6499,-2.6499,-2.6499,-2.6499,-2.6499,-2.6499,-2.6499,-2.6499,-2.6499,-2.6499,-2.6499,-2.6499,-1.9559,-2.0119,-2.0599,-1.9884,-2.0026,-2.0147,0.0,0.0,0.0,0.0,0.0,0.0,0.0,0.0,0.0,0.0,0.0,0.0,0.0,0.0,0.0,0.0,0.0,0.0,0.0,0.0,-1.8347,-1.7665,-1.8256,-1.8614,-1.849,-1.8807,-1.9458,-2.0434,-2.0029,-2.0308,-2.139,-2.0333,-2.0245,-2.1088,-2.0446,-2.077,-2.1999,-2.244,-2.3295,-2.4499,-2.5411,-2.6083,-2.6537,-2.7049,-2.7382,-2.76,-2.76,-2.76,-2.7575,-2.7331,-2.768,-2.8412,-2.949,-3.0148,-3.0612,-3.1271,-3.1511,-3.1511,-3.1511,-3.1511,-3.1511,-3.1511,-3.1511,-3.1511,-3.1511,-3.1824,-3.2153,-3.2153,-3.2062,-3.2187,-3.2974,-3.3068,-3.299,-3.3081,-3.3418,-3.3154,-3.1509,-3.0762,-3.0288,-2.987,-3.0317,-3.0482,-2.9895,-2.9792,-2.9641,-2.9264,-2.939,-2.934,-2.8925,-2.8423,-2.7871,-2.7318,-2.6801,-2.6499,-2.6499,-2.6499,-2.6499,-2.6499,-2.6499,-2.6499,-2.6499,-2.6499,-2.6499,-2.6499,-2.6499,-2.6499,-1.957,-2.0152,-2.0628,-1.9915,-2.0062,-2.0133,-1.914,-1.931,-1.9341,0.0,0.0,0.0,0.0,0.0,0.0,0.0,0.0,0.0,0.0,-1.9046,0.0,0.0,0.0,0.0,0.0,0.0,-1.8389,-1.7368,-1.7909,-1.816,0.0,-1.8406,-1.9166,-2.0123,-1.9927,-2.0308,-2.1366,-2.0333,-2.0245,-2.1113,-2.0666,-2.1236,-2.2717,-2.3344,-2.4328,-2.5576,-2.6492,-2.6878,-2.693,-2.7408,-2.76,-2.76,-2.76,-2.775,-2.7959,-2.7959,-2.8502,-2.94,-3.0223,-3.0672,-3.0941,-3.1361,-3.1511,-3.1511,-3.1511,-3.1511,-3.1555,-3.1795,-3.1854,-3.1914,-3.2138,-3.2512,-3.2856,-3.2856,-3.2757,-3.2878,-3.3691,-3.3765,-3.3718,-3.3915,-3.3984,-3.3518,-3.196,-3.1706,-3.1267,-3.0011,-3.0317,-3.0482,-2.9869,-2.9792,-2.9641,-2.9277,-2.9566,-2.9641,-2.9264,-2.8725,-2.8247,-2.7896,-2.7392,-2.7077,-2.7077,-2.7077,-2.6989,-2.6788,-2.6788,-2.6688,-2.6499,-2.6499,-2.6499,-2.6499,-2.6499,-2.6499]},{"header":{"parameterUnit":"m.s-1","parameterCategory":1,"la1":30.6,"la2":29.2853,"lo1":-89.7004,"lo2":-87.6739,"dy":0.0162,"dx":0.0183,"nx":112,"ny":82,"refTime":"2026-03-05T00:00:00:Z","depth":0,"parameterNumber":3,"parameterNumberName":"V-component_of_WINDS"},"data":[0.0,0.0,0.0,0.0,0.0,0.0,0.0,0.0,0.0,0.0,0.0,0.0,0.0,0.0,0.0,0.0,0.0,0.0,0.0,0.0,0.0,0.0,0.0,0.0,0.0,0.0,0.0,0.0,0.0,0.0,0.0,0.0,0.0,0.0,0.0,0.0,0.0,0.0,0.0,0.0,0.0,0.0,0.0,0.0,0.0,0.0,0.0,0.0,0.0,0.0,0.0,0.0,0.0,0.0,0.0,0.0,0.0,0.0,0.0,0.0,0.0,0.0,0.0,0.0,0.0,0.0,0.0,0.0,0.0,0.0,0.0,0.0,0.0,0.0,0.0,0.0,0.0,0.0,0.0,0.0,0.0,0.0,0.0,0.0,0.0,0.0,0.0,0.0,0.0,0.0,1.0434,1.1056,1.2196,1.2905,1.2905,1.2822,1.2011,1.0169,0.0,0.0,0.0,0.0,0.0,0.0,0.0,0.0,0.0,0.0,0.0,0.0,0.0,0.0,0.0,0.0,0.0,0.0,0.0,0.0,0.0,0.0,0.0,0.0,0.0,0.0,0.0,0.0,0.0,0.0,0.0,0.0,0.0,0.0,0.0,0.0,0.0,0.0,0.0,0.0,0.0,0.0,0.0,0.0,0.0,0.0,0.0,0.0,0.0,0.0,0.0,0.0,0.0,0.0,0.0,0.0,0.0,0.0,0.0,0.0,0.0,0.0,0.0,0.0,0.0,0.0,0.0,0.0,0.0,0.0,0.0,0.0,0.0,0.0,0.0,0.0,0.0,0.0,0.0,0.0,0.0,0.0,0.0,0.0,0.0,0.0,0.0,0.0,0.0,0.0,0.0,0.0,0.0,0.0,0.0,0.0,0.0,0.0,0.0,0.0,0.0,0.0,0.0,0.0,1.0519,1.2391,1.2769,1.2905,1.2905,1.2549,1.1847,1.0732,0.0,0.0,0.0,0.0,0.0,0.0,0.0,0.0,0.0,0.0,0.0,0.0,0.0,0.0,0.0,0.0,0.0,0.0,0.0,0.0,0.0,0.0,0.0,0.0,0.0,0.0,0.0,0.0,0.0,0.0,0.0,0.0,0.0,0.0,0.0,0.0,0.0,0.0,0.0,0.0,0.0,0.0,0.0,0.0,0.0,0.0,0.0,0.0,0.0,0.0,0.0,0.0,0.0,0.0,0.0,0.0,0.0,0.0,0.0,0.0,0.0,0.0,0.0,0.0,0.0,0.0,0.0,0.0,0.0,0.0,0.0,0.0,0.0,0.0,0.0,0.0,0.0,0.0,0.0,0.0,0.0,0.0,0.0,0.0,0.0,0.0,0.0,0.0,0.0,0.0,0.0,0.0,0.0,0.0,0.0,0.0,0.0,0.0,0.0,0.0,0.0,0.0,0.0,1.0456,1.1281,1.2744,1.2905,1.2905,1.2905,1.2695,1.1926,1.0417,0.9937,0.0,0.0,0.0,0.0,0.0,0.0,0.0,0.0,0.0,0.0,0.0,0.0,0.0,0.0,0.0,0.0,0.0,0.0,0.0,0.0,0.0,0.0,0.0,0.0,0.0,0.0,0.0,0.0,0.0,0.0,0.0,0.0,0.0,0.0,0.0,0.0,0.0,0.0,0.0,0.0,0.0,0.0,0.0,0.0,0.0,0.0,0.0,0.0,0.0,0.0,0.0,0.0,0.0,0.0,0.0,0.0,0.0,0.0,0.0,0.0,0.0,0.0,0.0,0.0,0.0,0.0,0.0,0.0,0.0,0.0,0.0,0.0,0.0,0.0,0.0,0.0,0.0,0.0,0.0,0.0,0.0,0.0,0.0,0.0,0.0,0.0,0.0,0.0,0.0,0.0,0.0,0.0,0.0,0.0,0.0,0.0,0.0,0.0,0.0,0.0,0.0,0.0,1.1797,1.2044,1.2827,1.2905,1.2905,1.2905,1.2807,1.2044,1.0395,0.9632,0.0,0.0,0.0,0.0,0.0,0.0,0.0,0.0,0.0,0.0,0.0,0.0,0.0,0.0,0.0,0.0,0.0,0.0,0.0,0.0,0.0,0.0,0.0,0.0,0.0,0.0,0.0,0.0,0.0,0.0,0.0,0.0,0.0,0.0,0.0,0.0,0.0,0.0,0.0,0.0,0.0,0.0,0.0,0.0,0.0,0.0,0.0,0.0,0.0,0.0,0.0,0.0,0.0,0.0,0.0,0.0,0.0,0.0,0.0,0.0,0.0,0.0,0.0,0.0,0.0,0.0,0.0,0.0,0.0,0.0,0.0,0.0,0.0,0.0,0.0,0.0,0.0,0.0,0.0,0.0,0.0,0.0,0.0,0.0,0.0,0.0,0.0,0.0,0.0,0.0,0.0,0.0,0.0,0.0,0.0,0.0,0.0,0.0,0.0,0.0,0.0,0.0,1.1667,1.234,1.2856,1.2905,1.2905,1.2905,1.251,1.2025,1.1516,0.9587,0.0,0.0,0.0,0.0,0.0,0.0,0.0,0.0,0.0,0.0,0.0,0.0,0.0,0.0,0.0,0.0,0.0,0.0,0.0,0.0,0.0,0.0,0.0,0.0,0.0,0.0,0.0,0.0,0.0,0.0,0.0,0.0,0.0,0.0,0.0,0.0,0.0,0.0,0.0,0.0,0.0,0.0,0.0,0.0,0.0,0.0,0.0,0.0,0.0,0.0,0.0,0.0,0.0,0.0,0.0,0.0,0.0,0.0,0.0,0.0,0.0,0.0,0.0,0.0,0.0,0.0,0.0,0.0,0.0,0.0,0.0,0.0,0.0,0.0,0.0,0.0,0.0,0.0,0.0,0.0,0.0,0.0,0.0,0.0,0.0,0.0,0.0,0.0,0.0,0.0,0.0,0.0,0.0,0.0,0.0,0.0,0.0,0.0,0.0,0.0,0.0,0.0,1.1846,1.2369,0.0,1.2905,1.2905,1.2905,1.2734,1.2208,1.1173,0.0,0.0,0.0,0.0,0.0,0.0,0.0,0.0,0.0,0.0,0.0,0.0,0.0,0.0,0.0,0.0,0.0,0.0,0.0,0.0,0.0,0.0,0.0,0.0,0.0,0.0,0.0,0.0,0.0,0.0,0.0,0.0,0.0,0.0,0.0,0.0,0.0,0.0,0.0,0.0,0.0,0.0,0.0,0.0,0.0,0.0,0.0,0.0,0.0,0.0,0.0,0.0,0.0,0.0,0.0,0.0,0.0,0.0,0.0,0.0,0.0,0.0,0.0,0.0,0.0,0.0,0.0,0.0,0.0,0.0,0.0,0.0,0.0,0.0,0.0,0.0,0.0,0.0,0.0,0.0,0.0,0.0,0.0,0.0,0.0,0.0,0.0,0.0,0.0,0.0,0.0,0.0,0.0,0.0,0.0,0.0,0.0,0.0,0.0,0.0,0.0,0.0,1.1459,1.207,1.2549,0.0,1.2905,1.2905,1.2905,1.2651,1.2001,1.091,0.0,0.0,0.0,0.0,0.0,0.0,0.0,0.0,0.0,0.0,0.0,0.0,0.0,0.0,0.0,0.0,0.0,0.0,0.0,0.0,0.0,0.0,0.0,0.0,0.0,0.0,0.0,0.0,0.0,0.0,0.0,0.0,0.0,0.0,0.0,0.0,0.0,0.0,0.0,0.0,0.0,0.0,0.0,0.0,0.0,0.0,0.0,0.0,0.0,0.0,0.0,0.0,0.0,0.0,0.0,0.0,0.0,0.0,0.0,0.0,0.0,0.0,0.0,0.0,0.0,0.0,0.0,0.0,0.0,0.0,0.0,0.0,0.0,0.0,0.0,0.0,0.0,0.0,0.0,0.0,0.0,0.0,0.0,0.0,0.0,0.0,0.0,0.0,0.0,0.0,0.0,0.0,0.0,0.0,0.0,0.0,0.0,0.0,0.0,0.0,0.0,0.0,1.1498,1.2357,1.2905,1.2905,1.2905,1.2905,1.2905,1.2116,1.1398,0.0,0.0,0.0,0.0,0.0,0.0,0.0,0.0,0.0,0.0,0.0,0.0,0.0,0.0,0.0,0.0,0.0,0.0,0.0,0.0,0.0,0.0,0.0,0.0,0.0,0.0,0.0,0.0,0.0,0.0,0.0,0.0,0.0,0.0,0.0,0.0,0.0,0.0,0.0,0.0,0.0,0.0,0.0,0.0,0.0,0.0,0.0,0.0,0.0,0.0,0.0,0.0,0.0,0.0,0.0,0.0,0.0,0.0,0.0,0.0,0.0,0.0,0.0,0.0,0.0,0.0,0.0,0.0,0.0,0.0,0.0,0.0,0.0,0.0,0.0,0.0,0.0,0.0,0.0,0.0,0.0,0.0,0.0,0.0,0.0,0.0,0.0,0.0,0.0,0.0,0.0,0.0,0.0,0.0,0.0,0.0,0.0,0.0,0.0,0.0,0.0,0.0,0.0,1.1498,1.2357,1.2905,1.2905,1.2905,1.2905,1.2905,1.2363,1.1709,1.0957,0.0,0.0,0.0,0.0,0.0,0.0,0.0,0.0,0.0,0.0,0.0,0.0,0.0,0.0,0.0,0.0,0.0,0.0,0.0,0.0,0.0,0.0,0.0,0.0,0.0,0.0,0.0,0.0,0.0,0.0,0.0,0.0,0.0,0.0,0.0,0.0,0.0,0.0,0.0,0.0,0.0,0.0,0.0,0.0,0.0,0.0,0.0,0.0,0.0,0.0,0.0,0.0,0.0,0.0,0.0,0.0,0.0,0.0,0.0,0.0,0.0,0.0,0.0,0.0,0.0,0.0,0.0,0.0,0.0,0.0,0.0,0.0,0.0,0.0,0.0,0.0,0.0,0.0,0.0,0.0,0.0,0.0,0.0,0.0,0.0,0.0,0.0,0.0,0.0,0.0,0.0,0.0,0.0,0.0,0.0,0.0,0.0,0.0,0.0,0.0,0.0,0.0,1.1844,1.2927,1.3515,1.3286,1.3262,1.3152,1.2929,1.2314,1.1592,1.0713,0.0,0.0,0.0,0.0,0.0,0.0,0.0,0.0,0.0,0.0,0.0,0.0,0.0,0.0,0.0,0.0,0.0,0.0,0.0,0.0,0.0,0.0,0.0,0.0,0.0,0.0,0.0,0.0,0.0,0.0,0.0,0.0,0.0,0.0,0.0,0.0,0.0,0.0,0.0,0.0,0.0,0.0,0.0,0.0,0.0,0.0,0.0,0.0,0.0,0.0,0.0,0.0,0.0,0.0,0.0,0.0,0.0,0.0,0.0,0.0,0.0,0.0,0.0,0.0,0.0,0.0,0.0,0.0,0.0,0.0,0.0,0.0,0.0,0.0,0.0,0.0,0.0,0.0,0.0,0.0,0.0,0.0,0.0,0.0,0.0,0.0,0.0,0.0,0.0,0.0,0.0,0.0,0.0,0.0,0.0,0.0,0.0,0.0,0.0,0.0,0.0,0.0,1.2383,1.3784,1.4491,1.3933,1.3886,1.3671,1.3104,1.2265,1.1401,1.0567,0.0,0.0,0.0,0.0,0.0,0.0,0.0,0.0,0.0,0.0,0.0,0.0,0.0,0.0,0.0,0.0,0.0,0.0,0.0,0.0,0.0,0.0,0.0,0.0,0.0,0.0,0.0,0.0,0.0,0.0,0.0,0.0,0.0,0.0,0.0,0.0,0.0,0.0,0.0,0.0,0.0,0.0,0.0,0.0,0.0,0.0,0.0,0.0,0.0,0.0,0.0,0.0,0.0,0.0,0.0,0.0,0.0,0.0,0.0,0.0,1.1842,1.1307,0.0,0.0,0.0,0.0,0.0,0.0,0.0,0.0,0.0,0.0,0.0,0.0,0.0,0.0,0.0,0.0,0.0,0.0,0.0,0.0,0.0,0.0,0.0,0.0,0.0,0.0,0.0,0.0,0.0,0.0,0.0,0.0,0.0,0.0,0.0,0.0,0.0,0.0,0.0,0.0,1.2383,1.3784,1.4652,1.4514,1.4514,1.4456,1.434,1.3423,1.2647,1.2138,1.0499,0.0,0.0,0.0,0.0,0.0,0.0,0.0,0.0,0.0,0.0,0.0,0.0,0.0,0.0,0.0,0.0,0.0,0.0,0.0,0.0,0.0,0.0,0.0,0.0,0.0,0.0,0.0,0.0,0.0,0.0,0.0,0.0,0.0,0.0,0.0,0.0,0.0,0.0,0.0,0.0,0.0,0.0,0.0,0.0,0.0,0.0,0.0,0.0,0.0,0.0,0.0,0.0,0.0,0.0,0.0,0.0,0.0,0.0,0.0,1.3031,1.248,0.0,0.0,0.0,0.0,0.0,0.0,0.0,0.0,0.0,0.0,0.0,0.0,0.0,0.0,0.0,0.0,0.0,0.0,0.0,0.0,0.0,0.0,0.0,0.0,0.0,0.0,0.0,0.0,0.0,0.0,0.0,0.0,0.0,0.0,0.0,0.0,0.0,0.0,0.0,0.0,1.3125,1.4603,1.5444,1.5163,1.5118,1.5017,1.4721,1.3769,1.3017,1.2645,1.1195,0.0,0.0,0.0,0.0,0.0,0.0,0.0,0.0,0.0,0.0,0.0,0.0,0.0,0.0,0.0,0.0,0.0,0.0,0.0,0.0,0.0,0.0,0.0,0.0,0.0,0.0,0.0,0.0,0.0,0.0,0.0,0.0,0.0,0.0,0.0,0.0,0.0,0.0,0.0,0.0,0.0,0.0,0.0,0.0,0.0,0.0,0.0,0.0,0.0,0.0,0.0,0.0,0.0,1.3799,1.4213,1.4534,1.4983,1.5185,1.5108,1.3962,1.3468,1.3494,1.3154,0.0,0.0,0.0,0.0,0.0,0.0,0.0,0.0,0.0,0.0,0.0,0.0,0.0,0.0,0.0,0.0,0.0,0.0,0.0,0.0,0.0,0.0,1.2753,1.3486,1.3415,1.282,1.1541,0.0,0.0,0.0,0.0,0.0,0.0,0.0,0.0,0.0,0.0,0.0,1.3946,1.5496,1.6315,1.582,1.5754,1.5555,1.5062,1.417,1.3457,1.3042,1.1979,1.0821,0.0,0.0,0.0,0.0,0.0,0.0,0.0,0.0,0.0,0.0,0.0,0.0,0.0,0.0,0.0,0.0,0.0,0.0,0.0,0.0,0.0,0.0,0.0,0.0,0.0,0.0,0.0,0.0,0.0,0.0,0.0,0.0,0.9645,1.0213,0.0,0.0,0.0,0.0,0.0,0.0,0.0,0.0,0.0,0.0,0.0,0.0,0.0,1.36,1.4412,1.496,1.5251,1.5326,1.5853,1.6136,1.6189,1.6253,1.6287,1.6274,1.6093,0.0,1.4034,1.4499,0.0,0.0,0.0,0.0,0.0,0.0,0.0,0.0,0.0,0.0,0.0,0.0,0.0,0.0,0.0,0.0,0.0,0.0,0.0,0.0,0.0,0.0,1.5119,1.4784,1.4667,1.4574,1.4362,1.2674,1.1027,1.0434,1.0312,1.0274,0.0,0.0,0.0,0.0,0.0,0.0,1.4026,1.5496,1.6466,1.6402,1.638,1.6358,1.6272,1.5703,1.5141,1.4635,1.3265,1.2207,1.1543,0.9915,0.0,0.0,0.0,0.0,0.0,0.0,0.0,0.0,0.0,0.0,0.0,0.0,0.0,0.0,0.0,0.0,0.0,0.0,0.0,0.0,0.0,0.0,0.0,0.0,0.0,0.0,0.0,0.0,0.0,0.9712,1.0626,1.1111,1.1016,1.0759,0.0,0.0,0.0,0.0,0.0,0.0,0.0,0.0,0.0,1.3908,1.4453,1.494,1.5349,1.5881,1.6158,1.6137,1.6387,1.65,1.65,1.65,1.65,1.65,1.65,1.6106,1.5446,1.5418,1.4957,1.4272,0.0,0.0,0.0,0.0,1.3635,1.3493,1.4157,1.4231,1.3954,1.35,0.0,0.0,0.0,0.0,0.0,0.0,0.0,1.3912,1.4245,1.5016,1.5718,1.5781,1.5793,1.5718,1.5412,1.4527,1.338,1.2004,1.1739,1.1467,1.0633,1.051,0.0,0.0,0.0,1.3861,1.4873,1.5882,1.65,1.65,1.65,1.65,1.65,1.6019,1.5475,1.4921,1.4001,1.3092,1.2214,1.1148,1.0297,0.0,0.0,0.0,0.0,0.0,0.0,0.0,0.0,0.0,0.0,0.0,0.0,0.0,0.0,0.0,0.0,0.0,0.0,0.0,0.0,0.0,0.0,0.0,0.0,0.0,0.0,0.0,0.0,1.1023,1.1808,1.2258,1.2396,1.2252,0.0,0.0,0.0,0.0,0.0,0.0,1.3802,1.3985,1.439,1.5085,1.5618,1.5956,1.612,1.6507,1.6774,1.6909,1.6909,1.6909,1.6909,1.6909,1.6909,1.6888,1.6752,1.6689,1.6663,1.6132,1.5707,1.5332,1.4898,1.4496,1.4236,1.4578,1.4495,1.4357,1.5447,1.5632,1.5341,1.4968,1.4768,1.4459,1.3361,0.0,0.0,0.0,0.0,1.4635,1.5235,1.5645,1.6007,1.64,1.65,1.6387,1.5994,1.5906,1.5394,1.3601,1.3252,1.2907,1.181,1.163,0.0,0.0,0.0,1.445,1.5572,1.6183,1.65,1.65,1.65,1.65,1.65,1.6132,1.5618,1.4934,1.4525,1.3778,1.2651,1.2189,1.1579,1.0776,0.0,0.0,0.0,0.0,0.0,0.0,0.0,0.0,0.0,0.0,0.0,0.0,0.0,0.0,0.0,0.0,0.0,0.0,0.0,0.0,0.0,0.0,0.0,0.0,0.0,0.0,0.0,0.0,0.0,1.3898,1.3986,0.0,0.0,0.0,0.0,1.391,1.3961,1.4212,1.4802,1.5296,1.5597,1.5655,1.6183,1.6693,1.7197,1.7258,1.7524,1.8027,1.8027,1.8027,1.8027,1.8027,1.8027,1.7987,1.7483,1.725,1.7209,1.6685,1.645,1.6429,1.6403,1.637,1.6348,1.6373,1.6373,1.6348,1.6432,1.6432,1.6429,1.6403,1.604,1.5622,1.5539,1.5176,0.0,0.0,1.559,1.574,1.6291,1.6429,1.6463,1.6488,1.65,1.6488,1.6463,1.645,1.6124,1.5003,1.4789,1.4764,1.4695,0.0,1.4707,1.4777,1.5254,1.561,1.568,1.6183,1.65,1.65,1.65,1.65,1.65,1.6475,1.6019,1.4979,1.4859,1.4356,1.3198,1.2659,1.233,1.2296,1.0692,0.0,0.0,0.0,0.0,0.0,0.0,0.0,0.0,0.0,0.0,0.0,0.0,0.0,0.0,0.0,0.0,0.0,0.0,0.0,0.0,0.0,0.0,0.0,0.0,0.0,0.0,0.0,0.0,1.4551,1.4928,0.0,1.435,1.4287,1.4532,1.5085,1.5135,1.5361,1.5906,1.6448,1.6736,1.6736,1.7247,1.7626,1.7807,1.7807,1.7907,1.8106,1.8106,1.8106,1.8106,1.8106,1.8106,1.8086,1.7907,1.7807,1.7807,1.7605,1.7105,1.65,1.65,1.65,1.65,1.65,1.65,1.65,1.65,1.65,1.65,1.65,1.6362,1.6199,1.6199,1.6082,1.5969,1.617,1.6199,1.6249,1.645,1.65,1.65,1.65,1.65,1.65,1.65,1.65,1.6387,1.6007,1.5643,1.5311,1.4947,1.4896,1.5009,1.5361,1.5567,1.5819,1.6183,1.6375,1.65,1.65,1.65,1.65,1.65,1.65,1.6045,1.4979,1.4896,1.4393,1.3248,1.301,1.2751,1.24,1.1811,1.0842,0.0,0.0,0.0,0.0,0.0,0.0,0.0,0.0,0.0,0.0,0.0,0.0,0.0,0.0,0.0,0.0,0.0,0.0,0.0,0.0,0.0,0.0,0.0,0.0,0.0,0.0,1.4777,1.5123,1.563,1.5756,1.5223,1.5336,1.558,1.5944,1.5969,1.6132,1.6475,1.7013,1.7312,1.7312,1.7827,1.8204,1.838,1.838,1.8458,1.8631,1.8631,1.8631,1.8631,1.8631,1.8631,1.8631,1.8458,1.838,1.8361,1.8185,1.7565,1.6774,1.6774,1.6659,1.65,1.65,1.65,1.65,1.65,1.65,1.65,1.65,1.65,1.65,1.65,1.65,1.65,1.65,1.65,1.65,1.65,1.65,1.65,1.65,1.65,1.65,1.65,1.65,1.65,1.65,1.6199,1.5856,1.5512,1.5449,1.5555,1.5919,1.5969,1.6107,1.645,1.65,1.65,1.65,1.65,1.65,1.65,1.6325,1.5856,1.4947,1.4739,1.4205,1.3235,1.3198,1.3023,1.2689,1.23,1.1472,1.0169,0.0,0.0,0.0,0.0,0.0,0.0,0.0,0.0,0.0,0.0,0.0,0.0,0.0,0.0,0.0,0.0,0.0,0.0,0.0,0.0,0.0,0.0,0.0,1.406,1.5035,1.5706,1.5718,1.6183,1.6308,1.5768,1.6208,1.65,1.65,1.6522,1.6522,1.6522,1.7055,1.7353,1.7353,1.7867,1.84,1.893,1.893,1.9188,1.9708,1.9708,1.9708,1.9708,1.9708,1.9708,1.9672,1.9151,1.893,1.8874,1.8361,1.7827,1.7353,1.7312,1.6972,1.65,1.65,1.6522,1.6522,1.6522,1.6522,1.6522,1.6522,1.65,1.65,1.65,1.6522,1.6522,1.65,1.6522,1.6522,1.6522,1.6522,1.65,1.6522,1.6522,1.65,1.65,1.65,1.65,1.65,1.65,1.65,1.65,1.65,1.65,1.65,1.65,0.0,1.65,1.65,1.65,1.65,1.65,1.65,1.65,1.6019,1.5475,1.4921,1.4387,1.3828,1.3223,1.3198,1.3198,1.3198,1.2165,1.1324,1.0733,0.0,0.0,0.0,0.0,0.0,0.0,0.0,0.0,0.0,0.0,0.0,0.0,0.0,0.0,0.0,0.0,0.0,0.0,0.0,0.0,0.0,1.389,1.5065,1.5248,1.5505,1.5844,1.6224,1.64,1.6437,1.6287,1.64,1.65,1.65,1.6858,1.7076,1.7076,1.7967,1.8458,1.8458,1.8987,1.9332,1.9479,1.9479,1.9548,1.9708,1.9708,1.9708,1.9708,1.9708,1.9708,1.969,1.9548,1.9479,1.946,1.9332,1.8949,1.838,1.7605,1.6972,1.65,1.65,1.6752,1.7013,1.6637,1.6752,1.7013,1.6637,1.65,1.65,1.65,1.6774,1.6993,1.6616,1.6774,1.7076,1.7076,1.6795,1.6595,1.6993,1.6774,1.65,1.65,1.65,1.65,1.65,1.65,1.65,1.65,1.65,1.65,1.65,1.65,0.0,1.65,1.65,1.65,1.65,1.65,1.65,1.65,1.6019,1.5475,1.4921,1.4387,1.3828,1.3223,1.3198,1.3198,1.3198,1.2526,1.1914,0.0,0.0,0.0,0.0,0.0,0.0,0.0,0.0,0.0,0.0,0.0,0.0,0.0,0.0,0.0,0.0,0.0,0.0,0.0,0.0,0.0,0.0,1.4786,1.5781,1.6007,1.6045,1.6158,1.645,1.65,1.65,1.65,1.6689,1.6837,1.6837,1.7333,1.7646,1.7646,1.8438,1.8893,1.8893,1.9424,1.9708,1.9708,1.9708,1.9708,1.9708,1.9708,1.9708,1.9708,1.9708,1.9708,1.9708,1.9708,1.9708,1.9708,1.9708,1.9387,1.8836,0.0,0.0,0.0,0.0,1.7229,1.725,1.693,1.69,1.6909,1.6595,1.6659,1.6837,1.6837,1.7055,1.7229,1.6909,1.7055,1.7312,1.7312,1.7229,1.7188,1.7271,1.7055,1.6837,1.6837,1.6837,1.6888,1.7126,1.6993,0.0,1.6837,1.6659,1.65,1.65,1.65,1.65,1.65,1.65,1.65,1.65,1.65,1.65,1.65,1.6019,0.0,0.0,0.0,1.3828,1.3223,1.3198,0.0,0.0,0.0,0.0,0.0,0.0,0.0,0.0,1.1974,1.1791,0.0,0.0,0.0,0.0,0.0,0.0,0.0,0.0,0.0,0.0,0.0,0.0,0.0,0.0,0.0,0.0,1.5449,1.5957,1.6425,1.65,1.65,1.65,1.65,1.65,1.65,1.693,1.7229,1.7312,1.7807,1.8145,1.8204,0.0,0.0,0.0,0.0,1.9708,1.9708,1.9708,1.9708,1.9708,1.9708,1.9708,1.9708,1.9708,1.9708,1.9708,1.9708,1.9708,1.9708,1.9708,1.9424,1.8987,1.8855,1.8516,1.8106,1.8106,1.7847,1.7463,1.7415,0.0,0.0,1.6689,1.6993,1.7394,1.7394,1.7422,1.7463,1.7415,1.7422,1.7483,1.7483,1.7787,1.8007,1.7585,1.7422,1.7394,1.7394,1.7394,1.7524,1.8007,1.7727,1.7374,1.7312,1.6858,1.65,1.65,1.65,1.65,1.65,1.65,1.65,1.65,1.65,0.0,1.65,1.6019,1.5512,1.5009,1.4488,1.3941,1.3398,1.3403,1.3664,1.427,1.4283,1.4505,1.498,1.498,1.5222,1.5636,1.3147,1.2842,0.0,0.0,0.0,0.0,0.0,0.0,0.0,0.0,0.0,0.0,0.0,0.0,0.0,0.0,0.0,1.5505,1.6007,1.6375,1.6488,1.65,1.65,1.65,1.65,1.65,1.65,1.6595,1.6837,1.7271,1.7807,1.8302,1.8708,1.9244,1.9548,1.9548,1.9639,1.9708,1.9708,1.9708,1.9708,1.9708,1.9708,0.0,1.9708,1.9708,1.9708,1.9708,1.9708,1.9708,1.9708,1.9708,1.9639,1.946,1.8593,1.8204,1.8106,1.8106,1.8322,1.8535,1.8106,1.8165,1.8361,1.7927,1.7867,1.7947,1.7947,1.8263,0.0,1.8066,1.8263,1.8593,1.8593,1.8361,1.8185,1.8516,1.8263,1.7947,1.7947,1.7947,1.7987,1.8086,1.8027,1.7807,1.7374,1.6858,1.65,1.65,1.65,1.65,1.65,1.65,1.65,1.65,1.65,1.65,1.65,1.6019,1.5663,1.5563,1.5035,1.4683,1.4582,1.4569,1.4833,1.5388,1.5388,1.5441,1.5546,1.5546,1.5587,1.5685,1.4714,1.4891,0.0,0.0,0.0,0.0,0.0,0.0,0.0,0.0,0.0,0.0,0.0,1.3708,1.4423,0.0,1.5781,1.607,1.6333,1.65,1.65,1.65,1.65,1.65,1.65,1.65,1.65,1.6731,1.7013,1.7271,1.8046,1.8612,1.8893,1.9406,1.9708,1.9708,1.9708,1.9708,1.9708,1.9708,1.9708,1.9708,1.9708,1.9708,1.9708,1.9708,1.9708,1.9708,1.9708,1.9708,1.9708,1.9708,1.9708,1.9639,1.9114,1.8893,1.8893,1.8893,1.8893,1.8855,1.8593,1.8496,1.8458,1.8204,1.8283,1.8496,1.8496,1.8688,1.8836,1.8574,1.8688,1.8893,1.8893,1.8893,1.8893,1.8893,1.8688,1.8496,1.8496,1.8496,1.8496,1.8496,1.8496,1.8341,1.7787,1.7483,1.7105,1.6573,1.65,1.65,1.65,1.65,1.65,1.65,1.6731,1.6795,1.6522,1.6019,1.5924,1.6474,1.5485,1.5018,1.5291,1.5297,1.554,1.6082,1.6364,1.6625,1.6905,1.6905,1.7035,1.73,1.675,1.6636,0.0,0.0,0.0,0.0,0.0,0.0,0.0,0.0,1.3386,1.3819,1.4004,1.4338,1.5141,1.5595,1.6007,1.6425,1.65,1.65,1.65,1.65,1.65,1.65,1.65,1.65,1.65,1.6993,1.7353,1.7442,1.8361,1.8949,1.9043,1.946,1.9708,1.9708,1.9708,1.9708,1.9708,1.9708,1.9708,1.9708,1.9708,1.9708,1.9708,1.9708,1.9708,1.9708,1.9708,1.9708,1.9708,1.9708,1.9708,1.9708,1.9708,1.9708,1.9708,1.9708,1.9424,1.9062,1.9062,1.8851,1.8574,1.8461,1.8774,1.9217,1.9087,1.9062,1.9062,1.9062,1.9062,1.9062,1.9062,1.9387,1.9584,1.9169,1.9062,1.9062,1.9062,1.9062,1.9062,1.9062,1.9062,1.8893,1.8361,1.8263,1.7927,1.6951,1.6816,1.6816,1.6816,1.671,1.6689,1.6795,1.7097,1.7126,1.6701,1.6262,1.6387,1.7241,1.6177,1.5717,1.6139,1.6177,1.6424,1.6971,1.7393,1.7819,1.8263,1.8263,1.8419,1.8727,1.8302,1.7987,1.4068,1.3437,1.3111,1.3271,1.3631,1.4306,0.0,0.0,1.5507,1.6036,1.6148,1.6186,1.6311,1.6378,1.6425,1.6488,1.65,1.65,1.65,1.65,1.65,1.65,1.65,1.65,1.65,1.6993,1.7504,1.7967,1.8554,1.9114,1.9584,1.9672,1.9708,1.9708,1.9708,1.9708,1.9708,1.9708,1.9708,1.9708,1.9708,1.9708,1.9708,1.9708,1.9708,1.9708,1.9708,1.9708,1.9708,1.9708,1.9708,1.9708,1.9708,1.9708,1.9708,1.9708,1.9657,1.9603,1.9603,1.9968,2.0313,1.9723,1.9949,2.0389,1.9781,1.9603,1.9603,1.9603,1.9603,1.9603,1.9603,1.9657,1.969,1.9621,1.9603,1.9603,1.9603,1.9603,1.9603,1.9603,1.9603,1.9442,1.8893,1.8817,1.8612,1.8007,1.7927,1.7927,1.7927,1.7504,1.7394,1.7867,1.7544,1.7271,1.7209,1.7156,1.7179,1.7288,1.7584,1.7761,1.782,1.782,1.8082,1.8627,1.8683,1.8764,1.8817,1.8817,1.8593,1.8204,1.8145,1.8574,1.5627,1.5316,1.5056,0.0,1.5142,1.558,1.5957,1.6107,1.6233,1.645,1.65,1.65,1.65,1.65,1.65,0.0,1.65,1.65,1.65,1.65,1.65,1.65,1.65,1.65,1.65,1.6689,1.7055,1.7585,1.8145,1.8669,1.9207,1.953,1.9708,1.9708,1.9708,1.9708,1.9708,1.9708,1.9708,1.9708,1.9708,1.9708,1.9708,1.9708,1.9899,2.0288,2.0288,2.0498,2.0857,2.0857,2.0857,2.0827,2.0438,2.0288,2.0228,1.9824,1.9962,2.0288,2.0288,2.0722,2.1171,2.0498,2.0483,2.0569,1.9884,1.9708,1.9708,1.9708,1.9708,1.9708,1.9708,1.9708,1.9708,1.9708,1.9708,1.9708,1.9708,1.9708,1.9603,1.9299,1.9479,1.953,1.8987,1.9169,1.9281,1.9062,1.8496,1.8106,1.8106,1.7907,1.7967,1.8516,1.7807,1.7544,1.8185,1.7666,1.7565,1.8204,1.8165,1.8243,1.8554,1.8574,1.8669,1.8893,1.9207,1.9369,1.9369,1.9369,1.9244,1.9024,1.9024,1.9262,1.6333,0.0,0.0,1.5831,1.6107,1.6387,1.6019,1.6233,1.65,1.65,1.65,1.65,1.65,1.65,1.65,1.65,1.65,1.65,1.65,1.65,1.65,1.65,1.65,1.65,1.65,1.6637,1.693,1.7483,1.8027,1.8554,1.9095,1.9479,1.9708,1.9708,1.9708,1.9708,1.9708,1.9708,1.9708,1.9708,1.9902,1.9887,1.9708,1.9708,2.0064,2.0703,2.0703,2.1081,2.1695,2.1695,2.1695,2.165,2.1171,2.0991,2.0932,2.0423,2.0438,2.0718,2.0897,2.141,2.1879,2.1201,2.1111,2.1126,2.0438,2.0109,1.9974,1.9974,1.9824,1.9708,1.9708,1.9708,1.9708,1.9708,1.9708,1.9708,1.9708,1.9708,1.9584,1.9207,1.9424,1.9584,1.9188,1.9442,1.9708,1.9708,1.9043,1.8535,1.8535,1.8535,1.8631,1.8874,1.8204,1.8066,1.8836,1.8204,1.8066,1.8855,1.8669,1.8708,1.9114,1.9132,1.9132,1.9132,1.9497,1.9708,1.9708,1.9708,1.9708,1.9708,1.9708,1.9708,0.0,0.0,1.6362,1.5831,1.6107,1.6488,1.6475,1.6488,1.65,1.65,1.65,1.65,1.65,1.65,1.65,1.65,1.65,1.65,1.65,1.65,1.65,1.65,1.65,1.65,0.0,1.6972,1.7504,1.8046,1.8574,1.9114,1.9639,1.969,1.9708,1.9708,1.9708,1.9708,1.9708,1.9708,1.9708,1.9708,2.0363,2.0333,1.9708,1.9708,2.0064,2.0703,2.0703,2.1081,2.1695,2.1695,2.1695,2.1695,2.168,2.1665,2.1665,2.165,2.1246,2.0778,2.144,2.2119,2.2568,2.1874,2.2119,2.2508,2.1829,2.1201,2.0658,2.0658,2.0198,1.9708,1.9708,1.9708,1.9708,1.9708,1.9708,1.9708,1.9708,1.9708,1.9708,1.969,1.969,1.969,1.969,1.969,1.9708,1.9708,1.9672,1.9639,1.9639,1.9639,1.946,1.8949,1.8874,1.8855,1.8893,1.8874,1.8874,1.8893,1.9369,1.9657,1.969,1.969,1.969,1.969,1.969,1.9708,1.9708,1.9708,1.9708,1.9708,1.9708,1.9708,1.6283,0.0,1.645,1.6283,1.6384,1.65,1.65,1.65,1.65,1.65,1.65,1.65,1.65,1.65,1.65,1.65,1.65,1.65,1.65,1.65,1.65,1.65,1.6816,0.0,0.0,0.0,0.0,1.8066,1.8593,1.9132,1.9672,1.9708,1.9708,1.9708,1.9708,1.9708,1.9708,1.9708,1.9708,1.9708,2.0378,2.0348,1.9723,2.0154,2.0498,2.0703,2.0703,2.1335,2.2358,2.2358,2.2613,2.2921,2.2523,2.2358,2.2358,2.2358,2.2224,2.2074,2.2298,2.2778,2.3176,2.2583,2.2523,2.2568,2.1889,2.1231,2.0703,2.0703,2.0228,1.9708,1.9708,1.9708,1.9708,1.9708,1.9708,1.9708,1.9708,1.9708,1.9708,1.9708,1.9708,1.9708,1.9708,1.9708,1.9708,1.9708,1.9708,1.9708,1.9708,1.9708,1.9621,1.9442,1.9114,1.8893,1.8893,1.8893,1.8893,1.8893,1.9406,1.9708,1.9708,1.9708,1.9708,1.9708,1.9708,1.9708,1.9708,1.9708,1.9708,1.9708,1.9708,1.9708,1.6773,1.6823,1.6873,1.7074,1.7124,1.7124,1.7124,1.6974,1.6823,1.6823,1.6638,1.65,1.65,1.65,1.65,1.65,1.65,1.65,1.65,1.65,1.65,1.65,1.6795,1.6879,0.0,0.0,0.0,1.8066,1.8593,1.9132,1.9672,1.9708,1.9708,1.9708,1.9708,1.9708,1.9708,1.9708,1.9828,2.0064,2.0737,2.0827,2.0427,2.0617,2.0957,2.1395,2.1171,2.1799,2.3032,2.3032,2.3236,2.3565,2.3182,2.3032,2.3032,2.3032,2.3032,2.3032,2.3032,2.3287,2.3535,2.3152,2.3032,2.2942,2.2503,2.1754,2.1066,2.1066,2.0393,1.9708,1.9708,1.9708,1.9708,1.9708,1.9708,1.9708,1.9708,1.9708,1.9708,1.9708,1.9708,1.9708,1.9708,1.9708,1.9708,1.9708,1.9708,1.9708,1.9708,1.9708,1.9708,1.9708,1.9387,1.9188,1.9188,1.9188,1.9188,1.9188,1.9512,1.9708,1.9708,1.9708,1.9708,1.9708,1.9708,1.9708,1.9708,1.9708,1.9708,1.9708,1.9708,1.9708,1.7285,1.7448,1.7574,1.8078,1.8179,1.8166,1.8166,1.7739,1.736,1.736,1.6898,1.65,0.0,0.0,1.65,1.65,1.65,1.65,1.65,1.65,1.65,0.0,0.0,0.0,0.0,0.0,0.0,1.8027,0.0,1.9132,1.9672,1.9708,1.9708,1.9708,1.9708,1.9708,1.9708,1.9708,2.0019,2.0658,2.1365,2.1665,2.1575,2.1002,2.1425,2.2568,2.1939,2.2368,2.355,2.355,2.3565,2.3595,2.3595,2.3595,2.3595,2.3595,2.3595,2.3595,2.3595,2.3595,2.3595,2.3595,2.3595,2.3595,2.3595,2.2727,2.1739,2.1739,2.0816,1.9813,1.9813,1.9783,1.9768,1.9798,1.9783,1.9768,1.9798,1.9813,1.9798,1.9768,1.9723,1.9708,1.9708,1.9708,1.9708,1.9708,1.9708,1.9708,1.9708,1.9708,1.9708,1.9708,1.9708,1.9708,1.9708,1.9708,1.9708,1.9708,1.9708,1.9708,1.9708,1.9708,1.9708,1.9708,1.9708,1.9708,1.9708,1.9708,1.9708,1.9708,1.9708,1.9708,1.784,1.8003,1.8028,1.8179,1.789,1.7612,1.7612,1.7149,1.6735,1.6735,1.66,1.65,0.0,0.0,0.0,1.65,1.65,0.0,1.65,1.65,0.0,1.65,0.0,1.693,1.6531,1.7353,0.0,0.0,1.838,1.9132,1.9672,1.9708,1.9708,1.9708,1.9708,1.9708,1.9708,1.9708,1.9798,1.9959,2.1141,2.1171,2.0247,2.1066,2.1365,2.1201,2.1036,2.171,2.2927,2.2927,2.3176,2.3595,2.3595,2.3595,2.3595,2.3595,2.3595,2.3595,2.3595,2.3595,2.3595,2.3595,2.3595,2.3595,2.3595,2.3056,2.2448,2.2448,2.1849,2.1186,2.1186,2.0827,2.0572,2.1066,2.0812,2.0587,2.1081,2.1186,2.1036,2.0543,2.0034,1.9708,1.9708,1.9708,1.9708,1.9708,1.9708,1.9708,1.9708,1.9708,1.9708,1.9708,1.9708,1.9708,1.9708,1.9708,1.9708,1.9708,1.9708,1.9708,1.9708,1.9708,1.9708,1.9708,1.9708,1.9708,1.9708,1.9708,1.9708,1.9708,1.9708,1.9708,1.8417,1.8544,1.8618,1.8844,1.8505,1.8103,1.8103,1.7476,1.6898,1.6898,1.6685,0.0,0.0,0.0,0.0,0.0,0.0,0.0,1.65,1.65,1.65,0.0,1.6774,0.0,1.6858,1.7167,1.7565,0.0,1.8554,1.9024,1.9332,1.9566,1.9708,1.9708,1.9708,1.9708,1.9708,1.9989,1.9989,1.9723,2.1051,2.1141,2.0168,2.0917,2.138,2.156,2.1276,2.1874,2.3092,2.3092,2.3281,2.3595,2.3595,2.3595,2.3595,2.3595,2.3595,2.3595,2.3595,2.3595,2.3595,2.3595,2.3595,2.3595,2.3595,2.3176,2.2703,2.2703,2.2224,2.1695,2.1695,2.1425,2.1231,2.1605,2.141,2.1246,2.162,2.147,2.1066,2.0393,1.9944,1.9708,1.9708,1.9708,1.9708,1.9708,1.9708,1.9708,1.9708,1.9708,1.9708,1.9708,1.9708,1.9708,1.9708,1.9708,1.9708,1.9708,1.9708,1.9708,1.9708,1.9708,1.9708,1.9708,1.9708,1.9708,1.9708,1.9708,1.9708,1.9708,1.9708,1.9708,1.8958,1.9108,1.9221,1.9685,1.9334,1.8895,1.8895,1.8003,1.7172,1.7172,0.0,1.6237,1.5781,1.6145,1.6337,1.5881,0.0,1.65,1.65,1.65,1.65,1.65,1.65,1.668,1.7146,1.6837,1.7167,1.8574,1.8817,1.893,1.9006,1.9442,1.9708,1.9708,1.9708,1.9708,1.9708,2.0288,2.0288,1.9723,2.0961,2.1216,2.0554,2.0658,2.138,2.2538,2.1934,2.2413,2.3595,2.3595,2.3595,2.3595,2.3595,2.3595,2.3595,2.3595,2.3595,2.3595,2.3595,2.3595,2.3595,2.3595,2.3595,2.3595,2.3595,2.3221,2.2823,2.2823,2.2403,2.1949,2.1949,2.1889,2.1844,2.1934,2.1889,2.1844,2.1934,2.144,2.0797,2.0217,2.0037,1.9947,1.9857,1.9842,1.9813,1.9708,1.9708,1.9708,1.9708,1.9708,1.9708,1.9708,1.9708,1.9708,1.9708,1.9708,1.9708,1.9708,1.9708,1.9708,1.9708,1.9708,1.9708,1.9708,1.9708,1.9708,1.9708,1.9708,1.9708,1.9708,1.9708,1.9708,1.9522,1.966,1.9685,1.9773,1.907,1.8342,1.8342,1.7124,0.0,0.0,0.0,1.5806,1.5718,1.6145,1.6463,1.6375,0.0,0.0,0.0,0.0,1.65,0.0,0.0,0.0,0.0,0.0,0.0,0.0,1.84,1.9095,1.9548,1.9639,1.9708,1.9708,1.9708,1.9708,1.9708,1.9828,1.9828,1.9708,2.0498,2.0528,1.9902,2.0453,2.1141,2.1879,2.1739,2.2413,2.3595,2.3595,2.3595,2.3595,2.3595,2.3595,2.3595,2.3595,2.3595,2.3595,2.3595,2.3595,2.3595,2.3595,2.3595,2.3595,2.3595,2.3535,2.343,2.343,2.3355,2.3266,2.3266,2.2912,2.2658,2.3146,2.2897,2.2658,2.3161,2.2793,2.2328,2.2209,2.1744,2.1171,2.0632,2.0543,2.0348,1.9765,1.9708,1.9708,1.9708,1.9708,1.9708,1.9708,1.9708,1.9708,1.9708,1.9708,1.9708,1.9708,1.9708,1.9708,1.9708,1.9708,1.9708,1.9708,1.9708,1.9708,1.9708,1.9708,1.9708,1.9708,1.9708,1.9708,1.9736,1.9798,1.9736,1.9434,1.8794,1.8129,1.784,0.0,0.0,0.0,0.0,1.5198,1.4928,0.0,0.0,0.0,0.0,0.0,0.0,0.0,0.0,0.0,0.0,0.0,0.0,0.0,1.7524,1.8086,1.8612,1.9006,1.9262,1.9548,1.9708,1.9708,1.9708,1.9872,2.0228,1.9869,2.0052,2.0741,2.0703,2.0524,2.0243,2.0917,2.1395,2.1724,2.2054,2.2742,2.3595,2.3595,2.3595,2.3595,2.3595,2.3595,2.3595,2.3595,2.3595,2.3595,2.3595,2.3595,2.3595,2.3595,2.3595,2.3595,2.3595,2.3595,2.3595,2.3595,2.3595,2.3595,2.3595,2.3385,2.3236,2.3535,2.337,2.3167,2.3152,2.2897,2.2598,2.2254,2.1919,2.1605,2.1276,2.1231,2.1111,2.0782,2.0741,2.0741,2.0741,2.0741,2.0468,1.9768,1.9708,1.9708,1.9708,1.9708,1.9708,1.9708,1.9708,1.9708,1.9708,1.9708,1.9708,1.9708,1.9708,1.9708,1.9708,1.9708,1.9708,1.9708,1.9708,1.9902,1.9773,1.9798,1.9673,1.9133,1.8594,1.8053,1.7524,1.6443,0.0,0.0,1.5097,1.4601,1.4191,0.0,0.0,0.0,0.0,0.0,0.0,0.0,0.0,0.0,0.0,0.0,0.0,0.0,0.0,1.9034,1.9354,1.9367,1.9091,1.9609,1.9899,1.9899,2.0052,2.0378,2.0897,2.0378,2.0666,2.168,2.1171,2.0897,2.0927,2.1455,2.1769,2.1934,2.2478,2.3047,2.3595,2.3595,2.3595,2.3595,2.3595,2.3595,2.3595,2.3595,2.3595,2.3595,2.3595,2.3595,2.3595,2.3595,2.3595,2.3595,2.3595,2.3595,2.3595,2.3595,2.3595,2.3595,2.3595,2.3595,2.3595,2.3595,2.3595,2.346,2.3002,2.2897,2.2748,2.2203,2.2099,2.2069,2.1934,2.1904,2.1879,2.1724,2.1695,2.1695,2.1695,2.1695,2.1291,2.0247,2.0127,2.0127,2.0127,2.0127,2.0127,2.0127,2.0127,2.0067,1.9914,1.9899,1.9857,1.9708,1.9708,1.9708,1.9708,1.9708,1.9708,1.9708,1.9857,2.0198,1.9673,1.9798,1.9673,1.9133,1.8594,1.8053,1.7524,0.0,0.0,1.4959,1.4551,1.4166,1.4116,0.0,0.0,0.0,0.0,1.5944,0.0,0.0,0.0,0.0,0.0,0.0,0.0,0.0,0.0,1.9715,2.082,2.0919,1.9695,2.0236,2.0598,2.0598,2.1201,2.1545,2.1605,2.1545,2.1575,2.1695,2.1635,2.1605,2.1605,2.1665,2.2024,2.2613,2.2673,2.3047,2.3595,2.3595,2.3595,2.3595,2.3595,2.3595,2.3595,2.3595,2.3595,2.3595,2.3595,2.3595,2.3595,2.3595,2.3595,2.3595,2.3595,2.3595,2.3595,2.3595,2.3595,2.3595,2.3595,2.3595,2.3595,2.3595,2.3595,2.358,2.3535,2.352,2.349,2.343,2.343,2.3251,2.2703,2.2613,2.2403,2.1784,2.1695,2.1695,2.1695,2.1695,2.165,2.1515,2.1515,2.1515,2.1515,2.1515,2.1515,2.1515,2.1515,2.1246,2.0628,2.0598,2.0318,1.9708,1.9708,1.9708,1.9708,1.9708,1.9708,1.9708,2.0318,2.0643,1.9259,1.956,1.9597,1.8719,1.8367,1.7965,1.7061,0.0,1.4896,1.4896,1.4192,1.3559,1.3559,1.4029,0.0,0.0,0.0,0.0,0.0,0.0,0.0,0.0,0.0,0.0,0.0,0.0,1.9709,2.0883,2.1425,2.1455,2.0917,2.1156,2.1306,2.1306,2.156,2.1889,2.2298,2.1889,2.2084,2.2832,2.2493,2.2298,2.2313,2.2682,2.2793,2.2718,2.3092,2.337,2.3595,2.3595,2.3595,2.3595,2.3595,2.3595,2.3595,2.3595,2.3595,2.3595,2.3595,2.3595,2.3595,2.3595,2.3595,2.3595,2.3595,2.3595,2.3595,2.3595,2.3595,2.3595,2.3595,2.3595,2.3595,2.3595,2.3595,2.3595,2.3595,2.3595,2.3595,2.3595,2.3595,2.352,2.3266,2.3236,2.3146,2.2877,2.2832,2.2832,2.2832,2.2832,2.2832,2.2832,2.2158,2.1695,2.1695,2.1695,2.1695,2.1695,2.1695,2.1575,2.1321,2.1306,2.1186,2.0902,2.0887,2.0707,2.0303,2.0707,2.0692,2.0318,2.0991,2.1515,1.8719,1.9045,1.9108,1.8191,1.7953,1.7702,0.0,1.5668,1.4896,1.4896,1.3998,1.3198,1.3198,1.369,1.4292,0.0,0.0,1.5881,0.0,0.0,0.0,0.0,0.0,0.0,0.0,1.9875,2.1083,2.194,2.2161,2.2263,2.2263,2.2263,2.2173,2.1994,2.2158,2.2493,2.2957,2.2488,2.2712,2.3595,2.3182,2.2972,2.2987,2.34,2.3355,2.3002,2.3415,2.3595,2.3595,2.3595,2.3595,2.3595,2.3595,2.3595,2.3595,2.3595,2.3595,2.3595,2.3595,2.3595,2.3595,2.3595,2.3595,2.3595,2.3595,2.3595,2.3595,2.3595,2.3595,2.3595,2.3595,2.3595,2.3595,2.3595,2.3595,2.3595,2.3595,2.3595,2.3595,2.3595,2.3595,2.3595,2.3595,2.3595,2.3595,2.3595,2.3595,2.3595,2.3595,2.3595,2.3595,2.3595,2.2802,2.2263,2.2263,2.2263,2.2263,2.2263,2.2263,2.2173,2.1994,2.1994,2.1889,2.1695,2.1695,2.147,2.1006,2.147,2.1455,2.1002,2.168,2.2343,1.8066,1.8216,1.8091,1.7549,1.741,1.726,0.0,1.5668,1.4896,1.4896,1.3998,1.3198,1.3198,1.369,1.4292,1.4815,0.0,0.0,0.0,0.0,0.0,0.0,0.0,0.0,1.8909,2.1257,2.268,2.268,2.3238,0.0,2.358,2.358,2.3295,2.2703,2.3266,2.358,2.3595,2.358,2.3595,2.3595,2.3595,2.3595,2.3595,2.3595,2.3595,2.3595,2.3595,2.3595,2.3595,2.3595,2.3595,2.3595,2.3595,2.3595,2.3595,2.3595,2.3595,2.3595,2.3595,2.3595,2.3595,2.3595,2.3595,2.3595,2.3595,2.3595,2.3595,2.3595,2.3595,2.3595,2.3595,2.3595,2.3595,2.3595,2.3595,2.3595,2.3595,2.3595,2.3595,2.3595,2.3595,2.3595,2.3595,2.3595,2.3595,2.3595,2.3595,2.3595,2.3595,2.3595,2.3595,2.3595,2.3595,2.358,2.358,2.358,2.358,2.358,2.358,2.331,2.2703,2.2688,2.2388,2.171,2.1695,2.1695,2.168,2.1695,2.1695,2.1695,2.2388,2.3017,1.7624,1.7915,1.8078,1.7513,1.741,1.7247,1.6647,1.5668,1.4896,1.4896,1.3998,1.3198,1.3198,1.3366,1.3797,1.4765,1.5035,0.0,0.0,0.0,0.0,0.0,0.0,0.0,0.0,0.0,2.3312,2.3312,2.3486,2.3595,2.3595,2.3595,2.3505,2.331,2.349,2.3595,2.3595,2.3595,2.3595,2.3595,2.3595,2.3595,2.3595,2.3595,2.3595,2.3595,2.3595,2.3595,2.3595,2.3595,2.3595,2.3595,2.3595,2.3595,2.3595,2.3595,2.3595,2.3595,2.3595,2.3595,2.3595,2.3595,2.3595,2.3595,2.3595,2.3595,2.3595,2.3595,2.3595,2.3595,2.3595,2.3595,2.3595,2.3595,2.3595,2.3595,2.3595,2.3595,2.3595,2.3595,2.3595,2.3595,2.3595,2.3595,2.3595,2.3595,2.3595,2.3595,2.3595,2.3595,2.3595,2.3595,2.3595,2.3595,2.3595,2.3595,2.3595,2.3595,2.3595,2.3505,2.331,2.331,2.3206,2.2996,2.2996,2.2808,2.2388,2.2808,2.2996,2.2996,2.3206,2.3415,0.0,1.73,1.7488,1.7137,1.7049,1.6911,1.6333,1.5517,1.4833,1.4639,1.3848,1.3198,1.3198,1.3391,1.3835,1.4745,1.506,0.0,0.0,0.0,0.0,0.0,0.0,0.0,0.0,2.312,2.3595,2.3595,2.3595,2.3595,2.3595,2.3595,2.3595,2.3595,2.3595,2.3595,2.3595,2.3595,2.3595,2.3595,2.3595,2.3595,2.3595,2.3595,2.3595,2.3595,2.3595,2.3595,0.0,2.3595,2.3595,2.3595,2.3595,2.3595,2.3595,2.3595,2.3595,2.3595,2.3595,2.3595,2.3595,2.3595,2.3443,2.3312,2.353,2.3595,2.3595,2.3595,2.3595,2.3595,2.3595,2.3595,2.3595,2.3595,2.3595,2.3595,2.3595,2.3595,2.3595,2.3595,2.3595,2.3595,2.3595,2.3595,2.3595,2.3595,2.3595,2.3595,2.3595,2.3595,2.3595,2.3595,2.3595,2.3595,2.3595,2.3595,2.3595,2.3595,2.3595,2.3595,2.3595,2.3595,2.3595,2.3595,2.3595,2.3415,2.3047,2.3415,2.3595,2.3595,2.3595,2.3595,0.0,1.65,1.65,1.65,1.65,1.635,1.5819,1.5286,0.0,1.4217,1.3609,1.321,1.3248,1.3727,1.4286,1.4865,0.0,0.0,0.0,0.0,0.0,0.0,2.0928,0.0,2.2026,2.2978,2.3595,2.3595,2.3595,2.3595,2.3595,2.3595,2.3595,2.3595,2.3595,2.3595,2.3595,2.3595,2.3595,2.3595,2.3595,2.3595,2.3595,2.3595,2.3595,2.3595,2.3595,2.3595,2.3595,2.3595,2.3595,2.3595,2.3595,2.3595,2.3595,2.3595,2.3595,2.3595,2.3595,2.3573,2.353,2.353,2.3143,2.2807,2.3421,2.3573,2.3551,2.3595,2.3595,2.3595,2.3595,2.3595,2.3595,2.3595,2.3595,2.3595,2.3595,2.3595,2.3595,2.3595,2.3595,2.3595,2.3595,2.364,2.367,2.367,2.3714,2.3744,2.3744,2.3744,2.3729,2.3684,2.367,2.3655,2.3595,2.3595,2.3595,2.3595,2.3595,2.3595,2.3595,2.3595,2.3595,2.3595,2.3595,2.3595,2.3595,2.3595,2.3595,2.3595,2.3595,2.3595,1.65,0.0,1.65,1.65,1.65,1.635,0.0,1.5286,1.4752,1.4217,0.0,0.0,1.379,1.3997,1.4412,0.0,0.0,0.0,0.0,0.0,0.0,2.1657,2.2644,2.3198,2.3198,2.344,2.3595,2.3595,2.3595,2.3595,2.3595,2.3595,2.3595,2.3595,2.3595,2.3595,2.3595,2.3595,2.3595,2.3595,2.3595,2.3595,2.3595,2.3595,2.3595,2.3595,2.3595,2.3595,2.3595,2.3595,2.3595,2.3595,2.3595,2.3595,2.3595,2.3595,2.3595,2.3595,2.3595,2.3312,2.292,2.292,2.2807,2.2807,2.3421,2.329,2.3009,2.3465,2.3595,2.3595,2.3595,2.3595,2.3595,2.3595,2.3595,2.3595,2.3595,2.3595,2.3595,2.3595,2.3595,2.3595,2.3595,2.4044,2.4365,2.4365,2.4799,2.5136,2.5136,2.5136,2.4941,2.441,2.4365,2.4156,2.364,2.3595,2.3595,2.3595,2.3595,2.3595,2.3595,2.3595,2.3595,2.3595,2.3595,2.3595,2.3595,2.3595,2.3595,2.3595,2.3595,2.3595,1.6132,1.63,1.65,1.65,1.63,1.5994,1.5462,0.0,0.0,0.0,0.0,0.0,0.0,0.0,0.0,0.0,1.5693,0.0,0.0,0.0,0.0,2.2505,2.3231,2.3595,0.0,2.3595,2.3595,2.3595,2.3595,2.3595,2.3595,2.3595,2.3595,2.3595,2.3595,2.3595,2.3595,2.3595,2.3595,2.3595,2.3595,2.3595,2.3595,2.3595,2.3595,2.3595,2.3595,2.3595,2.3595,2.3595,2.3595,2.3595,2.3595,2.3595,2.3595,2.3595,2.3595,2.3551,2.3275,2.2965,2.2754,2.3009,2.2934,2.2807,2.3421,2.3179,2.283,2.3421,2.3595,2.3595,2.3595,2.3595,2.3595,2.3595,2.3595,2.3595,2.3595,2.3595,2.3595,2.3595,2.3849,2.4073,2.4073,2.4605,2.5053,2.5053,2.5375,2.5615,2.5615,2.5615,2.5457,2.5098,2.5053,2.4903,2.4552,2.4522,2.4268,2.364,2.3595,2.3595,2.3595,2.3595,2.3595,2.3595,2.3595,2.3595,2.3595,2.3595,2.3595,2.3595,2.3595,2.3759,1.5793,1.6095,1.6375,1.6375,1.6107,1.568,1.5148,0.0,0.0,0.0,0.0,0.0,0.0,1.4337,0.0,0.0,0.0,0.0,1.9226,2.0023,2.0995,2.2655,2.329,0.0,2.3595,2.3595,2.3595,2.3595,2.3595,2.3595,2.3595,2.3595,2.3595,2.3595,2.3595,2.3595,2.3595,2.3595,2.3595,2.3595,2.3595,2.3595,2.3595,2.3595,2.3595,2.3595,2.3595,2.3595,2.3595,2.3595,2.3595,2.3595,2.3595,2.3595,2.3595,2.3508,2.3508,2.3508,2.2897,2.2694,2.2785,2.3312,2.3135,2.2807,2.3421,2.3305,2.3102,2.3606,2.3759,2.3759,2.3759,2.3834,2.3879,2.3789,2.3834,2.3849,2.364,2.3759,2.3879,2.3774,2.4291,2.4754,2.4754,2.5307,2.5749,2.5749,2.5839,2.5914,2.5914,2.5914,2.5869,2.5764,2.5749,2.5719,2.5615,2.5615,2.5121,2.3984,2.3909,2.3909,2.3909,2.3804,2.3759,2.3759,2.3849,2.3849,2.3759,2.3864,2.3909,2.3909,2.3909,2.4223,1.6237,1.612,1.5819,1.5819,1.6107,1.6245,1.5693,0.0,0.0,0.0,0.0,0.0,0.0,1.5462,1.5805,0.0,0.0,1.926,0.0,0.0,2.2084,2.331,0.0,2.3595,2.3595,2.3595,2.3595,2.3595,2.3595,2.3595,2.3595,2.3595,2.3595,2.3595,2.3595,2.3595,2.3595,2.3595,2.3595,2.3595,2.3595,2.3595,2.3595,2.3595,2.3595,2.3595,2.3595,2.3595,2.3595,2.3595,2.3595,2.3595,2.3595,2.3595,2.353,2.3046,2.3143,2.3508,2.2897,2.2694,2.2717,2.2807,2.2777,2.2807,2.3421,2.3933,2.4328,2.4418,2.4455,2.4455,2.4455,2.4859,2.5151,2.4575,2.4874,2.4986,2.3849,2.4492,2.5136,2.456,2.4978,2.5442,2.5442,2.6004,2.6437,2.6437,2.6941,2.7285,2.7285,2.7285,2.7091,2.6497,2.6437,2.6213,2.5659,2.5615,2.5501,2.5315,2.53,2.53,2.53,2.4739,2.4455,2.4455,2.4993,2.5008,2.4455,2.5008,2.53,2.53,2.53,2.536,1.5211,1.5236,1.5273,1.5273,1.5668,1.6007,1.5756,0.0,0.0,0.0,0.0,0.0,0.0,0.0,1.7151,1.8573,0.0,2.0175,2.1693,2.1903,2.233,0.0,0.0,2.3595,2.3595,2.3595,2.3595,2.3595,2.3595,2.3595,2.3595,2.3595,2.3595,2.3595,2.3595,2.3595,2.3595,2.3595,2.3595,2.3595,2.3595,2.3595,2.3595,2.3595,2.3595,2.3595,2.3595,2.3595,2.3595,2.3595,2.3595,2.3595,2.3595,2.3595,2.3596,2.3703,2.3708,2.3715,2.4128,2.406,2.3835,2.4153,2.4261,2.4307,2.4596,2.4911,2.5128,2.5128,2.5128,2.5128,2.5128,2.5367,2.5516,2.5202,2.5367,2.5435,2.4822,2.5166,2.5501,2.5187,2.5689,2.6138,2.6138,2.6692,2.7151,2.7151,2.7405,2.76,2.76,2.76,2.748,2.718,2.7151,2.7031,2.6692,2.6686,2.6363,2.5659,2.5615,2.5615,2.5615,2.5292,2.5128,2.5128,2.545,2.5442,2.5128,2.5442,2.5615,2.5615,2.5615,2.5794,1.4551,1.4689,1.4921,1.5047,0.0,1.5881,1.5881,0.0,0.0,0.0,0.0,0.0,0.0,1.699,0.0,2.0013,2.0521,2.1084,2.2149,2.2294,2.2621,2.3492,2.3595,2.3595,2.3595,2.3595,2.3595,2.3595,2.3595,2.3595,2.3595,2.3595,2.3595,2.3595,2.3595,2.3595,2.3595,2.3595,2.3595,2.3595,2.3595,2.3595,2.3595,2.3595,2.3595,2.3595,2.3595,2.3595,2.3595,2.3595,2.3595,2.3595,2.3595,2.3508,2.3459,2.4127,2.4078,2.3858,2.4972,2.5183,2.4985,2.5458,2.5482,2.5373,2.5553,2.5586,2.561,2.5792,2.5959,2.6033,2.5869,2.5959,2.6033,2.5869,2.5959,2.5989,2.5674,2.5854,2.6019,2.5869,2.6378,2.6811,2.6811,2.727,2.76,2.76,2.76,2.76,2.76,2.76,2.76,2.76,2.76,2.76,2.76,2.76,2.7165,2.6138,2.5779,2.5749,2.6063,2.5914,2.5839,2.5839,2.5989,2.5989,2.5839,2.5989,2.6063,2.6063,2.6063,2.6333,1.5462,1.5248,1.5009,1.5525,1.6057,0.0,1.6437,1.64,0.0,1.6375,0.0,0.0,0.0,1.7847,1.9384,2.0645,2.1783,2.2733,2.3402,0.0,2.3507,2.3595,2.3595,2.3595,2.3595,2.3595,2.3595,2.3595,2.3595,2.3595,2.3595,2.3595,2.3595,2.3595,2.3595,2.3595,2.3595,2.3595,2.3595,2.3595,2.3595,2.3595,2.3595,2.3595,2.3595,2.3595,2.3595,2.3595,2.3595,2.3595,2.3595,2.3595,2.3595,2.3268,2.2844,2.3459,2.3688,2.3786,2.4468,2.5045,2.5529,2.5591,2.5143,2.4703,2.5373,2.557,2.5662,2.6342,2.6986,2.7315,2.6701,2.7001,2.73,2.6686,2.7001,2.7121,2.5869,2.6572,2.727,2.6632,2.7076,2.7525,2.7525,2.757,2.76,2.76,2.76,2.76,2.76,2.76,2.76,2.76,2.76,2.76,2.76,2.76,2.7555,2.7465,2.6288,2.6153,2.7405,2.6866,2.6512,2.6512,2.7151,2.7151,2.6512,2.7151,2.745,2.745,2.745,2.748,1.4739,1.4796,1.4947,1.5148,1.5856,0.0,0.0,1.6798,1.7049,1.7049,1.7622,0.0,0.0,0.0,2.0608,2.181,2.2727,2.3325,2.3565,2.3595,2.3595,2.3595,2.3595,2.3595,2.3595,2.3595,2.3595,2.3595,2.3595,2.3595,2.3595,2.3595,2.3595,2.3595,2.3595,2.3595,2.3595,2.3595,2.3595,2.3595,2.3595,2.3595,2.3595,2.3595,2.3595,2.3595,2.3595,2.3595,2.3595,2.3595,2.3595,2.3595,2.3595,2.3732,2.3969,2.4611,2.5116,2.5597,2.623,2.6617,2.6777,2.6314,2.6274,2.64,2.6199,2.6476,2.687,2.7136,2.7405,2.754,2.7285,2.7405,2.754,2.7285,2.742,2.7465,2.6956,2.724,2.7525,2.727,2.742,2.76,2.76,2.76,2.76,2.76,2.76,2.76,2.76,2.76,2.76,2.76,2.76,2.76,2.76,2.76,2.76,2.76,2.7121,2.7076,2.757,2.736,2.7225,2.7225,2.7465,2.748,2.7225,2.748,2.76,2.76,2.76,2.76,1.45,1.4733,1.5148,1.5148,0.0,0.0,1.6982,1.7392,1.7673,1.7673,1.8433,0.0,0.0,0.0,0.0,0.0,2.3212,2.3595,2.3595,2.3595,2.3595,2.3595,2.3595,2.3595,2.3595,2.3595,2.3595,2.3595,2.3595,2.3595,2.3595,2.3595,2.3595,2.3595,2.3595,2.3595,2.3595,2.3595,2.3595,2.3595,2.3595,2.3595,2.3595,2.3595,2.3595,2.3595,2.3595,2.3595,2.3595,2.3595,2.3595,2.3625,2.3834,2.4201,2.4679,2.5337,2.6019,2.6686,2.7136,2.742,2.7524,2.7008,2.7034,2.7188,2.693,2.7034,2.7306,2.7534,2.76,2.76,2.76,2.76,2.76,2.76,2.76,2.76,2.76,2.76,2.76,2.76,2.76,2.76,2.76,2.76,2.76,2.76,2.76,2.76,2.76,2.76,2.7675,2.7899,2.8109,2.8154,2.7944,2.7929,2.7824,2.76,2.76,2.76,2.76,2.76,2.76,2.76,2.76,2.76,2.76,2.76,2.76,2.76,2.76,2.76,1.5035,1.5286,1.568,0.0,0.0,0.0,1.8038,1.8299,1.8299,1.8334,0.0,1.9481,2.0686,0.0,0.0,2.25,2.3212,2.3595,2.3595,2.3595,2.3595,2.3595,2.3595,2.3595,2.3595,2.3595,2.3595,2.3595,2.3595,2.3595,2.3595,2.3595,2.3595,2.3595,2.3595,2.3595,2.3595,2.3595,2.3595,2.3595,2.3595,2.3595,2.3595,2.3595,2.3595,2.3595,2.3595,2.3595,2.3595,2.3595,2.3595,2.367,2.4335,2.4605,2.4694,2.5352,2.6033,2.6602,2.6602,2.7046,2.76,2.76,2.71,2.6642,2.7382,2.7086,2.6669,2.7382,2.76,2.76,2.76,2.76,2.76,2.76,2.76,2.76,2.76,2.76,2.76,2.76,2.76,2.76,2.76,2.76,2.76,2.76,2.76,2.76,2.76,2.76,2.7869,2.8532,2.919,2.9337,2.8667,2.8607,2.8308,2.7645,2.76,2.76,2.76,2.76,2.76,2.76,2.76,2.76,2.76,2.76,2.76,2.76,2.76,2.76,1.4934,1.5009,0.0,1.6068,0.0,0.0,0.0,1.8865,0.0,0.0,2.1138,2.1176,2.1999,0.0,0.0,2.2637,2.3212,2.3595,2.3595,2.3595,2.3595,2.3595,2.3595,2.3595,2.3595,2.3595,2.3595,2.3595,2.3595,2.3595,2.3595,2.3595,2.3595,2.3595,2.3595,2.3595,2.3595,2.3595,2.3595,2.3595,2.3595,2.3595,2.3595,2.3595,2.3595,2.3595,2.3595,2.3595,2.3595,2.3595,2.3595,2.367,2.4335,2.4889,2.5367,2.6063,2.6746,2.73,2.73,2.7435,2.7509,2.6982,2.7034,2.7229,2.693,2.7049,2.7331,2.7549,2.76,2.76,2.76,2.76,2.76,2.76,2.76,2.76,2.76,2.76,2.76,2.76,2.76,2.76,2.76,2.76,2.76,2.76,2.76,2.7764,2.8233,2.8293,2.8547,2.922,2.946,2.9532,2.931,2.8861,2.8517,2.8308,2.7869,2.76,2.76,2.76,2.76,2.76,2.76,2.76,2.76,2.76,2.76,2.76,2.76,2.76,1.5223,1.5374,0.0,1.6605,1.7567,1.8655,1.9922,0.0,0.0,0.0,0.0,2.2291,2.2954,2.2868,0.0,2.3017,2.3355,2.3595,2.3595,2.3595,2.3595,2.3595,2.3595,2.3595,2.3595,2.3595,2.3595,2.3595,2.3595,2.3595,2.3595,2.3595,2.3595,2.3595,2.3595,2.3595,2.3595,2.3595,2.3595,2.3595,2.3595,2.3595,2.3595,2.3595,2.3595,2.3595,2.3595,2.3595,2.3595,2.3595,2.3595,2.367,2.4335,2.5008,2.5689,2.6348,2.7031,2.76,2.76,2.76,2.7524,2.7086,2.7229,2.7524,2.706,2.7255,2.76,2.76,2.76,2.76,2.76,2.76,2.76,2.76,2.76,2.76,2.76,2.76,2.76,2.76,2.76,2.76,2.76,2.76,2.76,2.76,2.7824,2.8233,2.8906,2.9205,2.9505,2.9909,3.0193,3.0253,2.9968,2.9579,2.925,2.9011,2.8633,2.8393,2.8393,2.7884,2.76,2.76,2.76,2.76,2.76,2.76,2.76,2.76,2.76,2.76,1.5618,0.0,0.0,1.7216,1.7984,0.0,2.1521,0.0,2.2345,2.3389,0.0,2.2957,2.349,2.3152,2.2957,2.3505,2.3595,2.3595,2.3595,2.3595,2.3595,2.3595,2.3595,2.3595,2.3595,2.3595,2.3595,2.3595,2.3595,2.3595,2.3595,2.3595,2.3595,2.3595,2.3595,2.3595,2.3595,2.3595,2.3595,2.3595,2.3595,2.3595,2.3595,2.3595,2.3595,2.3595,2.3595,2.3595,2.3595,2.3595,2.3595,2.367,2.4335,2.5008,2.5689,2.6348,2.7031,2.76,2.76,2.76,2.76,2.76,2.76,2.76,2.76,2.76,2.76,2.76,2.76,2.76,2.76,2.76,2.76,2.76,2.76,2.76,2.76,2.76,2.76,2.76,2.76,2.7615,2.7675,2.769,2.7705,2.7764,2.8319,2.8921,2.9606,3.0163,3.0522,3.0597,3.1137,3.1256,3.0657,3.0537,3.0268,2.9726,2.9636,2.9606,2.9606,2.8438,2.7779,2.7779,2.7779,2.7779,2.7779,2.7779,2.7779,2.7779,2.7779,2.7779,1.5072,1.5462,0.0,0.0,1.9464,2.138,2.2895,2.3235,2.3301,2.3543,2.349,2.3445,2.358,2.349,2.3445,2.358,2.3595,2.3595,2.3595,2.3595,2.3595,2.3595,2.3595,2.3595,2.3595,2.3595,2.3595,2.3595,2.3595,2.3595,2.3595,2.3595,2.3595,2.3595,2.3595,2.3595,2.3595,2.3595,2.3595,2.3595,2.3595,2.3595,2.3595,2.3595,2.3595,2.3595,2.3595,2.3595,2.3595,2.3595,2.3595,2.367,2.4335,2.5008,2.5689,2.6348,2.7031,2.76,2.76,2.76,2.76,2.76,2.76,2.76,2.76,2.76,2.76,2.76,2.76,2.76,2.76,2.76,2.76,2.76,2.76,2.76,2.76,2.76,2.76,2.76,2.76,2.7764,2.8278,2.8382,2.8547,2.9097,2.9292,2.9594,3.0223,3.0417,3.0717,3.1227,3.1406,3.1451,3.1301,3.0806,3.0447,3.0313,2.9849,2.9606,2.9606,2.9322,2.9172,2.9172,2.9172,2.9172,2.9172,2.9172,2.9172,2.9172,2.9172,2.9172,0.0,0.0,0.0,0.0,0.0,0.0,2.331,2.3595,2.3595,2.3595,2.3595,2.3595,2.3595,2.3595,2.3595,2.3595,2.3595,2.3595,2.3595,2.3595,2.3595,2.3595,2.3595,2.3595,2.3595,2.3595,2.3595,2.3595,2.3595,2.3595,2.3595,2.3595,2.3595,2.3595,2.3595,2.3595,2.3595,2.3595,2.3595,2.3595,2.3595,2.3595,2.3595,2.3595,2.3595,2.3595,2.3595,2.3595,2.3595,2.3595,2.3595,2.3625,2.3977,2.453,2.5187,2.5869,2.6542,2.7165,2.748,2.76,2.76,2.76,2.76,2.76,2.76,2.76,2.76,2.76,2.76,2.76,2.76,2.76,2.76,2.76,2.76,2.76,2.76,2.76,2.76,2.76,2.7869,2.8173,2.8547,2.8861,2.9295,2.9924,3.0028,3.0253,3.0883,3.0972,3.1107,3.1466,3.1511,3.1511,3.1511,3.1182,3.0972,3.0972,3.0687,3.0507,3.0507,3.0507,3.0223,2.9621,2.9606,2.9606,2.9606,2.9606,2.9606,2.9606,2.9606,2.9606,0.0,0.0,0.0,0.0,0.0,0.0,0.0,2.352,2.3595,2.3595,2.3595,2.3595,2.3595,2.3595,2.3595,2.3595,2.3595,2.3595,2.3595,2.3595,2.3595,2.3595,2.3595,2.3595,2.3595,2.3595,2.3595,2.3595,2.3595,2.3595,2.3595,2.3595,2.3595,2.3595,2.3595,2.3595,2.3595,2.3595,2.3595,2.3595,2.3595,2.3595,2.3595,2.3595,2.3595,2.3595,2.3595,2.3595,2.3595,2.3595,2.3595,2.3595,2.3595,2.4066,2.4844,2.5397,2.6093,2.6866,2.7405,2.76,2.76,2.76,2.76,2.76,2.76,2.76,2.76,2.76,2.76,2.76,2.76,2.76,2.76,2.76,2.769,2.775,2.7615,2.769,2.7779,2.7779,2.8382,2.8936,2.8936,2.9475,3.0088,3.0612,3.0687,3.0853,3.1436,3.1511,3.1511,3.1511,3.1511,3.1511,3.1511,3.1511,3.1511,3.1511,3.1511,3.1511,3.1511,3.1511,3.1002,2.9939,2.9924,2.9924,2.9924,2.9924,2.9924,2.9924,2.9924,2.9924,0.0,0.0,0.0,0.0,0.0,0.0,0.0,0.0,2.3595,0.0,2.3595,2.3595,2.3595,2.3595,2.3595,2.3595,2.3595,2.3595,2.3595,2.3595,2.3595,2.3595,2.3595,2.3595,2.3595,2.3595,2.3595,2.3595,2.3595,2.3595,2.3595,2.3595,2.3595,2.3595,2.3595,2.3595,2.3595,2.3595,2.3595,2.3595,2.3595,2.3595,2.3595,2.3595,2.3595,2.3595,2.3595,2.3595,2.3595,2.3595,2.3595,2.3595,2.3595,2.4358,2.5495,2.557,2.6378,2.748,2.757,2.76,2.76,2.76,2.76,2.76,2.76,2.76,2.76,2.76,2.76,2.76,2.76,2.76,2.76,2.76,2.8049,2.8308,2.772,2.8064,2.8472,2.8472,2.943,3.0253,3.0253,3.0793,3.1271,3.1346,3.1376,3.1406,3.1496,3.1511,3.1511,3.1511,3.1511,3.1511,3.1511,3.1511,3.1511,3.1511,3.1511,3.1511,3.1511,3.1511,3.1421,3.1256,3.1241,3.1241,3.1241,3.1241,3.1241,3.1241,3.1241,3.1241,1.4896,0.0,0.0,0.0,0.0,0.0,0.0,0.0,2.3176,2.3535,2.3595,2.3595,2.3595,2.3595,2.3595,2.3595,2.3595,2.3595,2.3595,2.3595,2.3595,2.3595,2.3595,2.3595,2.3595,2.3595,2.3595,2.3595,2.3595,2.3595,2.3595,2.3595,2.3595,2.3595,2.3595,2.3595,2.3595,2.3595,2.3595,2.3595,2.3595,2.3595,2.3595,2.3595,2.3595,2.3595,2.3595,2.3595,2.3595,2.3595,2.3595,2.364,2.4007,2.4515,2.5128,2.5884,2.6527,2.7091,2.7465,2.76,2.76,2.76,2.76,2.76,2.76,2.76,2.76,2.76,2.76,2.76,2.76,2.7884,2.8169,2.8169,2.8667,2.9071,2.8783,2.8963,2.925,2.9594,3.0118,3.0627,3.0987,3.1301,3.1511,3.1511,3.1511,3.1511,3.1511,3.1511,3.1511,3.1511,3.1511,3.1511,3.1511,3.1511,3.1511,3.1511,3.1511,3.1511,3.1511,3.1511,3.1511,3.1511,3.1511,3.1511,3.1511,3.1511,3.1511,3.1511,3.1511,3.1511,0.0,0.0,0.0,0.0,0.0,0.0,0.0,0.0,2.2823,0.0,2.349,2.355,2.3385,2.349,2.3595,2.3595,2.3595,2.3595,2.3595,2.3595,2.3595,2.3595,2.3595,2.3595,2.3595,2.3595,2.3595,2.3595,2.3595,2.3595,2.3595,2.3595,2.3595,2.3595,2.3595,2.3595,2.3595,2.3595,2.3595,2.3595,2.3595,2.3595,2.3595,2.3595,2.3595,2.3595,2.3595,2.3595,2.361,2.3789,2.3864,2.3924,2.459,2.4963,2.5217,2.6228,2.6692,2.6941,2.742,2.76,2.76,2.76,2.76,2.76,2.76,2.76,2.76,2.76,2.76,2.7645,2.7809,2.8244,2.8637,2.8801,2.934,2.9846,2.9846,2.9846,2.9998,3.0642,3.0761,3.0898,3.1406,3.1511,3.1511,3.1511,3.1511,3.1511,3.1511,3.1511,3.1511,3.1511,3.1511,3.1511,3.1511,3.1511,3.1511,3.1511,3.1511,3.1511,3.1511,3.1511,3.1511,3.1511,3.1511,3.1511,3.1511,3.1511,3.1511,3.1511,3.1511,3.1511,0.0,0.0,0.0,0.0,0.0,0.0,0.0,0.0,0.0,2.2748,2.3191,2.3415,2.2853,2.3206,2.3595,2.3595,2.3595,2.3595,2.3595,2.3595,2.3595,2.3595,2.3595,2.3595,2.3595,2.3595,2.3595,2.3595,2.3595,2.3595,2.3595,2.3595,2.3595,2.3595,2.3595,2.3595,2.3595,2.3595,2.3595,2.3595,2.3595,2.3595,2.3595,2.3595,2.3595,2.3595,2.3595,2.3595,2.3655,2.4291,2.4545,2.4619,2.5277,2.5944,2.6497,2.6557,2.7001,2.754,2.7585,2.76,2.76,2.76,2.76,2.76,2.76,2.76,2.76,2.76,2.76,2.775,2.8368,2.8577,2.8757,2.9412,2.9998,3.0447,3.0447,3.0447,3.0657,3.1316,3.1451,3.1466,3.1496,3.1511,3.1511,3.1511,3.1511,3.1511,3.1511,3.1511,3.1511,3.1511,3.1511,3.1511,3.1511,3.1511,3.1511,3.1511,3.1511,3.1511,3.1511,3.1511,3.1511,3.1511,3.1511,3.1511,3.1511,3.1511,3.1511,3.1511,3.1511,3.1511,0.0,0.0,0.0,0.0,0.0,0.0,0.0,2.0818,2.1545,2.1964,2.2218,2.2308,2.2104,2.2598,2.2882,2.2443,2.2383,2.2517,2.2972,2.3032,2.3182,2.355,2.3595,2.3595,2.3595,2.3595,2.3595,2.3595,2.3595,2.3595,2.3595,2.3595,2.3595,2.3595,2.3595,2.3595,2.3595,2.3595,2.3595,2.3595,2.3595,2.3595,2.3595,2.3595,2.3595,2.3595,2.3595,2.3595,2.3625,2.3864,2.4201,2.4664,2.5337,2.6019,2.6632,2.7091,2.739,2.76,2.76,2.76,2.76,2.76,2.728,2.6878,2.6878,2.6575,2.6188,2.6188,2.6837,2.7603,2.781,2.8853,2.9998,3.0672,3.0972,3.1137,3.1137,3.1137,3.1212,3.1451,3.1511,3.1511,3.1511,3.1511,3.1511,3.1511,3.1511,3.1511,3.1511,3.1511,3.1511,3.1511,3.1511,3.1511,3.1511,3.1511,3.1511,3.1511,3.1511,3.1511,3.1511,3.1511,3.1511,3.1511,3.1511,3.1511,3.1511,3.1511,3.1511,3.1511,3.1511,3.1511,1.4204,0.0,0.0,0.0,0.0,0.0,1.9338,0.0,2.0616,2.1237,2.1545,2.162,2.141,2.1724,2.1949,2.1739,2.1695,2.1864,2.2298,2.2568,2.2853,2.3236,2.3475,2.3595,2.3595,2.3595,2.3595,2.3595,2.3595,2.3595,2.3595,2.3595,2.3595,2.3595,2.3595,2.3595,2.3595,2.3595,2.3595,2.3595,2.3595,2.3595,2.3595,2.3595,2.3595,2.3595,2.3595,2.3595,2.3625,2.4088,2.4515,2.5023,2.5929,2.6527,2.7001,2.7435,2.7433,2.7229,2.7229,2.7086,2.6864,2.6864,2.6549,2.6122,2.6122,2.596,2.5757,2.5702,2.6732,2.7917,2.8048,2.947,3.0943,3.1391,3.1511,3.1511,3.1511,3.1511,3.1511,3.1511,3.1511,3.1511,3.1511,3.1511,3.1511,3.1511,3.1511,3.1511,3.1511,3.1511,3.1511,3.1511,3.1511,3.1511,3.1511,3.1511,3.1511,3.1511,3.1511,3.1511,3.1511,3.1511,3.1511,3.1511,3.1511,3.1511,3.1511,3.1511,3.1511,3.1511,3.1511,3.1511,0.0,0.0,0.0,0.0,0.0,0.0,1.8461,0.0,1.9981,2.0529,2.1166,2.1421,2.0778,2.0658,2.0868,2.1545,2.1635,2.165,2.1665,2.2254,2.2673,2.2703,2.3227,2.3565,2.3565,2.3565,2.3565,2.3565,2.3595,2.3595,2.3595,2.3595,2.3595,2.3595,2.3595,2.3595,2.3595,2.3595,2.3595,2.3595,2.3595,2.3595,2.3595,2.3595,2.3595,2.3595,2.3595,2.361,2.3729,2.5031,2.5576,2.5764,2.7061,2.7585,2.76,2.76,2.7152,2.6537,2.6537,2.6054,2.5453,2.5425,2.5425,2.5425,2.5398,2.5906,2.6467,2.6244,2.7365,2.8723,2.9218,3.0397,3.1467,3.1467,3.1467,3.1511,3.1511,3.1511,3.1511,3.1511,3.1511,3.1511,3.1511,3.1511,3.1511,3.1511,3.1511,3.1511,3.1511,3.1511,3.1511,3.1511,3.1511,3.1511,3.1511,3.1511,3.1511,3.1511,3.1511,3.1511,3.1511,3.1511,3.1511,3.1511,3.1511,3.1511,3.1511,3.1511,3.1511,3.1511,3.1511,3.1511,1.4103,0.0,0.0,0.0,0.0,0.0,0.0,0.0,1.8285,1.9213,1.9555,1.9742,1.9949,1.9974,2.0034,2.0213,2.0262,2.0408,2.0917,2.1545,2.2164,2.2643,2.2853,2.2957,2.2957,2.2957,2.2957,2.2957,2.334,2.3595,2.3595,2.3595,2.3595,2.3595,2.3595,2.3595,2.3595,2.3595,2.3595,2.3595,2.3595,2.3595,2.3595,2.3595,2.3595,2.3595,2.3595,2.3879,2.435,2.4724,2.5442,2.6363,2.6722,2.718,2.76,2.76,2.7458,2.7306,2.7306,2.7163,2.689,2.6363,2.6203,2.6095,2.5563,2.5869,2.6428,2.6368,2.7698,2.9289,2.9883,3.0319,3.0614,3.0614,3.1087,3.1511,3.1511,3.1511,3.1511,3.1511,3.1511,3.1511,3.1511,3.1511,3.1511,3.1511,3.1511,3.1511,3.1511,3.1511,3.1511,3.1511,3.1511,3.1511,3.1511,3.1511,3.1511,3.1511,3.1511,3.1511,3.1511,3.1511,3.1511,3.1511,3.1511,3.1511,3.1511,3.1511,3.1511,3.1511,3.1511,3.1511,1.4229,0.0,0.0,0.0,0.0,0.0,1.6888,1.7235,1.7674,0.0,1.9225,1.9332,1.9639,1.9708,1.9708,1.9708,1.9708,1.9842,2.0228,2.0857,2.1425,2.1814,2.2119,2.2388,2.2673,2.2703,2.2808,2.3062,2.3385,2.3595,2.3595,2.3595,2.3595,2.3595,2.3595,2.3595,2.3595,2.3595,2.3595,2.3595,2.3595,2.3595,2.3595,2.3595,2.3595,2.361,2.3909,2.4395,2.5038,2.5307,2.5899,2.6641,2.6926,2.7255,2.756,2.7255,2.7137,2.7086,2.6785,2.6666,2.6561,2.581,2.5563,2.555,2.5378,2.5561,2.597,2.6473,2.7611,2.8842,2.956,2.9766,2.9766,2.9766,3.0103,3.0554,3.0925,3.0999,3.1087,3.1438,3.1511,3.1511,3.1511,3.1511,3.16,3.1869,3.1675,3.16,3.1869,3.1675,3.1615,3.1884,3.1914,3.1914,3.1914,3.1914,3.1795,3.1525,3.1511,3.1511,3.1511,3.1511,3.1511,3.1511,3.1511,3.1511,3.1511,3.1511,3.1511,3.1511,3.1511,3.1511,1.4525,1.4921,0.0,0.0,1.5299,0.0,1.7395,1.7446,1.7581,0.0,1.953,1.9566,1.969,1.9708,1.9708,1.9708,1.9708,1.9708,1.9708,2.0288,2.0703,2.0703,2.1231,2.1814,2.2418,2.2478,2.2703,2.3236,2.3415,2.3535,2.3595,2.3595,2.3595,2.3595,2.3595,2.3595,2.3595,2.3595,2.3595,2.3595,2.3595,2.3595,2.3595,2.3595,2.3595,2.364,2.4306,2.4978,2.5636,2.6245,2.6583,2.6752,2.736,2.7534,2.7408,2.6747,2.6457,2.6283,2.5618,2.5398,2.5287,2.4538,2.439,2.4593,2.5041,2.5306,2.565,2.6812,2.7405,2.7887,2.8652,2.8876,2.8876,2.8971,2.9066,2.938,3.0238,3.0419,3.0644,3.1351,3.1511,3.1511,3.1511,3.157,3.1809,3.2392,3.1989,3.1824,3.2407,3.1914,3.1765,3.2437,3.2512,3.2512,3.2512,3.2512,3.2198,3.154,3.1511,3.1511,3.1511,3.1511,3.1511,3.1511,3.1511,3.1511,3.1511,3.1511,3.1511,3.1511,3.1511,3.1511,1.5336,1.5236,1.516,1.558,0.0,0.0,1.5964,1.6101,1.6474,0.0,1.8419,1.8669,1.9548,1.9708,1.9708,1.9708,1.9708,1.9708,1.9708,2.0288,2.0703,2.0703,2.0808,2.0942,2.1081,2.1096,2.1137,2.1256,2.2263,2.3092,2.3565,2.3595,2.3595,2.3595,2.3595,2.3595,2.3595,2.3595,2.3595,2.3595,2.3595,2.3595,2.3595,2.3595,2.3595,2.364,2.4306,2.4978,2.5612,2.5687,2.6384,2.742,2.754,2.7229,2.6695,2.6563,2.6122,2.5591,2.5453,2.5398,2.5287,2.4538,2.4989,2.5741,2.5246,2.621,2.7592,2.8365,2.8153,2.7736,2.792,2.7953,2.8149,2.8844,2.9535,3.0269,3.1087,3.1278,3.1307,3.1467,3.1511,3.1511,3.1511,3.1944,3.2333,3.2497,3.2378,3.2333,3.2467,3.1914,3.1765,3.2437,3.2512,3.2512,3.2512,3.2512,3.2198,3.154,3.1511,3.1511,3.1511,3.1511,3.1511,3.1511,3.1511,3.1511,3.1511,3.1511,3.1511,3.1511,3.1511,3.1511,1.5693,1.5693,1.5756,1.6032,0.0,0.0,0.0,1.6298,1.6474,1.7824,1.8051,1.8262,1.9148,1.9245,1.9301,1.9648,1.9708,1.9603,1.935,1.9827,2.0198,2.0198,2.0198,2.0333,2.0658,2.0703,2.0991,2.165,2.2328,2.2957,2.3565,2.3595,2.3595,2.3595,2.3595,2.3595,2.3595,2.3595,2.3595,2.3595,2.3595,2.3595,2.3595,2.3595,2.3584,2.3611,2.4647,2.5254,2.56,2.627,2.6969,2.7524,2.6785,2.6269,2.5906,2.5536,2.5398,2.5342,2.4979,2.5091,2.5314,2.4856,2.5119,2.569,2.5928,2.6867,2.7838,2.7775,2.7451,2.7095,2.7095,2.7384,2.7802,2.8247,2.8684,2.9223,3.0072,2.9919,2.9721,3.0178,3.0614,3.1132,3.187,3.2273,3.2617,3.2961,3.3006,3.3006,3.3006,3.2721,3.2647,3.2961,3.3006,3.2871,3.2542,3.2512,3.2198,3.154,3.1511,3.1511,3.1511,3.1511,3.1511,3.1511,3.1511,3.1511,3.1511,3.1511,3.1511,3.1511,3.1511,3.1511,0.0,0.0,0.0,0.0,0.0,1.6081,0.0,0.0,0.0,0.0,0.0,0.0,0.0,0.0,0.0,0.0,0.0,0.0,0.0,1.935,0.0,1.9548,1.9639,1.9899,2.0434,2.0494,2.1066,2.2403,2.2508,2.2838,2.3565,2.3595,2.3595,2.3595,2.3595,2.3595,2.3595,2.3595,2.3595,2.3595,2.3595,2.3595,2.3595,2.3595,2.3629,2.3768,2.5044,2.556,2.56,2.6729,2.7086,2.689,2.612,2.5646,2.5315,2.4738,2.4696,2.4866,2.4292,2.4518,2.5094,2.4945,2.5036,2.5401,2.6478,2.7118,2.7317,2.6692,2.6499,2.6499,2.6499,2.6973,2.7517,2.767,2.7703,2.7953,2.8812,2.846,2.8241,2.9236,2.9998,3.0858,3.2049,3.2482,3.2931,3.3589,3.3679,3.3679,3.3679,3.3574,3.3544,3.3664,3.3574,3.3275,3.2751,3.2557,3.2198,3.154,3.1511,3.1511,3.1511,3.1511,3.1511,3.1511,3.1511,3.1511,3.1511,3.1511,3.1511,3.1511,3.1511,3.1511,0.0,0.0,0.0,0.0,1.645,0.0,0.0,0.0,1.6676,1.7278,0.0,0.0,0.0,0.0,0.0,0.0,0.0,0.0,1.9548,1.9244,1.8987,1.8987,1.9406,1.9738,1.9813,1.9813,2.0382,2.171,2.1799,2.2338,2.3535,2.3595,2.3595,2.3595,2.3595,2.3595,2.3595,2.3595,2.3595,2.3595,2.3595,2.3595,2.3595,2.3595,2.3925,2.4521,2.5269,2.556,2.5509,2.5597,2.5245,2.4866,2.664,2.6534,2.5398,2.5315,2.4467,2.3365,2.3275,2.3647,2.4151,2.4122,2.476,2.5656,2.6333,2.6607,2.6624,2.6521,2.6499,2.6499,2.6499,2.6555,2.6816,2.755,2.7703,2.7953,2.8812,2.8907,2.9281,3.0697,3.1015,3.1137,3.1317,3.2474,3.3604,3.4294,3.4399,3.4399,3.4399,3.3858,3.3724,3.4339,3.3844,3.3469,3.338,3.2841,3.2198,3.154,3.1511,3.1511,3.1511,3.1511,3.1511,3.1511,3.1511,3.1511,3.1511,3.1511,3.1511,3.1511,3.1511,3.1511,0.0,0.0,0.0,0.0,0.0,0.0,1.6575,0.0,1.6659,0.0,0.0,0.0,0.0,0.0,0.0,0.0,1.8798,0.0,0.0,0.0,1.8554,0.0,0.0,0.0,1.9708,1.9424,1.9767,2.1013,2.1198,2.1783,2.3011,2.34,2.3595,2.3595,2.3595,2.3595,2.3595,2.3595,2.3595,2.3595,2.3595,2.3421,2.3091,2.3389,2.3454,2.3378,2.4439,2.488,2.4833,2.5232,2.5231,2.5035,2.5973,2.5398,2.4076,2.4076,2.3649,2.3108,2.3108,2.3484,2.4104,2.472,2.546,2.6172,2.6411,2.6499,2.6499,2.6499,2.6499,2.6499,2.6499,2.685,2.7297,2.7604,2.8084,2.8427,2.8266,2.8489,2.893,2.9602,3.0425,3.1278,3.2213,3.3328,3.4189,3.4474,3.4816,3.4936,3.4563,3.4577,3.4472,3.3963,3.4039,3.3754,3.2991,3.2677,3.2392,3.2093,3.172,3.1511,3.1511,3.1511,3.1511,3.1511,3.1511,3.1511,3.1511,3.1511,3.1511,3.1511,3.1511,3.1511,1.6761,0.0,0.0,0.0,0.0,0.0,0.0,0.0,0.0,0.0,0.0,0.0,0.0,0.0,0.0,0.0,0.0,1.7807,0.0,1.7727,0.0,0.0,0.0,0.0,0.0,1.8912,1.9185,2.0385,2.056,2.1234,2.2637,2.3122,2.343,2.3595,2.3595,2.3508,2.3341,2.3508,2.3428,2.3069,2.3275,2.3119,2.269,2.3084,2.3139,2.2991,2.3972,2.4353,2.435,2.4879,2.4979,2.4781,2.4781,2.4105,2.3138,2.3335,2.3275,2.3133,2.3283,2.3841,2.4582,2.5523,2.6147,2.6499,2.6499,2.6499,2.6499,2.6499,2.6499,2.6499,2.6499,2.6939,2.7384,2.7384,2.7855,2.8189,2.7714,2.7897,2.8364,2.9051,2.9989,3.1288,3.3087,3.4036,3.4578,3.4758,3.519,3.5325,3.4848,3.519,3.513,3.4143,3.4307,3.4114,3.3125,3.2886,3.2706,3.2497,3.1869,3.1511,3.1511,3.1511,3.1511,3.1511,3.1511,3.1511,3.1511,3.1511,3.1511,3.1511,3.1511,3.1511,0.0,0.0,0.0,1.6638,0.0,0.0,0.0,0.0,1.65,0.0,0.0,0.0,0.0,0.0,0.0,0.0,0.0,0.0,0.0,0.0,0.0,0.0,0.0,0.0,0.0,1.8145,1.8627,1.9829,1.9921,2.0746,2.2607,2.2718,2.3002,2.358,2.3595,2.3334,2.2717,2.3312,2.298,2.1767,2.2429,2.2686,2.2597,2.2611,2.3248,2.4351,2.4391,2.4353,2.4292,2.4321,2.3884,2.3155,2.3155,2.3125,2.3185,2.3972,2.3767,2.3183,2.3778,2.4657,2.5636,2.6273,2.6474,2.6499,2.6499,2.6499,2.6499,2.6499,2.6499,2.6499,2.6499,2.6521,2.6521,2.6521,2.6555,2.6706,2.7213,2.7339,2.7939,2.9941,3.0394,3.1163,3.3562,3.4265,3.4728,3.537,3.5489,3.5489,3.5474,3.5489,3.5489,3.5444,3.4861,3.4488,3.4444,3.3829,3.3185,3.2557,3.1869,3.1511,3.1511,3.1511,3.1511,3.1511,3.1511,3.1511,3.1511,3.1511,3.1511,3.1511,3.1511,3.1511,1.922,1.9429,1.9378,1.8022,1.7952,1.8022,0.0,0.0,0.0,0.0,0.0,0.0,0.0,0.0,0.0,0.0,0.0,0.0,0.0,0.0,0.0,0.0,0.0,0.0,0.0,0.0,1.8029,1.9152,1.9322,2.0136,2.1939,2.2463,2.2782,2.2995,2.3399,2.3106,2.2053,2.3084,2.3187,2.2369,2.3009,2.3322,2.3335,2.3698,2.407,2.4446,2.4379,2.4323,2.4263,2.3721,2.3335,2.3108,2.3108,2.3108,2.3138,2.3395,2.3588,2.3841,2.4745,2.5297,2.5686,2.6298,2.6499,2.6499,2.6499,2.6499,2.6499,2.6499,2.6499,2.6499,2.6499,2.6763,2.704,2.704,2.7748,2.8289,2.7915,2.8556,2.9444,3.0247,3.0689,3.16,3.3642,3.409,3.446,3.5362,3.4953,3.4758,3.5392,3.5504,3.5325,3.4876,3.5026,3.4966,3.4548,3.3873,3.3215,3.2557,3.1869,3.1511,3.1511,3.1511,3.1511,3.1511,3.1511,3.1511,3.1511,3.1511,3.1511,3.1511,3.1511,3.1511,2.0443,2.0642,2.0583,1.9274,1.9206,1.9189,1.8163,1.8126,1.8434,0.0,0.0,0.0,0.0,0.0,0.0,0.0,0.0,0.0,0.0,1.5982,0.0,0.0,0.0,0.0,0.0,0.0,1.7337,1.8788,1.8627,1.9305,0.0,2.1984,2.2441,2.2695,2.3281,2.3106,2.2077,2.3084,2.3187,2.2346,2.3206,2.3482,2.3269,2.3858,2.4064,2.4007,2.3906,2.3884,2.3826,2.3305,2.3108,2.3108,2.3108,2.3233,2.3409,2.3409,2.3916,2.4669,2.536,2.5737,2.5963,2.6373,2.6499,2.6499,2.6499,2.6499,2.6537,2.6738,2.6788,2.6839,2.7027,2.7341,2.757,2.757,2.8288,2.8833,2.8458,2.9094,2.9831,3.0138,3.0734,3.1669,3.3241,3.3484,3.3973,3.5294,3.4953,3.4758,3.5439,3.5504,3.5325,3.4891,3.5235,3.5325,3.4876,3.4233,3.3664,3.3245,3.2572,3.2198,3.2198,3.2198,3.2093,3.1854,3.1854,3.1735,3.1511,3.1511,3.1511,3.1511,3.1511,3.1511]}]]